<?xml version="1.0" encoding="UTF-8"?>
<gpx version="1.0" creator="Trackator" xmlns:xsi="http://www.w3.org/2001/XMLSchema-instance" xmlns="http://www.topografix.com/GPX/1/0" xmlns:topografix="http://www.topografix.com/GPX/Private/TopoGrafix/0/1" xsi:schemaLocation="http://www.topografix.com/GPX/1/0 http://www.topografix.com/GPX/1/0/gpx.xsd http://www.topografix.com/GPX/Private/TopoGrafix/0/1 http://www.topografix.com/GPX/Private/TopoGrafix/0/1/topografix.xsd">
<metadata>
<link href="http://www.trackator.com">
<text>Trackator</text>
</link>
</metadata>
<time>2013-08-09T:22:42Z</time>
<trk>
<name>Track: </name>
<desc>Hiking</desc>
<trkseg>
<trkpt lat="37.57889618" lon="-1.21442464">
<ele>120</ele>
<time>2013-08-09T:22:42Z</time>
</trkpt>
<trkpt lat="37.57884397" lon="-1.21431322">
<ele>119</ele>
<time>2013-08-09T19:22:48Z</time>
</trkpt>
<trkpt lat="37.57882539" lon="-1.21418301">
<ele>116</ele>
<time>2013-08-09T19:22:54Z</time>
</trkpt>
<trkpt lat="37.57880636" lon="-1.21416221">
<ele>114</ele>
<time>2013-08-09T19:23:00Z</time>
</trkpt>
<trkpt lat="37.5787146" lon="-1.21399134">
<ele>110</ele>
<time>2013-08-09T19:23:06Z</time>
</trkpt>
<trkpt lat="37.57871583" lon="-1.21384617">
<ele>105</ele>
<time>2013-08-09T19:23:12Z</time>
</trkpt>
<trkpt lat="37.57873398" lon="-1.21377434">
<ele>100</ele>
<time>2013-08-09T19:23:18Z</time>
</trkpt>
<trkpt lat="37.57872314" lon="-1.21364205">
<ele>102</ele>
<time>2013-08-09T19:23:24Z</time>
</trkpt>
<trkpt lat="37.57870301" lon="-1.21357984">
<ele>101</ele>
<time>2013-08-09T19:23:30Z</time>
</trkpt>
<trkpt lat="37.57867043" lon="-1.21345416">
<ele>102</ele>
<time>2013-08-09T19:23:36Z</time>
</trkpt>
<trkpt lat="37.57868681" lon="-1.21335842">
<ele>98</ele>
<time>2013-08-09T19:23:42Z</time>
</trkpt>
<trkpt lat="37.57863089" lon="-1.21330786">
<ele>95</ele>
<time>2013-08-09T19:23:48Z</time>
</trkpt>
<trkpt lat="37.57861552" lon="-1.21319375">
<ele>91</ele>
<time>2013-08-09T19:23:54Z</time>
</trkpt>
<trkpt lat="37.57856457" lon="-1.2131314">
<ele>91</ele>
<time>2013-08-09T19:24:00Z</time>
</trkpt>
<trkpt lat="37.57850905" lon="-1.21310843">
<ele>89</ele>
<time>2013-08-09T19:24:06Z</time>
</trkpt>
<trkpt lat="37.57847074" lon="-1.2130647">
<ele>89</ele>
<time>2013-08-09T19:24:12Z</time>
</trkpt>
<trkpt lat="37.57844925" lon="-1.21310951">
<ele>88</ele>
<time>2013-08-09T19:24:18Z</time>
</trkpt>
<trkpt lat="37.57837867" lon="-1.21307898">
<ele>86</ele>
<time>2013-08-09T19:24:24Z</time>
</trkpt>
<trkpt lat="37.57835259" lon="-1.21298616">
<ele>87</ele>
<time>2013-08-09T19:24:30Z</time>
</trkpt>
<trkpt lat="37.57835865" lon="-1.21284365">
<ele>87</ele>
<time>2013-08-09T19:24:36Z</time>
</trkpt>
<trkpt lat="37.57829924" lon="-1.212746">
<ele>89</ele>
<time>2013-08-09T19:24:42Z</time>
</trkpt>
<trkpt lat="37.57828234" lon="-1.21266481">
<ele>88</ele>
<time>2013-08-09T19:24:48Z</time>
</trkpt>
<trkpt lat="37.57827189" lon="-1.21256575">
<ele>88</ele>
<time>2013-08-09T19:24:54Z</time>
</trkpt>
<trkpt lat="37.57827162" lon="-1.21245414">
<ele>89</ele>
<time>2013-08-09T19:25:00Z</time>
</trkpt>
<trkpt lat="37.57826295" lon="-1.21235848">
<ele>88</ele>
<time>2013-08-09T19:25:06Z</time>
</trkpt>
<trkpt lat="37.57827118" lon="-1.21223514">
<ele>85</ele>
<time>2013-08-09T19:25:12Z</time>
</trkpt>
<trkpt lat="37.57828309" lon="-1.21213359">
<ele>86</ele>
<time>2013-08-09T19:25:18Z</time>
</trkpt>
<trkpt lat="37.57827809" lon="-1.21202321">
<ele>86</ele>
<time>2013-08-09T19:25:24Z</time>
</trkpt>
<trkpt lat="37.57827894" lon="-1.211894">
<ele>86</ele>
<time>2013-08-09T19:25:30Z</time>
</trkpt>
<trkpt lat="37.57828628" lon="-1.21178386">
<ele>89</ele>
<time>2013-08-09T19:25:36Z</time>
</trkpt>
<trkpt lat="37.57829298" lon="-1.21166387">
<ele>88</ele>
<time>2013-08-09T19:25:42Z</time>
</trkpt>
<trkpt lat="37.57832405" lon="-1.21158064">
<ele>85</ele>
<time>2013-08-09T19:25:48Z</time>
</trkpt>
<trkpt lat="37.57834145" lon="-1.2115212">
<ele>85</ele>
<time>2013-08-09T19:25:54Z</time>
</trkpt>
<trkpt lat="37.57834147" lon="-1.21143684">
<ele>84</ele>
<time>2013-08-09T19:26:00Z</time>
</trkpt>
<trkpt lat="37.57834043" lon="-1.21132272">
<ele>84</ele>
<time>2013-08-09T19:26:06Z</time>
</trkpt>
<trkpt lat="37.57836091" lon="-1.21120707">
<ele>82</ele>
<time>2013-08-09T19:26:12Z</time>
</trkpt>
<trkpt lat="37.57839681" lon="-1.21111518">
<ele>81</ele>
<time>2013-08-09T19:26:18Z</time>
</trkpt>
<trkpt lat="37.57843664" lon="-1.21104424">
<ele>79</ele>
<time>2013-08-09T19:26:24Z</time>
</trkpt>
<trkpt lat="37.57846768" lon="-1.2109684">
<ele>79</ele>
<time>2013-08-09T19:26:30Z</time>
</trkpt>
<trkpt lat="37.57849464" lon="-1.21086801">
<ele>79</ele>
<time>2013-08-09T19:26:36Z</time>
</trkpt>
<trkpt lat="37.57853217" lon="-1.21074257">
<ele>82</ele>
<time>2013-08-09T19:26:42Z</time>
</trkpt>
<trkpt lat="37.57852111" lon="-1.2106002">
<ele>82</ele>
<time>2013-08-09T19:26:48Z</time>
</trkpt>
<trkpt lat="37.57851317" lon="-1.21048277">
<ele>83</ele>
<time>2013-08-09T19:26:54Z</time>
</trkpt>
<trkpt lat="37.57851315" lon="-1.21045001">
<ele>83</ele>
<time>2013-08-09T19:27:00Z</time>
</trkpt>
<trkpt lat="37.5785237" lon="-1.2103756">
<ele>83</ele>
<time>2013-08-09T19:27:06Z</time>
</trkpt>
<trkpt lat="37.57853316" lon="-1.21022184">
<ele>85</ele>
<time>2013-08-09T19:27:12Z</time>
</trkpt>
<trkpt lat="37.57855927" lon="-1.2100974">
<ele>89</ele>
<time>2013-08-09T19:27:18Z</time>
</trkpt>
<trkpt lat="37.57858001" lon="-1.20998429">
<ele>89</ele>
<time>2013-08-09T19:27:24Z</time>
</trkpt>
<trkpt lat="37.57860965" lon="-1.2098515">
<ele>87</ele>
<time>2013-08-09T19:27:30Z</time>
</trkpt>
<trkpt lat="37.5786083" lon="-1.20974137">
<ele>88</ele>
<time>2013-08-09T19:27:36Z</time>
</trkpt>
<trkpt lat="37.57860985" lon="-1.20963908">
<ele>88</ele>
<time>2013-08-09T19:27:42Z</time>
</trkpt>
<trkpt lat="37.57861265" lon="-1.20953701">
<ele>89</ele>
<time>2013-08-09T19:27:48Z</time>
</trkpt>
<trkpt lat="37.57862617" lon="-1.20945665">
<ele>90</ele>
<time>2013-08-09T19:27:54Z</time>
</trkpt>
<trkpt lat="37.57865357" lon="-1.20936167">
<ele>91</ele>
<time>2013-08-09T19:28:00Z</time>
</trkpt>
<trkpt lat="37.57869026" lon="-1.20925587">
<ele>91</ele>
<time>2013-08-09T19:28:06Z</time>
</trkpt>
<trkpt lat="37.57869789" lon="-1.20915964">
<ele>91</ele>
<time>2013-08-09T19:28:12Z</time>
</trkpt>
<trkpt lat="37.57869653" lon="-1.20906403">
<ele>89</ele>
<time>2013-08-09T19:28:18Z</time>
</trkpt>
<trkpt lat="37.5786925" lon="-1.20894026">
<ele>87</ele>
<time>2013-08-09T19:28:24Z</time>
</trkpt>
<trkpt lat="37.57871493" lon="-1.20883515">
<ele>89</ele>
<time>2013-08-09T19:28:30Z</time>
</trkpt>
<trkpt lat="37.57872502" lon="-1.2087322">
<ele>87</ele>
<time>2013-08-09T19:28:36Z</time>
</trkpt>
<trkpt lat="37.57872801" lon="-1.20865239">
<ele>86</ele>
<time>2013-08-09T19:28:42Z</time>
</trkpt>
<trkpt lat="37.57874397" lon="-1.2085538">
<ele>84</ele>
<time>2013-08-09T19:28:48Z</time>
</trkpt>
<trkpt lat="37.57875751" lon="-1.20844981">
<ele>85</ele>
<time>2013-08-09T19:28:54Z</time>
</trkpt>
<trkpt lat="37.57875482" lon="-1.2083206">
<ele>89</ele>
<time>2013-08-09T19:29:00Z</time>
</trkpt>
<trkpt lat="37.57874013" lon="-1.20819286">
<ele>94</ele>
<time>2013-08-09T19:29:06Z</time>
</trkpt>
<trkpt lat="37.57873508" lon="-1.20808392">
<ele>94</ele>
<time>2013-08-09T19:29:12Z</time>
</trkpt>
<trkpt lat="37.57867461" lon="-1.20802708">
<ele>96</ele>
<time>2013-08-09T19:29:18Z</time>
</trkpt>
<trkpt lat="37.57860785" lon="-1.20801176">
<ele>97</ele>
<time>2013-08-09T19:29:24Z</time>
</trkpt>
<trkpt lat="37.57850605" lon="-1.20799686">
<ele>94</ele>
<time>2013-08-09T19:29:30Z</time>
</trkpt>
<trkpt lat="37.57843296" lon="-1.20796265">
<ele>94</ele>
<time>2013-08-09T19:29:36Z</time>
</trkpt>
<trkpt lat="37.57841251" lon="-1.20787133">
<ele>95</ele>
<time>2013-08-09T19:29:42Z</time>
</trkpt>
<trkpt lat="37.57837203" lon="-1.20780596">
<ele>98</ele>
<time>2013-08-09T19:29:48Z</time>
</trkpt>
<trkpt lat="37.57832989" lon="-1.20772354">
<ele>96</ele>
<time>2013-08-09T19:29:54Z</time>
</trkpt>
<trkpt lat="37.5783219" lon="-1.20761436">
<ele>94</ele>
<time>2013-08-09T19:30:00Z</time>
</trkpt>
<trkpt lat="37.57835859" lon="-1.20750821">
<ele>92</ele>
<time>2013-08-09T19:30:06Z</time>
</trkpt>
<trkpt lat="37.57837757" lon="-1.2074131">
<ele>92</ele>
<time>2013-08-09T19:30:12Z</time>
</trkpt>
<trkpt lat="37.57839531" lon="-1.20730555">
<ele>89</ele>
<time>2013-08-09T19:30:18Z</time>
</trkpt>
<trkpt lat="37.57842656" lon="-1.20719029">
<ele>86</ele>
<time>2013-08-09T19:30:24Z</time>
</trkpt>
<trkpt lat="37.57844356" lon="-1.20708756">
<ele>86</ele>
<time>2013-08-09T19:30:30Z</time>
</trkpt>
<trkpt lat="37.57845973" lon="-1.20700885">
<ele>88</ele>
<time>2013-08-09T19:30:36Z</time>
</trkpt>
<trkpt lat="37.57847972" lon="-1.20690078">
<ele>88</ele>
<time>2013-08-09T19:30:42Z</time>
</trkpt>
<trkpt lat="37.57851315" lon="-1.20680895">
<ele>87</ele>
<time>2013-08-09T19:30:48Z</time>
</trkpt>
<trkpt lat="37.57855285" lon="-1.20670931">
<ele>87</ele>
<time>2013-08-09T19:30:54Z</time>
</trkpt>
<trkpt lat="37.57858382" lon="-1.20659907">
<ele>85</ele>
<time>2013-08-09T19:31:00Z</time>
</trkpt>
<trkpt lat="37.57862044" lon="-1.20650506">
<ele>87</ele>
<time>2013-08-09T19:31:06Z</time>
</trkpt>
<trkpt lat="37.57863637" lon="-1.20641381">
<ele>88</ele>
<time>2013-08-09T19:31:12Z</time>
</trkpt>
<trkpt lat="37.57866093" lon="-1.20632397">
<ele>88</ele>
<time>2013-08-09T19:31:18Z</time>
</trkpt>
<trkpt lat="37.57867459" lon="-1.20623445">
<ele>91</ele>
<time>2013-08-09T19:31:24Z</time>
</trkpt>
<trkpt lat="37.5787633" lon="-1.20617415">
<ele>92</ele>
<time>2013-08-09T19:31:30Z</time>
</trkpt>
<trkpt lat="37.578798" lon="-1.20609467">
<ele>92</ele>
<time>2013-08-09T19:31:36Z</time>
</trkpt>
<trkpt lat="37.57877641" lon="-1.20600357">
<ele>94</ele>
<time>2013-08-09T19:31:42Z</time>
</trkpt>
<trkpt lat="37.57876179" lon="-1.20591751">
<ele>93</ele>
<time>2013-08-09T19:31:48Z</time>
</trkpt>
<trkpt lat="37.57874973" lon="-1.2058167">
<ele>92</ele>
<time>2013-08-09T19:31:54Z</time>
</trkpt>
<trkpt lat="37.57874126" lon="-1.20572217">
<ele>92</ele>
<time>2013-08-09T19:32:00Z</time>
</trkpt>
<trkpt lat="37.57874351" lon="-1.20560064">
<ele>92</ele>
<time>2013-08-09T19:32:06Z</time>
</trkpt>
<trkpt lat="37.57875532" lon="-1.20548909">
<ele>93</ele>
<time>2013-08-09T19:32:12Z</time>
</trkpt>
<trkpt lat="37.57875844" lon="-1.20536133">
<ele>95</ele>
<time>2013-08-09T19:32:18Z</time>
</trkpt>
<trkpt lat="37.57876639" lon="-1.20526382">
<ele>96</ele>
<time>2013-08-09T19:32:24Z</time>
</trkpt>
<trkpt lat="37.57879453" lon="-1.20516238">
<ele>93</ele>
<time>2013-08-09T19:32:30Z</time>
</trkpt>
<trkpt lat="37.5787962" lon="-1.20510708">
<ele>94</ele>
<time>2013-08-09T19:32:36Z</time>
</trkpt>
<trkpt lat="37.57882658" lon="-1.20500468">
<ele>93</ele>
<time>2013-08-09T19:32:42Z</time>
</trkpt>
<trkpt lat="37.5788461" lon="-1.20491268">
<ele>93</ele>
<time>2013-08-09T19:32:48Z</time>
</trkpt>
<trkpt lat="37.57887994" lon="-1.20483399">
<ele>96</ele>
<time>2013-08-09T19:32:54Z</time>
</trkpt>
<trkpt lat="37.57893043" lon="-1.20473786">
<ele>94</ele>
<time>2013-08-09T19:33:00Z</time>
</trkpt>
<trkpt lat="37.57900817" lon="-1.20465551">
<ele>94</ele>
<time>2013-08-09T19:33:06Z</time>
</trkpt>
<trkpt lat="37.57904662" lon="-1.20456334">
<ele>95</ele>
<time>2013-08-09T19:33:12Z</time>
</trkpt>
<trkpt lat="37.57906709" lon="-1.2044623">
<ele>96</ele>
<time>2013-08-09T19:33:18Z</time>
</trkpt>
<trkpt lat="37.57909314" lon="-1.2043564">
<ele>96</ele>
<time>2013-08-09T19:33:24Z</time>
</trkpt>
<trkpt lat="37.57912417" lon="-1.20432455">
<ele>96</ele>
<time>2013-08-09T19:33:30Z</time>
</trkpt>
<trkpt lat="37.57916177" lon="-1.20429162">
<ele>94</ele>
<time>2013-08-09T19:33:36Z</time>
</trkpt>
<trkpt lat="37.57923976" lon="-1.20425073">
<ele>98</ele>
<time>2013-08-09T19:33:42Z</time>
</trkpt>
<trkpt lat="37.57931811" lon="-1.20431629">
<ele>99</ele>
<time>2013-08-09T19:33:48Z</time>
</trkpt>
<trkpt lat="37.57937757" lon="-1.20434161">
<ele>98</ele>
<time>2013-08-09T19:33:54Z</time>
</trkpt>
<trkpt lat="37.57941333" lon="-1.20429658">
<ele>99</ele>
<time>2013-08-09T19:34:00Z</time>
</trkpt>
<trkpt lat="37.57946263" lon="-1.20427544">
<ele>99</ele>
<time>2013-08-09T19:34:06Z</time>
</trkpt>
<trkpt lat="37.57950241" lon="-1.20429266">
<ele>98</ele>
<time>2013-08-09T19:34:12Z</time>
</trkpt>
<trkpt lat="37.57950898" lon="-1.20433166">
<ele>98</ele>
<time>2013-08-09T19:34:18Z</time>
</trkpt>
<trkpt lat="37.57953086" lon="-1.20434894">
<ele>100</ele>
<time>2013-08-09T19:34:24Z</time>
</trkpt>
<trkpt lat="37.57953483" lon="-1.20434611">
<ele>100</ele>
<time>2013-08-09T19:34:30Z</time>
</trkpt>
<trkpt lat="37.57953426" lon="-1.20434425">
<ele>100</ele>
<time>2013-08-09T19:34:36Z</time>
</trkpt>
<trkpt lat="37.57956279" lon="-1.20435055">
<ele>99</ele>
<time>2013-08-09T19:34:42Z</time>
</trkpt>
<trkpt lat="37.57967568" lon="-1.2043417">
<ele>100</ele>
<time>2013-08-09T19:34:48Z</time>
</trkpt>
<trkpt lat="37.57975354" lon="-1.2043641">
<ele>100</ele>
<time>2013-08-09T19:34:54Z</time>
</trkpt>
<trkpt lat="37.57981526" lon="-1.20436243">
<ele>102</ele>
<time>2013-08-09T19:35:00Z</time>
</trkpt>
<trkpt lat="37.57987806" lon="-1.20431171">
<ele>106</ele>
<time>2013-08-09T19:35:06Z</time>
</trkpt>
<trkpt lat="37.57990459" lon="-1.20427537">
<ele>106</ele>
<time>2013-08-09T19:35:12Z</time>
</trkpt>
<trkpt lat="37.57992682" lon="-1.20427923">
<ele>106</ele>
<time>2013-08-09T19:35:18Z</time>
</trkpt>
<trkpt lat="37.57996003" lon="-1.20425865">
<ele>107</ele>
<time>2013-08-09T19:35:24Z</time>
</trkpt>
<trkpt lat="37.58002426" lon="-1.20424327">
<ele>111</ele>
<time>2013-08-09T19:35:30Z</time>
</trkpt>
<trkpt lat="37.58008921" lon="-1.20422395">
<ele>112</ele>
<time>2013-08-09T19:35:36Z</time>
</trkpt>
<trkpt lat="37.5801169" lon="-1.20419972">
<ele>113</ele>
<time>2013-08-09T19:35:42Z</time>
</trkpt>
<trkpt lat="37.58015306" lon="-1.20419793">
<ele>120</ele>
<time>2013-08-09T19:35:48Z</time>
</trkpt>
<trkpt lat="37.58020337" lon="-1.20419675">
<ele>121</ele>
<time>2013-08-09T19:35:54Z</time>
</trkpt>
<trkpt lat="37.58023864" lon="-1.20421503">
<ele>120</ele>
<time>2013-08-09T19:36:00Z</time>
</trkpt>
<trkpt lat="37.58024579" lon="-1.20423358">
<ele>121</ele>
<time>2013-08-09T19:36:06Z</time>
</trkpt>
<trkpt lat="37.58024368" lon="-1.2042355">
<ele>121</ele>
<time>2013-08-09T19:36:12Z</time>
</trkpt>
<trkpt lat="37.58024339" lon="-1.20423403">
<ele>121</ele>
<time>2013-08-09T19:36:18Z</time>
</trkpt>
<trkpt lat="37.58024435" lon="-1.20423194">
<ele>121</ele>
<time>2013-08-09T19:36:24Z</time>
</trkpt>
<trkpt lat="37.58024565" lon="-1.20423271">
<ele>121</ele>
<time>2013-08-09T19:36:30Z</time>
</trkpt>
<trkpt lat="37.580245" lon="-1.2042328">
<ele>121</ele>
<time>2013-08-09T19:36:36Z</time>
</trkpt>
<trkpt lat="37.58024522" lon="-1.20423286">
<ele>121</ele>
<time>2013-08-09T19:36:42Z</time>
</trkpt>
<trkpt lat="37.58031882" lon="-1.20418924">
<ele>125</ele>
<time>2013-08-09T19:36:48Z</time>
</trkpt>
<trkpt lat="37.58039327" lon="-1.20417313">
<ele>127</ele>
<time>2013-08-09T19:36:54Z</time>
</trkpt>
<trkpt lat="37.58045071" lon="-1.20417073">
<ele>128</ele>
<time>2013-08-09T19:37:00Z</time>
</trkpt>
<trkpt lat="37.58049341" lon="-1.20414662">
<ele>129</ele>
<time>2013-08-09T19:37:06Z</time>
</trkpt>
<trkpt lat="37.58051423" lon="-1.2041515">
<ele>132</ele>
<time>2013-08-09T19:37:12Z</time>
</trkpt>
<trkpt lat="37.58058362" lon="-1.20414624">
<ele>136</ele>
<time>2013-08-09T19:37:18Z</time>
</trkpt>
<trkpt lat="37.58059856" lon="-1.20412319">
<ele>138</ele>
<time>2013-08-09T19:37:24Z</time>
</trkpt>
<trkpt lat="37.5805954" lon="-1.2040929">
<ele>140</ele>
<time>2013-08-09T19:37:30Z</time>
</trkpt>
<trkpt lat="37.58062032" lon="-1.20414831">
<ele>139</ele>
<time>2013-08-09T19:37:36Z</time>
</trkpt>
<trkpt lat="37.58062709" lon="-1.20415394">
<ele>140</ele>
<time>2013-08-09T19:37:42Z</time>
</trkpt>
<trkpt lat="37.58062982" lon="-1.20415461">
<ele>140</ele>
<time>2013-08-09T19:37:48Z</time>
</trkpt>
<trkpt lat="37.58063073" lon="-1.204153">
<ele>140</ele>
<time>2013-08-09T19:37:54Z</time>
</trkpt>
<trkpt lat="37.58063805" lon="-1.20414549">
<ele>140</ele>
<time>2013-08-09T19:38:00Z</time>
</trkpt>
<trkpt lat="37.58066079" lon="-1.20414079">
<ele>143</ele>
<time>2013-08-09T19:38:06Z</time>
</trkpt>
<trkpt lat="37.58069573" lon="-1.20414511">
<ele>144</ele>
<time>2013-08-09T19:38:12Z</time>
</trkpt>
<trkpt lat="37.5807759" lon="-1.20413636">
<ele>147</ele>
<time>2013-08-09T19:38:18Z</time>
</trkpt>
<trkpt lat="37.58085694" lon="-1.20404622">
<ele>145</ele>
<time>2013-08-09T19:38:24Z</time>
</trkpt>
<trkpt lat="37.58085833" lon="-1.20401943">
<ele>147</ele>
<time>2013-08-09T19:38:30Z</time>
</trkpt>
<trkpt lat="37.58084841" lon="-1.20403978">
<ele>149</ele>
<time>2013-08-09T19:38:36Z</time>
</trkpt>
<trkpt lat="37.58083683" lon="-1.20403824">
<ele>150</ele>
<time>2013-08-09T19:38:42Z</time>
</trkpt>
<trkpt lat="37.58082856" lon="-1.20404582">
<ele>148</ele>
<time>2013-08-09T19:38:48Z</time>
</trkpt>
<trkpt lat="37.58082746" lon="-1.20404892">
<ele>148</ele>
<time>2013-08-09T19:38:54Z</time>
</trkpt>
<trkpt lat="37.58082723" lon="-1.20404905">
<ele>148</ele>
<time>2013-08-09T19:39:00Z</time>
</trkpt>
<trkpt lat="37.58082675" lon="-1.20404942">
<ele>148</ele>
<time>2013-08-09T19:39:06Z</time>
</trkpt>
<trkpt lat="37.58082633" lon="-1.20404963">
<ele>148</ele>
<time>2013-08-09T19:39:12Z</time>
</trkpt>
<trkpt lat="37.58082891" lon="-1.20405657">
<ele>148</ele>
<time>2013-08-09T19:39:18Z</time>
</trkpt>
<trkpt lat="37.5808208" lon="-1.20405099">
<ele>151</ele>
<time>2013-08-09T19:39:24Z</time>
</trkpt>
<trkpt lat="37.58081605" lon="-1.20404849">
<ele>152</ele>
<time>2013-08-09T19:39:30Z</time>
</trkpt>
<trkpt lat="37.58079568" lon="-1.20405492">
<ele>153</ele>
<time>2013-08-09T19:39:36Z</time>
</trkpt>
<trkpt lat="37.58079502" lon="-1.20406496">
<ele>153</ele>
<time>2013-08-09T19:39:55Z</time>
</trkpt>
<trkpt lat="37.58079524" lon="-1.20406522">
<ele>153</ele>
<time>2013-08-09T19:39:57Z</time>
</trkpt>
<trkpt lat="37.58079533" lon="-1.20406545">
<ele>153</ele>
<time>2013-08-09T19:40:01Z</time>
</trkpt>
<trkpt lat="37.58079532" lon="-1.20406554">
<ele>153</ele>
<time>2013-08-09T19:40:03Z</time>
</trkpt>
<trkpt lat="37.58079526" lon="-1.20406562">
<ele>153</ele>
<time>2013-08-09T19:40:07Z</time>
</trkpt>
<trkpt lat="37.58079522" lon="-1.20406564">
<ele>153</ele>
<time>2013-08-09T19:40:09Z</time>
</trkpt>
<trkpt lat="37.58079526" lon="-1.20406582">
<ele>153</ele>
<time>2013-08-09T19:40:13Z</time>
</trkpt>
<trkpt lat="37.58079527" lon="-1.20406587">
<ele>153</ele>
<time>2013-08-09T19:40:15Z</time>
</trkpt>
<trkpt lat="37.58079528" lon="-1.20406599">
<ele>153</ele>
<time>2013-08-09T19:40:19Z</time>
</trkpt>
<trkpt lat="37.58079528" lon="-1.20406602">
<ele>153</ele>
<time>2013-08-09T19:40:21Z</time>
</trkpt>
<trkpt lat="37.58079521" lon="-1.20406603">
<ele>153</ele>
<time>2013-08-09T19:40:25Z</time>
</trkpt>
<trkpt lat="37.58079519" lon="-1.20406604">
<ele>153</ele>
<time>2013-08-09T19:40:27Z</time>
</trkpt>
<trkpt lat="37.58079518" lon="-1.20406605">
<ele>153</ele>
<time>2013-08-09T19:40:31Z</time>
</trkpt>
<trkpt lat="37.58079518" lon="-1.20406605">
<ele>153</ele>
<time>2013-08-09T19:40:33Z</time>
</trkpt>
<trkpt lat="37.58079522" lon="-1.20406609">
<ele>153</ele>
<time>2013-08-09T19:40:37Z</time>
</trkpt>
<trkpt lat="37.58079562" lon="-1.20406636">
<ele>153</ele>
<time>2013-08-09T19:40:39Z</time>
</trkpt>
<trkpt lat="37.58079602" lon="-1.20406663">
<ele>153</ele>
<time>2013-08-09T19:40:43Z</time>
</trkpt>
<trkpt lat="37.58079605" lon="-1.20406666">
<ele>153</ele>
<time>2013-08-09T19:40:45Z</time>
</trkpt>
<trkpt lat="37.58079606" lon="-1.20406672">
<ele>153</ele>
<time>2013-08-09T19:40:49Z</time>
</trkpt>
<trkpt lat="37.58079502" lon="-1.20407648">
<ele>154</ele>
<time>2013-08-09T19:40:51Z</time>
</trkpt>
<trkpt lat="37.58080281" lon="-1.20409872">
<ele>157</ele>
<time>2013-08-09T19:40:55Z</time>
</trkpt>
<trkpt lat="37.58080827" lon="-1.20410275">
<ele>157</ele>
<time>2013-08-09T19:40:57Z</time>
</trkpt>
<trkpt lat="37.58080631" lon="-1.20411671">
<ele>158</ele>
<time>2013-08-09T19:41:01Z</time>
</trkpt>
<trkpt lat="37.58080243" lon="-1.20412369">
<ele>158</ele>
<time>2013-08-09T19:41:03Z</time>
</trkpt>
<trkpt lat="37.58081779" lon="-1.20413138">
<ele>158</ele>
<time>2013-08-09T19:41:07Z</time>
</trkpt>
<trkpt lat="37.58082043" lon="-1.20412979">
<ele>158</ele>
<time>2013-08-09T19:41:09Z</time>
</trkpt>
<trkpt lat="37.5808178" lon="-1.20413262">
<ele>159</ele>
<time>2013-08-09T19:41:13Z</time>
</trkpt>
<trkpt lat="37.58081792" lon="-1.20413597">
<ele>159</ele>
<time>2013-08-09T19:41:15Z</time>
</trkpt>
<trkpt lat="37.58080703" lon="-1.20413764">
<ele>159</ele>
<time>2013-08-09T19:41:19Z</time>
</trkpt>
<trkpt lat="37.58080295" lon="-1.20413883">
<ele>160</ele>
<time>2013-08-09T19:41:21Z</time>
</trkpt>
<trkpt lat="37.58079762" lon="-1.20414299">
<ele>160</ele>
<time>2013-08-09T19:41:25Z</time>
</trkpt>
<trkpt lat="37.58079822" lon="-1.20414263">
<ele>160</ele>
<time>2013-08-09T19:41:27Z</time>
</trkpt>
<trkpt lat="37.58079821" lon="-1.20414304">
<ele>160</ele>
<time>2013-08-09T19:41:31Z</time>
</trkpt>
<trkpt lat="37.58079817" lon="-1.20414336">
<ele>160</ele>
<time>2013-08-09T19:41:33Z</time>
</trkpt>
<trkpt lat="37.58079801" lon="-1.20414368">
<ele>160</ele>
<time>2013-08-09T19:41:37Z</time>
</trkpt>
<trkpt lat="37.58079843" lon="-1.20413778">
<ele>159</ele>
<time>2013-08-09T19:41:39Z</time>
</trkpt>
<trkpt lat="37.58080043" lon="-1.20413083">
<ele>158</ele>
<time>2013-08-09T19:41:43Z</time>
</trkpt>
<trkpt lat="37.58080085" lon="-1.20413003">
<ele>158</ele>
<time>2013-08-09T19:41:45Z</time>
</trkpt>
<trkpt lat="37.58080095" lon="-1.20412388">
<ele>157</ele>
<time>2013-08-09T19:41:49Z</time>
</trkpt>
<trkpt lat="37.5808013" lon="-1.20412259">
<ele>157</ele>
<time>2013-08-09T19:41:51Z</time>
</trkpt>
<trkpt lat="37.58081456" lon="-1.20406439">
<ele>152</ele>
<time>2013-08-09T19:41:55Z</time>
</trkpt>
<trkpt lat="37.58082618" lon="-1.20402658">
<ele>150</ele>
<time>2013-08-09T19:41:57Z</time>
</trkpt>
<trkpt lat="37.58085763" lon="-1.20395245">
<ele>148</ele>
<time>2013-08-09T19:42:01Z</time>
</trkpt>
<trkpt lat="37.58087726" lon="-1.20392751">
<ele>148</ele>
<time>2013-08-09T19:42:03Z</time>
</trkpt>
<trkpt lat="37.58090434" lon="-1.20388941">
<ele>150</ele>
<time>2013-08-09T19:42:07Z</time>
</trkpt>
<trkpt lat="37.580912" lon="-1.2038611">
<ele>150</ele>
<time>2013-08-09T19:42:09Z</time>
</trkpt>
<trkpt lat="37.58092382" lon="-1.20383299">
<ele>150</ele>
<time>2013-08-09T19:42:13Z</time>
</trkpt>
<trkpt lat="37.58093835" lon="-1.2038224">
<ele>150</ele>
<time>2013-08-09T19:42:15Z</time>
</trkpt>
<trkpt lat="37.58096759" lon="-1.20378668">
<ele>150</ele>
<time>2013-08-09T19:42:19Z</time>
</trkpt>
<trkpt lat="37.58098196" lon="-1.20376888">
<ele>149</ele>
<time>2013-08-09T19:42:21Z</time>
</trkpt>
<trkpt lat="37.58099578" lon="-1.20373031">
<ele>151</ele>
<time>2013-08-09T19:42:25Z</time>
</trkpt>
<trkpt lat="37.58100787" lon="-1.20370965">
<ele>151</ele>
<time>2013-08-09T19:42:27Z</time>
</trkpt>
<trkpt lat="37.58102604" lon="-1.20369624">
<ele>153</ele>
<time>2013-08-09T19:42:31Z</time>
</trkpt>
<trkpt lat="37.58102855" lon="-1.20369936">
<ele>154</ele>
<time>2013-08-09T19:42:33Z</time>
</trkpt>
<trkpt lat="37.58103361" lon="-1.20369483">
<ele>155</ele>
<time>2013-08-09T19:42:37Z</time>
</trkpt>
<trkpt lat="37.58103693" lon="-1.2036896">
<ele>155</ele>
<time>2013-08-09T19:42:39Z</time>
</trkpt>
<trkpt lat="37.58104565" lon="-1.20368346">
<ele>155</ele>
<time>2013-08-09T19:42:43Z</time>
</trkpt>
<trkpt lat="37.58105219" lon="-1.20368095">
<ele>155</ele>
<time>2013-08-09T19:42:45Z</time>
</trkpt>
<trkpt lat="37.58106575" lon="-1.20367148">
<ele>156</ele>
<time>2013-08-09T19:42:49Z</time>
</trkpt>
<trkpt lat="37.58107056" lon="-1.20365685">
<ele>156</ele>
<time>2013-08-09T19:42:51Z</time>
</trkpt>
<trkpt lat="37.58109385" lon="-1.20362631">
<ele>158</ele>
<time>2013-08-09T19:42:55Z</time>
</trkpt>
<trkpt lat="37.58110111" lon="-1.20361699">
<ele>162</ele>
<time>2013-08-09T19:42:57Z</time>
</trkpt>
<trkpt lat="37.58111028" lon="-1.2036005">
<ele>163</ele>
<time>2013-08-09T19:43:01Z</time>
</trkpt>
<trkpt lat="37.58111878" lon="-1.20358278">
<ele>163</ele>
<time>2013-08-09T19:43:03Z</time>
</trkpt>
<trkpt lat="37.58108896" lon="-1.20355791">
<ele>161</ele>
<time>2013-08-09T19:43:07Z</time>
</trkpt>
<trkpt lat="37.58108668" lon="-1.20353869">
<ele>162</ele>
<time>2013-08-09T19:43:09Z</time>
</trkpt>
<trkpt lat="37.58107884" lon="-1.20350815">
<ele>161</ele>
<time>2013-08-09T19:43:13Z</time>
</trkpt>
<trkpt lat="37.58107013" lon="-1.20349502">
<ele>163</ele>
<time>2013-08-09T19:43:15Z</time>
</trkpt>
<trkpt lat="37.58104184" lon="-1.20345061">
<ele>164</ele>
<time>2013-08-09T19:43:19Z</time>
</trkpt>
<trkpt lat="37.58103463" lon="-1.20343771">
<ele>164</ele>
<time>2013-08-09T19:43:21Z</time>
</trkpt>
<trkpt lat="37.58101233" lon="-1.20340329">
<ele>165</ele>
<time>2013-08-09T19:43:25Z</time>
</trkpt>
<trkpt lat="37.58100422" lon="-1.20338033">
<ele>166</ele>
<time>2013-08-09T19:43:27Z</time>
</trkpt>
<trkpt lat="37.58100875" lon="-1.20334902">
<ele>167</ele>
<time>2013-08-09T19:43:31Z</time>
</trkpt>
<trkpt lat="37.58101107" lon="-1.2033366">
<ele>167</ele>
<time>2013-08-09T19:43:33Z</time>
</trkpt>
<trkpt lat="37.58102944" lon="-1.20331844">
<ele>166</ele>
<time>2013-08-09T19:43:37Z</time>
</trkpt>
<trkpt lat="37.58103394" lon="-1.20330277">
<ele>167</ele>
<time>2013-08-09T19:43:39Z</time>
</trkpt>
<trkpt lat="37.58104857" lon="-1.20325735">
<ele>167</ele>
<time>2013-08-09T19:43:43Z</time>
</trkpt>
<trkpt lat="37.58105137" lon="-1.20324128">
<ele>167</ele>
<time>2013-08-09T19:43:45Z</time>
</trkpt>
<trkpt lat="37.58106777" lon="-1.20321989">
<ele>166</ele>
<time>2013-08-09T19:43:49Z</time>
</trkpt>
<trkpt lat="37.58107223" lon="-1.20320868">
<ele>166</ele>
<time>2013-08-09T19:43:51Z</time>
</trkpt>
<trkpt lat="37.58111103" lon="-1.20322311">
<ele>165</ele>
<time>2013-08-09T19:43:55Z</time>
</trkpt>
<trkpt lat="37.58113353" lon="-1.20322981">
<ele>165</ele>
<time>2013-08-09T19:43:57Z</time>
</trkpt>
<trkpt lat="37.58116319" lon="-1.20321288">
<ele>164</ele>
<time>2013-08-09T19:44:01Z</time>
</trkpt>
<trkpt lat="37.58116172" lon="-1.20318316">
<ele>163</ele>
<time>2013-08-09T19:44:03Z</time>
</trkpt>
<trkpt lat="37.58114874" lon="-1.2031249">
<ele>162</ele>
<time>2013-08-09T19:44:07Z</time>
</trkpt>
<trkpt lat="37.58114461" lon="-1.20309777">
<ele>162</ele>
<time>2013-08-09T19:44:09Z</time>
</trkpt>
<trkpt lat="37.58112419" lon="-1.20304303">
<ele>163</ele>
<time>2013-08-09T19:44:13Z</time>
</trkpt>
<trkpt lat="37.58111296" lon="-1.20303049">
<ele>165</ele>
<time>2013-08-09T19:44:15Z</time>
</trkpt>
<trkpt lat="37.58110802" lon="-1.20300218">
<ele>165</ele>
<time>2013-08-09T19:44:19Z</time>
</trkpt>
<trkpt lat="37.58111588" lon="-1.20298586">
<ele>166</ele>
<time>2013-08-09T19:44:21Z</time>
</trkpt>
<trkpt lat="37.58114147" lon="-1.20294254">
<ele>167</ele>
<time>2013-08-09T19:44:25Z</time>
</trkpt>
<trkpt lat="37.58114516" lon="-1.20293706">
<ele>168</ele>
<time>2013-08-09T19:44:27Z</time>
</trkpt>
<trkpt lat="37.58113771" lon="-1.20292713">
<ele>168</ele>
<time>2013-08-09T19:44:31Z</time>
</trkpt>
<trkpt lat="37.58112823" lon="-1.20291724">
<ele>169</ele>
<time>2013-08-09T19:44:33Z</time>
</trkpt>
<trkpt lat="37.58112706" lon="-1.20289914">
<ele>169</ele>
<time>2013-08-09T19:44:37Z</time>
</trkpt>
<trkpt lat="37.58113637" lon="-1.20289083">
<ele>169</ele>
<time>2013-08-09T19:44:39Z</time>
</trkpt>
<trkpt lat="37.58113478" lon="-1.20287481">
<ele>170</ele>
<time>2013-08-09T19:44:43Z</time>
</trkpt>
<trkpt lat="37.58111846" lon="-1.20286412">
<ele>172</ele>
<time>2013-08-09T19:44:45Z</time>
</trkpt>
<trkpt lat="37.58108396" lon="-1.20283839">
<ele>175</ele>
<time>2013-08-09T19:44:49Z</time>
</trkpt>
<trkpt lat="37.58107153" lon="-1.20282075">
<ele>175</ele>
<time>2013-08-09T19:44:51Z</time>
</trkpt>
<trkpt lat="37.58106223" lon="-1.20278203">
<ele>175</ele>
<time>2013-08-09T19:44:55Z</time>
</trkpt>
<trkpt lat="37.58106709" lon="-1.20277027">
<ele>175</ele>
<time>2013-08-09T19:44:57Z</time>
</trkpt>
<trkpt lat="37.58108955" lon="-1.20277168">
<ele>176</ele>
<time>2013-08-09T19:45:01Z</time>
</trkpt>
<trkpt lat="37.58109391" lon="-1.20277232">
<ele>176</ele>
<time>2013-08-09T19:45:03Z</time>
</trkpt>
<trkpt lat="37.58108375" lon="-1.20276693">
<ele>177</ele>
<time>2013-08-09T19:45:07Z</time>
</trkpt>
<trkpt lat="37.58107897" lon="-1.20276452">
<ele>177</ele>
<time>2013-08-09T19:45:09Z</time>
</trkpt>
<trkpt lat="37.58107492" lon="-1.20276262">
<ele>177</ele>
<time>2013-08-09T19:45:13Z</time>
</trkpt>
<trkpt lat="37.58107434" lon="-1.20276243">
<ele>177</ele>
<time>2013-08-09T19:45:15Z</time>
</trkpt>
<trkpt lat="37.58107396" lon="-1.20276189">
<ele>177</ele>
<time>2013-08-09T19:45:19Z</time>
</trkpt>
<trkpt lat="37.58107308" lon="-1.20276203">
<ele>177</ele>
<time>2013-08-09T19:45:21Z</time>
</trkpt>
<trkpt lat="37.5810603" lon="-1.20272543">
<ele>180</ele>
<time>2013-08-09T19:45:25Z</time>
</trkpt>
<trkpt lat="37.58104592" lon="-1.2027078">
<ele>181</ele>
<time>2013-08-09T19:45:27Z</time>
</trkpt>
<trkpt lat="37.58101042" lon="-1.20266197">
<ele>183</ele>
<time>2013-08-09T19:45:31Z</time>
</trkpt>
<trkpt lat="37.58099524" lon="-1.20263425">
<ele>183</ele>
<time>2013-08-09T19:45:33Z</time>
</trkpt>
<trkpt lat="37.58096994" lon="-1.20257172">
<ele>184</ele>
<time>2013-08-09T19:45:37Z</time>
</trkpt>
<trkpt lat="37.58095828" lon="-1.20253894">
<ele>183</ele>
<time>2013-08-09T19:45:39Z</time>
</trkpt>
<trkpt lat="37.5809337" lon="-1.20246983">
<ele>187</ele>
<time>2013-08-09T19:45:43Z</time>
</trkpt>
<trkpt lat="37.58092056" lon="-1.20244996">
<ele>186</ele>
<time>2013-08-09T19:45:45Z</time>
</trkpt>
<trkpt lat="37.58091543" lon="-1.2024147">
<ele>187</ele>
<time>2013-08-09T19:45:49Z</time>
</trkpt>
<trkpt lat="37.58091941" lon="-1.20239773">
<ele>188</ele>
<time>2013-08-09T19:45:51Z</time>
</trkpt>
<trkpt lat="37.58092512" lon="-1.20238045">
<ele>188</ele>
<time>2013-08-09T19:45:55Z</time>
</trkpt>
<trkpt lat="37.58093151" lon="-1.20237011">
<ele>188</ele>
<time>2013-08-09T19:45:57Z</time>
</trkpt>
<trkpt lat="37.58092945" lon="-1.20237232">
<ele>187</ele>
<time>2013-08-09T19:46:01Z</time>
</trkpt>
<trkpt lat="37.58092979" lon="-1.20237302">
<ele>186</ele>
<time>2013-08-09T19:46:03Z</time>
</trkpt>
<trkpt lat="37.58095038" lon="-1.20236334">
<ele>184</ele>
<time>2013-08-09T19:46:07Z</time>
</trkpt>
<trkpt lat="37.58095958" lon="-1.202357">
<ele>184</ele>
<time>2013-08-09T19:46:09Z</time>
</trkpt>
<trkpt lat="37.58095686" lon="-1.20233662">
<ele>185</ele>
<time>2013-08-09T19:46:13Z</time>
</trkpt>
<trkpt lat="37.58095821" lon="-1.20231857">
<ele>185</ele>
<time>2013-08-09T19:46:15Z</time>
</trkpt>
<trkpt lat="37.58098742" lon="-1.20228007">
<ele>185</ele>
<time>2013-08-09T19:46:19Z</time>
</trkpt>
<trkpt lat="37.58099983" lon="-1.20226113">
<ele>185</ele>
<time>2013-08-09T19:46:21Z</time>
</trkpt>
<trkpt lat="37.58101699" lon="-1.20224249">
<ele>186</ele>
<time>2013-08-09T19:46:25Z</time>
</trkpt>
<trkpt lat="37.58101864" lon="-1.20223075">
<ele>186</ele>
<time>2013-08-09T19:46:27Z</time>
</trkpt>
<trkpt lat="37.58102498" lon="-1.2021963">
<ele>185</ele>
<time>2013-08-09T19:46:31Z</time>
</trkpt>
<trkpt lat="37.58104089" lon="-1.20218642">
<ele>186</ele>
<time>2013-08-09T19:46:33Z</time>
</trkpt>
<trkpt lat="37.58107657" lon="-1.20215136">
<ele>188</ele>
<time>2013-08-09T19:46:37Z</time>
</trkpt>
<trkpt lat="37.58108642" lon="-1.20214395">
<ele>189</ele>
<time>2013-08-09T19:46:39Z</time>
</trkpt>
<trkpt lat="37.5810917" lon="-1.20211844">
<ele>189</ele>
<time>2013-08-09T19:46:43Z</time>
</trkpt>
<trkpt lat="37.58108928" lon="-1.20210552">
<ele>190</ele>
<time>2013-08-09T19:46:45Z</time>
</trkpt>
<trkpt lat="37.58107015" lon="-1.20213116">
<ele>191</ele>
<time>2013-08-09T19:46:49Z</time>
</trkpt>
<trkpt lat="37.58106468" lon="-1.20214266">
<ele>192</ele>
<time>2013-08-09T19:46:51Z</time>
</trkpt>
<trkpt lat="37.58105687" lon="-1.20214344">
<ele>192</ele>
<time>2013-08-09T19:46:55Z</time>
</trkpt>
<trkpt lat="37.58105641" lon="-1.20214624">
<ele>193</ele>
<time>2013-08-09T19:46:57Z</time>
</trkpt>
<trkpt lat="37.58105723" lon="-1.2021476">
<ele>193</ele>
<time>2013-08-09T19:47:01Z</time>
</trkpt>
<trkpt lat="37.58105724" lon="-1.20214769">
<ele>193</ele>
<time>2013-08-09T19:47:03Z</time>
</trkpt>
<trkpt lat="37.58106218" lon="-1.20214659">
<ele>192</ele>
<time>2013-08-09T19:47:07Z</time>
</trkpt>
<trkpt lat="37.58108145" lon="-1.20216025">
<ele>191</ele>
<time>2013-08-09T19:47:09Z</time>
</trkpt>
<trkpt lat="37.58109035" lon="-1.20217858">
<ele>190</ele>
<time>2013-08-09T19:47:13Z</time>
</trkpt>
<trkpt lat="37.58108426" lon="-1.20218537">
<ele>190</ele>
<time>2013-08-09T19:47:15Z</time>
</trkpt>
<trkpt lat="37.58108151" lon="-1.20218813">
<ele>190</ele>
<time>2013-08-09T19:47:19Z</time>
</trkpt>
<trkpt lat="37.58108298" lon="-1.20218525">
<ele>190</ele>
<time>2013-08-09T19:47:21Z</time>
</trkpt>
<trkpt lat="37.58108268" lon="-1.20218458">
<ele>190</ele>
<time>2013-08-09T19:47:25Z</time>
</trkpt>
<trkpt lat="37.58108248" lon="-1.20218322">
<ele>190</ele>
<time>2013-08-09T19:47:27Z</time>
</trkpt>
<trkpt lat="37.5810817" lon="-1.20218117">
<ele>190</ele>
<time>2013-08-09T19:47:31Z</time>
</trkpt>
<trkpt lat="37.58108178" lon="-1.20218112">
<ele>190</ele>
<time>2013-08-09T19:47:33Z</time>
</trkpt>
<trkpt lat="37.58108208" lon="-1.20218169">
<ele>190</ele>
<time>2013-08-09T19:47:37Z</time>
</trkpt>
<trkpt lat="37.58108228" lon="-1.20218172">
<ele>190</ele>
<time>2013-08-09T19:47:39Z</time>
</trkpt>
<trkpt lat="37.58109217" lon="-1.20215544">
<ele>190</ele>
<time>2013-08-09T19:47:43Z</time>
</trkpt>
<trkpt lat="37.58109547" lon="-1.2021511">
<ele>192</ele>
<time>2013-08-09T19:47:45Z</time>
</trkpt>
<trkpt lat="37.58110291" lon="-1.20213321">
<ele>195</ele>
<time>2013-08-09T19:47:49Z</time>
</trkpt>
<trkpt lat="37.58109614" lon="-1.20212449">
<ele>196</ele>
<time>2013-08-09T19:47:51Z</time>
</trkpt>
<trkpt lat="37.58109714" lon="-1.2021145">
<ele>197</ele>
<time>2013-08-09T19:47:55Z</time>
</trkpt>
<trkpt lat="37.58110295" lon="-1.20212053">
<ele>196</ele>
<time>2013-08-09T19:47:57Z</time>
</trkpt>
<trkpt lat="37.5810996" lon="-1.20213928">
<ele>197</ele>
<time>2013-08-09T19:48:01Z</time>
</trkpt>
<trkpt lat="37.5810976" lon="-1.2021493">
<ele>198</ele>
<time>2013-08-09T19:48:03Z</time>
</trkpt>
<trkpt lat="37.58109528" lon="-1.20215321">
<ele>198</ele>
<time>2013-08-09T19:48:07Z</time>
</trkpt>
<trkpt lat="37.58109459" lon="-1.20215268">
<ele>198</ele>
<time>2013-08-09T19:48:09Z</time>
</trkpt>
<trkpt lat="37.58109567" lon="-1.20215205">
<ele>198</ele>
<time>2013-08-09T19:48:13Z</time>
</trkpt>
<trkpt lat="37.58109581" lon="-1.20215156">
<ele>198</ele>
<time>2013-08-09T19:48:15Z</time>
</trkpt>
<trkpt lat="37.58109613" lon="-1.20215036">
<ele>198</ele>
<time>2013-08-09T19:48:19Z</time>
</trkpt>
<trkpt lat="37.58109627" lon="-1.20214979">
<ele>198</ele>
<time>2013-08-09T19:48:21Z</time>
</trkpt>
<trkpt lat="37.58109623" lon="-1.20214945">
<ele>198</ele>
<time>2013-08-09T19:48:25Z</time>
</trkpt>
<trkpt lat="37.58109624" lon="-1.20214952">
<ele>198</ele>
<time>2013-08-09T19:48:27Z</time>
</trkpt>
<trkpt lat="37.58109622" lon="-1.20214928">
<ele>198</ele>
<time>2013-08-09T19:48:31Z</time>
</trkpt>
<trkpt lat="37.58109385" lon="-1.20213615">
<ele>198</ele>
<time>2013-08-09T19:48:33Z</time>
</trkpt>
<trkpt lat="37.58111216" lon="-1.20209825">
<ele>197</ele>
<time>2013-08-09T19:48:37Z</time>
</trkpt>
<trkpt lat="37.58113341" lon="-1.20208014">
<ele>197</ele>
<time>2013-08-09T19:48:39Z</time>
</trkpt>
<trkpt lat="37.5811714" lon="-1.2020277">
<ele>197</ele>
<time>2013-08-09T19:48:43Z</time>
</trkpt>
<trkpt lat="37.58119453" lon="-1.20200667">
<ele>196</ele>
<time>2013-08-09T19:48:45Z</time>
</trkpt>
<trkpt lat="37.58121665" lon="-1.2019683">
<ele>197</ele>
<time>2013-08-09T19:48:49Z</time>
</trkpt>
<trkpt lat="37.58121508" lon="-1.20194181">
<ele>199</ele>
<time>2013-08-09T19:48:51Z</time>
</trkpt>
<trkpt lat="37.58125999" lon="-1.20191003">
<ele>193</ele>
<time>2013-08-09T19:48:55Z</time>
</trkpt>
<trkpt lat="37.58127622" lon="-1.20190838">
<ele>193</ele>
<time>2013-08-09T19:48:57Z</time>
</trkpt>
<trkpt lat="37.58129898" lon="-1.20194512">
<ele>195</ele>
<time>2013-08-09T19:49:01Z</time>
</trkpt>
<trkpt lat="37.58129836" lon="-1.20194382">
<ele>195</ele>
<time>2013-08-09T19:49:03Z</time>
</trkpt>
<trkpt lat="37.5812954" lon="-1.20196376">
<ele>193</ele>
<time>2013-08-09T19:49:07Z</time>
</trkpt>
<trkpt lat="37.58129441" lon="-1.20196677">
<ele>194</ele>
<time>2013-08-09T19:49:09Z</time>
</trkpt>
<trkpt lat="37.58129198" lon="-1.20196016">
<ele>194</ele>
<time>2013-08-09T19:49:13Z</time>
</trkpt>
<trkpt lat="37.58129078" lon="-1.20195676">
<ele>194</ele>
<time>2013-08-09T19:49:15Z</time>
</trkpt>
<trkpt lat="37.58129043" lon="-1.20195501">
<ele>194</ele>
<time>2013-08-09T19:49:19Z</time>
</trkpt>
<trkpt lat="37.58129073" lon="-1.20195479">
<ele>194</ele>
<time>2013-08-09T19:49:21Z</time>
</trkpt>
<trkpt lat="37.58129092" lon="-1.20195372">
<ele>194</ele>
<time>2013-08-09T19:49:25Z</time>
</trkpt>
<trkpt lat="37.58129131" lon="-1.20195392">
<ele>194</ele>
<time>2013-08-09T19:49:27Z</time>
</trkpt>
<trkpt lat="37.58129194" lon="-1.2019551">
<ele>194</ele>
<time>2013-08-09T19:49:31Z</time>
</trkpt>
<trkpt lat="37.58129258" lon="-1.20195536">
<ele>194</ele>
<time>2013-08-09T19:49:33Z</time>
</trkpt>
<trkpt lat="37.58131679" lon="-1.20196871">
<ele>192</ele>
<time>2013-08-09T19:49:37Z</time>
</trkpt>
<trkpt lat="37.58132735" lon="-1.20199577">
<ele>192</ele>
<time>2013-08-09T19:49:39Z</time>
</trkpt>
<trkpt lat="37.58134477" lon="-1.20204443">
<ele>191</ele>
<time>2013-08-09T19:49:43Z</time>
</trkpt>
<trkpt lat="37.58136297" lon="-1.20205184">
<ele>191</ele>
<time>2013-08-09T19:49:45Z</time>
</trkpt>
<trkpt lat="37.58137306" lon="-1.20204837">
<ele>192</ele>
<time>2013-08-09T19:49:49Z</time>
</trkpt>
<trkpt lat="37.58137648" lon="-1.20204667">
<ele>192</ele>
<time>2013-08-09T19:49:51Z</time>
</trkpt>
<trkpt lat="37.58137909" lon="-1.2020441">
<ele>192</ele>
<time>2013-08-09T19:49:55Z</time>
</trkpt>
<trkpt lat="37.5813794" lon="-1.20204422">
<ele>191</ele>
<time>2013-08-09T19:49:57Z</time>
</trkpt>
<trkpt lat="37.58137727" lon="-1.20204485">
<ele>191</ele>
<time>2013-08-09T19:50:01Z</time>
</trkpt>
<trkpt lat="37.58137718" lon="-1.20204418">
<ele>191</ele>
<time>2013-08-09T19:50:03Z</time>
</trkpt>
<trkpt lat="37.58137781" lon="-1.20204377">
<ele>191</ele>
<time>2013-08-09T19:50:07Z</time>
</trkpt>
<trkpt lat="37.58137825" lon="-1.20204457">
<ele>191</ele>
<time>2013-08-09T19:50:09Z</time>
</trkpt>
<trkpt lat="37.58137893" lon="-1.20204518">
<ele>191</ele>
<time>2013-08-09T19:50:13Z</time>
</trkpt>
<trkpt lat="37.58137939" lon="-1.2020452">
<ele>191</ele>
<time>2013-08-09T19:50:15Z</time>
</trkpt>
<trkpt lat="37.58137923" lon="-1.20204464">
<ele>191</ele>
<time>2013-08-09T19:50:19Z</time>
</trkpt>
<trkpt lat="37.58137927" lon="-1.20204474">
<ele>191</ele>
<time>2013-08-09T19:50:21Z</time>
</trkpt>
<trkpt lat="37.58137907" lon="-1.2020452">
<ele>191</ele>
<time>2013-08-09T19:50:25Z</time>
</trkpt>
<trkpt lat="37.58137931" lon="-1.2020451">
<ele>192</ele>
<time>2013-08-09T19:50:27Z</time>
</trkpt>
<trkpt lat="37.58137984" lon="-1.20204561">
<ele>192</ele>
<time>2013-08-09T19:50:31Z</time>
</trkpt>
<trkpt lat="37.58137999" lon="-1.20204581">
<ele>192</ele>
<time>2013-08-09T19:50:33Z</time>
</trkpt>
<trkpt lat="37.58142176" lon="-1.20204919">
<ele>193</ele>
<time>2013-08-09T19:50:37Z</time>
</trkpt>
<trkpt lat="37.5814626" lon="-1.20204852">
<ele>193</ele>
<time>2013-08-09T19:50:39Z</time>
</trkpt>
<trkpt lat="37.58151628" lon="-1.20205963">
<ele>192</ele>
<time>2013-08-09T19:50:43Z</time>
</trkpt>
<trkpt lat="37.58152611" lon="-1.20207798">
<ele>191</ele>
<time>2013-08-09T19:50:45Z</time>
</trkpt>
<trkpt lat="37.58154673" lon="-1.20208598">
<ele>192</ele>
<time>2013-08-09T19:50:49Z</time>
</trkpt>
<trkpt lat="37.58154678" lon="-1.20208336">
<ele>192</ele>
<time>2013-08-09T19:50:51Z</time>
</trkpt>
<trkpt lat="37.58155454" lon="-1.2020797">
<ele>191</ele>
<time>2013-08-09T19:50:55Z</time>
</trkpt>
<trkpt lat="37.581558" lon="-1.2020813">
<ele>191</ele>
<time>2013-08-09T19:50:57Z</time>
</trkpt>
<trkpt lat="37.58155956" lon="-1.202083">
<ele>191</ele>
<time>2013-08-09T19:51:01Z</time>
</trkpt>
<trkpt lat="37.58155922" lon="-1.20208401">
<ele>191</ele>
<time>2013-08-09T19:51:03Z</time>
</trkpt>
<trkpt lat="37.58155926" lon="-1.20208272">
<ele>191</ele>
<time>2013-08-09T19:51:07Z</time>
</trkpt>
<trkpt lat="37.58155951" lon="-1.20208283">
<ele>191</ele>
<time>2013-08-09T19:51:09Z</time>
</trkpt>
<trkpt lat="37.58155899" lon="-1.20208344">
<ele>191</ele>
<time>2013-08-09T19:51:13Z</time>
</trkpt>
<trkpt lat="37.5815586" lon="-1.20208373">
<ele>191</ele>
<time>2013-08-09T19:51:15Z</time>
</trkpt>
<trkpt lat="37.58155832" lon="-1.20208344">
<ele>191</ele>
<time>2013-08-09T19:51:19Z</time>
</trkpt>
<trkpt lat="37.58155855" lon="-1.20208339">
<ele>191</ele>
<time>2013-08-09T19:51:21Z</time>
</trkpt>
<trkpt lat="37.58155888" lon="-1.20208308">
<ele>191</ele>
<time>2013-08-09T19:51:25Z</time>
</trkpt>
<trkpt lat="37.5815589" lon="-1.20208285">
<ele>191</ele>
<time>2013-08-09T19:51:27Z</time>
</trkpt>
<trkpt lat="37.58155898" lon="-1.20208272">
<ele>191</ele>
<time>2013-08-09T19:51:31Z</time>
</trkpt>
<trkpt lat="37.58155903" lon="-1.20208262">
<ele>191</ele>
<time>2013-08-09T19:51:33Z</time>
</trkpt>
<trkpt lat="37.58157053" lon="-1.20209159">
<ele>192</ele>
<time>2013-08-09T19:51:37Z</time>
</trkpt>
<trkpt lat="37.58157805" lon="-1.20209444">
<ele>192</ele>
<time>2013-08-09T19:51:39Z</time>
</trkpt>
<trkpt lat="37.58157097" lon="-1.2021158">
<ele>195</ele>
<time>2013-08-09T19:51:43Z</time>
</trkpt>
<trkpt lat="37.58156933" lon="-1.20212049">
<ele>197</ele>
<time>2013-08-09T19:51:45Z</time>
</trkpt>
<trkpt lat="37.58150512" lon="-1.20205287">
<ele>200</ele>
<time>2013-08-09T19:51:49Z</time>
</trkpt>
<trkpt lat="37.58146085" lon="-1.20199757">
<ele>200</ele>
<time>2013-08-09T19:51:51Z</time>
</trkpt>
<trkpt lat="37.58150816" lon="-1.20211709">
<ele>208</ele>
<time>2013-08-09T19:51:55Z</time>
</trkpt>
<trkpt lat="37.58151684" lon="-1.20212873">
<ele>208</ele>
<time>2013-08-09T19:51:57Z</time>
</trkpt>
<trkpt lat="37.5815228" lon="-1.20212848">
<ele>208</ele>
<time>2013-08-09T19:52:01Z</time>
</trkpt>
<trkpt lat="37.58151518" lon="-1.20212278">
<ele>208</ele>
<time>2013-08-09T19:52:03Z</time>
</trkpt>
<trkpt lat="37.58151262" lon="-1.20211822">
<ele>207</ele>
<time>2013-08-09T19:52:07Z</time>
</trkpt>
<trkpt lat="37.58151265" lon="-1.20212409">
<ele>208</ele>
<time>2013-08-09T19:52:09Z</time>
</trkpt>
<trkpt lat="37.58151425" lon="-1.2021301">
<ele>209</ele>
<time>2013-08-09T19:52:13Z</time>
</trkpt>
<trkpt lat="37.5815151" lon="-1.20213292">
<ele>209</ele>
<time>2013-08-09T19:52:15Z</time>
</trkpt>
<trkpt lat="37.58151742" lon="-1.2021368">
<ele>209</ele>
<time>2013-08-09T19:52:19Z</time>
</trkpt>
<trkpt lat="37.58151799" lon="-1.20213778">
<ele>209</ele>
<time>2013-08-09T19:52:21Z</time>
</trkpt>
<trkpt lat="37.58151818" lon="-1.20213819">
<ele>209</ele>
<time>2013-08-09T19:52:25Z</time>
</trkpt>
<trkpt lat="37.58151818" lon="-1.20213822">
<ele>209</ele>
<time>2013-08-09T19:52:27Z</time>
</trkpt>
<trkpt lat="37.58151809" lon="-1.20213816">
<ele>209</ele>
<time>2013-08-09T19:52:31Z</time>
</trkpt>
<trkpt lat="37.58151777" lon="-1.20213783">
<ele>209</ele>
<time>2013-08-09T19:52:33Z</time>
</trkpt>
<trkpt lat="37.5815167" lon="-1.2021365">
<ele>209</ele>
<time>2013-08-09T19:52:37Z</time>
</trkpt>
<trkpt lat="37.58151645" lon="-1.20213618">
<ele>209</ele>
<time>2013-08-09T19:52:39Z</time>
</trkpt>
<trkpt lat="37.58151712" lon="-1.20213742">
<ele>209</ele>
<time>2013-08-09T19:52:43Z</time>
</trkpt>
<trkpt lat="37.58151671" lon="-1.20213691">
<ele>209</ele>
<time>2013-08-09T19:52:45Z</time>
</trkpt>
<trkpt lat="37.58151642" lon="-1.2021366">
<ele>209</ele>
<time>2013-08-09T19:52:49Z</time>
</trkpt>
<trkpt lat="37.58151655" lon="-1.20213688">
<ele>209</ele>
<time>2013-08-09T19:52:51Z</time>
</trkpt>
<trkpt lat="37.5815169" lon="-1.20213768">
<ele>209</ele>
<time>2013-08-09T19:52:55Z</time>
</trkpt>
<trkpt lat="37.58151691" lon="-1.20213769">
<ele>209</ele>
<time>2013-08-09T19:52:57Z</time>
</trkpt>
<trkpt lat="37.58151691" lon="-1.20213771">
<ele>209</ele>
<time>2013-08-09T19:53:01Z</time>
</trkpt>
<trkpt lat="37.58151685" lon="-1.20213766">
<ele>209</ele>
<time>2013-08-09T19:53:03Z</time>
</trkpt>
<trkpt lat="37.58151692" lon="-1.20213776">
<ele>209</ele>
<time>2013-08-09T19:53:07Z</time>
</trkpt>
<trkpt lat="37.58151696" lon="-1.20213781">
<ele>209</ele>
<time>2013-08-09T19:53:09Z</time>
</trkpt>
<trkpt lat="37.58151701" lon="-1.20213786">
<ele>209</ele>
<time>2013-08-09T19:53:13Z</time>
</trkpt>
<trkpt lat="37.58151709" lon="-1.20213794">
<ele>209</ele>
<time>2013-08-09T19:53:15Z</time>
</trkpt>
<trkpt lat="37.58151726" lon="-1.20213807">
<ele>209</ele>
<time>2013-08-09T19:53:19Z</time>
</trkpt>
<trkpt lat="37.58151734" lon="-1.20213813">
<ele>209</ele>
<time>2013-08-09T19:53:21Z</time>
</trkpt>
<trkpt lat="37.58153713" lon="-1.20213508">
<ele>210</ele>
<time>2013-08-09T19:53:25Z</time>
</trkpt>
<trkpt lat="37.58155745" lon="-1.20215511">
<ele>211</ele>
<time>2013-08-09T19:53:27Z</time>
</trkpt>
<trkpt lat="37.58160578" lon="-1.20218917">
<ele>214</ele>
<time>2013-08-09T19:53:31Z</time>
</trkpt>
<trkpt lat="37.581629" lon="-1.2022029">
<ele>213</ele>
<time>2013-08-09T19:53:33Z</time>
</trkpt>
<trkpt lat="37.58166888" lon="-1.20219501">
<ele>215</ele>
<time>2013-08-09T19:53:37Z</time>
</trkpt>
<trkpt lat="37.58168391" lon="-1.20218554">
<ele>216</ele>
<time>2013-08-09T19:53:39Z</time>
</trkpt>
<trkpt lat="37.58170358" lon="-1.20217739">
<ele>213</ele>
<time>2013-08-09T19:53:43Z</time>
</trkpt>
<trkpt lat="37.58170467" lon="-1.20218452">
<ele>213</ele>
<time>2013-08-09T19:53:45Z</time>
</trkpt>
<trkpt lat="37.58171348" lon="-1.20220326">
<ele>213</ele>
<time>2013-08-09T19:53:49Z</time>
</trkpt>
<trkpt lat="37.58171147" lon="-1.20220331">
<ele>213</ele>
<time>2013-08-09T19:53:51Z</time>
</trkpt>
<trkpt lat="37.58171413" lon="-1.20220145">
<ele>214</ele>
<time>2013-08-09T19:53:55Z</time>
</trkpt>
<trkpt lat="37.58171509" lon="-1.20219958">
<ele>214</ele>
<time>2013-08-09T19:53:57Z</time>
</trkpt>
<trkpt lat="37.58171689" lon="-1.20219699">
<ele>214</ele>
<time>2013-08-09T19:54:01Z</time>
</trkpt>
<trkpt lat="37.5817174" lon="-1.20219681">
<ele>214</ele>
<time>2013-08-09T19:54:03Z</time>
</trkpt>
<trkpt lat="37.58171782" lon="-1.20219647">
<ele>214</ele>
<time>2013-08-09T19:54:07Z</time>
</trkpt>
<trkpt lat="37.58171847" lon="-1.20219614">
<ele>214</ele>
<time>2013-08-09T19:54:09Z</time>
</trkpt>
<trkpt lat="37.58171932" lon="-1.20219595">
<ele>214</ele>
<time>2013-08-09T19:54:13Z</time>
</trkpt>
<trkpt lat="37.58171957" lon="-1.20219577">
<ele>214</ele>
<time>2013-08-09T19:54:15Z</time>
</trkpt>
<trkpt lat="37.58177935" lon="-1.20218899">
<ele>211</ele>
<time>2013-08-09T19:54:19Z</time>
</trkpt>
<trkpt lat="37.58181398" lon="-1.20217741">
<ele>211</ele>
<time>2013-08-09T19:54:21Z</time>
</trkpt>
<trkpt lat="37.58185869" lon="-1.202172">
<ele>211</ele>
<time>2013-08-09T19:54:25Z</time>
</trkpt>
<trkpt lat="37.58186715" lon="-1.20216284">
<ele>211</ele>
<time>2013-08-09T19:54:27Z</time>
</trkpt>
<trkpt lat="37.58190495" lon="-1.20214294">
<ele>210</ele>
<time>2013-08-09T19:54:31Z</time>
</trkpt>
<trkpt lat="37.58192381" lon="-1.20213181">
<ele>212</ele>
<time>2013-08-09T19:54:33Z</time>
</trkpt>
<trkpt lat="37.58194184" lon="-1.2021129">
<ele>212</ele>
<time>2013-08-09T19:54:37Z</time>
</trkpt>
<trkpt lat="37.58194294" lon="-1.20209161">
<ele>214</ele>
<time>2013-08-09T19:54:39Z</time>
</trkpt>
<trkpt lat="37.58194867" lon="-1.2020637">
<ele>214</ele>
<time>2013-08-09T19:54:43Z</time>
</trkpt>
<trkpt lat="37.58195252" lon="-1.20206115">
<ele>214</ele>
<time>2013-08-09T19:54:45Z</time>
</trkpt>
<trkpt lat="37.58195725" lon="-1.20206946">
<ele>214</ele>
<time>2013-08-09T19:54:49Z</time>
</trkpt>
<trkpt lat="37.58195987" lon="-1.2020725">
<ele>214</ele>
<time>2013-08-09T19:54:51Z</time>
</trkpt>
<trkpt lat="37.58196208" lon="-1.20207062">
<ele>214</ele>
<time>2013-08-09T19:54:55Z</time>
</trkpt>
<trkpt lat="37.5819621" lon="-1.20206976">
<ele>214</ele>
<time>2013-08-09T19:54:57Z</time>
</trkpt>
<trkpt lat="37.58198566" lon="-1.2020668">
<ele>214</ele>
<time>2013-08-09T19:55:01Z</time>
</trkpt>
<trkpt lat="37.58201451" lon="-1.20206314">
<ele>214</ele>
<time>2013-08-09T19:55:03Z</time>
</trkpt>
<trkpt lat="37.58205874" lon="-1.20206061">
<ele>217</ele>
<time>2013-08-09T19:55:07Z</time>
</trkpt>
<trkpt lat="37.58207391" lon="-1.20206475">
<ele>217</ele>
<time>2013-08-09T19:55:09Z</time>
</trkpt>
<trkpt lat="37.5820928" lon="-1.20208205">
<ele>219</ele>
<time>2013-08-09T19:55:13Z</time>
</trkpt>
<trkpt lat="37.5821067" lon="-1.20207174">
<ele>219</ele>
<time>2013-08-09T19:55:15Z</time>
</trkpt>
<trkpt lat="37.58214336" lon="-1.20205231">
<ele>221</ele>
<time>2013-08-09T19:55:19Z</time>
</trkpt>
<trkpt lat="37.58215964" lon="-1.20203915">
<ele>219</ele>
<time>2013-08-09T19:55:21Z</time>
</trkpt>
<trkpt lat="37.58219826" lon="-1.20202784">
<ele>219</ele>
<time>2013-08-09T19:55:25Z</time>
</trkpt>
<trkpt lat="37.582214" lon="-1.20202163">
<ele>220</ele>
<time>2013-08-09T19:55:27Z</time>
</trkpt>
<trkpt lat="37.58223873" lon="-1.20202399">
<ele>220</ele>
<time>2013-08-09T19:55:31Z</time>
</trkpt>
<trkpt lat="37.58224937" lon="-1.2020237">
<ele>220</ele>
<time>2013-08-09T19:55:33Z</time>
</trkpt>
<trkpt lat="37.58227237" lon="-1.20198721">
<ele>220</ele>
<time>2013-08-09T19:55:37Z</time>
</trkpt>
<trkpt lat="37.58228197" lon="-1.20196556">
<ele>221</ele>
<time>2013-08-09T19:55:39Z</time>
</trkpt>
<trkpt lat="37.58228071" lon="-1.20192721">
<ele>221</ele>
<time>2013-08-09T19:55:43Z</time>
</trkpt>
<trkpt lat="37.58228862" lon="-1.20191391">
<ele>221</ele>
<time>2013-08-09T19:55:45Z</time>
</trkpt>
<trkpt lat="37.58230535" lon="-1.20190927">
<ele>222</ele>
<time>2013-08-09T19:55:49Z</time>
</trkpt>
<trkpt lat="37.58231829" lon="-1.20190609">
<ele>223</ele>
<time>2013-08-09T19:55:51Z</time>
</trkpt>
<trkpt lat="37.5823346" lon="-1.20190347">
<ele>224</ele>
<time>2013-08-09T19:55:55Z</time>
</trkpt>
<trkpt lat="37.5823369" lon="-1.20190952">
<ele>224</ele>
<time>2013-08-09T19:55:57Z</time>
</trkpt>
<trkpt lat="37.58233011" lon="-1.20190047">
<ele>226</ele>
<time>2013-08-09T19:56:01Z</time>
</trkpt>
<trkpt lat="37.58233308" lon="-1.20189052">
<ele>226</ele>
<time>2013-08-09T19:56:03Z</time>
</trkpt>
<trkpt lat="37.58234683" lon="-1.20184034">
<ele>225</ele>
<time>2013-08-09T19:56:07Z</time>
</trkpt>
<trkpt lat="37.58235066" lon="-1.20181533">
<ele>224</ele>
<time>2013-08-09T19:56:09Z</time>
</trkpt>
<trkpt lat="37.58235702" lon="-1.2017457">
<ele>223</ele>
<time>2013-08-09T19:56:13Z</time>
</trkpt>
<trkpt lat="37.58236808" lon="-1.20171983">
<ele>223</ele>
<time>2013-08-09T19:56:15Z</time>
</trkpt>
<trkpt lat="37.58238745" lon="-1.20170297">
<ele>224</ele>
<time>2013-08-09T19:56:19Z</time>
</trkpt>
<trkpt lat="37.58239874" lon="-1.20170765">
<ele>224</ele>
<time>2013-08-09T19:56:21Z</time>
</trkpt>
<trkpt lat="37.5824309" lon="-1.20170967">
<ele>225</ele>
<time>2013-08-09T19:56:25Z</time>
</trkpt>
<trkpt lat="37.58244676" lon="-1.20169954">
<ele>226</ele>
<time>2013-08-09T19:56:27Z</time>
</trkpt>
<trkpt lat="37.58247113" lon="-1.20168212">
<ele>226</ele>
<time>2013-08-09T19:56:31Z</time>
</trkpt>
<trkpt lat="37.58247844" lon="-1.20167219">
<ele>226</ele>
<time>2013-08-09T19:56:33Z</time>
</trkpt>
<trkpt lat="37.58249382" lon="-1.20164572">
<ele>226</ele>
<time>2013-08-09T19:56:37Z</time>
</trkpt>
<trkpt lat="37.58249511" lon="-1.20163163">
<ele>226</ele>
<time>2013-08-09T19:56:39Z</time>
</trkpt>
<trkpt lat="37.58249075" lon="-1.20160916">
<ele>228</ele>
<time>2013-08-09T19:56:43Z</time>
</trkpt>
<trkpt lat="37.58248879" lon="-1.20159659">
<ele>227</ele>
<time>2013-08-09T19:56:45Z</time>
</trkpt>
<trkpt lat="37.58252092" lon="-1.20160556">
<ele>226</ele>
<time>2013-08-09T19:56:49Z</time>
</trkpt>
<trkpt lat="37.58253657" lon="-1.20160179">
<ele>225</ele>
<time>2013-08-09T19:56:51Z</time>
</trkpt>
<trkpt lat="37.58254452" lon="-1.20158171">
<ele>224</ele>
<time>2013-08-09T19:56:55Z</time>
</trkpt>
<trkpt lat="37.58255293" lon="-1.20155926">
<ele>221</ele>
<time>2013-08-09T19:56:57Z</time>
</trkpt>
<trkpt lat="37.58257224" lon="-1.2015052">
<ele>221</ele>
<time>2013-08-09T19:57:01Z</time>
</trkpt>
<trkpt lat="37.58258271" lon="-1.20148465">
<ele>222</ele>
<time>2013-08-09T19:57:03Z</time>
</trkpt>
<trkpt lat="37.58259201" lon="-1.20145509">
<ele>223</ele>
<time>2013-08-09T19:57:07Z</time>
</trkpt>
<trkpt lat="37.58259666" lon="-1.20143347">
<ele>223</ele>
<time>2013-08-09T19:57:09Z</time>
</trkpt>
<trkpt lat="37.58260588" lon="-1.20141068">
<ele>224</ele>
<time>2013-08-09T19:57:13Z</time>
</trkpt>
<trkpt lat="37.5826122" lon="-1.20141397">
<ele>223</ele>
<time>2013-08-09T19:57:15Z</time>
</trkpt>
<trkpt lat="37.58261744" lon="-1.20141259">
<ele>224</ele>
<time>2013-08-09T19:57:19Z</time>
</trkpt>
<trkpt lat="37.58262074" lon="-1.20141152">
<ele>223</ele>
<time>2013-08-09T19:57:21Z</time>
</trkpt>
<trkpt lat="37.58262795" lon="-1.20139891">
<ele>223</ele>
<time>2013-08-09T19:57:25Z</time>
</trkpt>
<trkpt lat="37.5826294" lon="-1.20138754">
<ele>223</ele>
<time>2013-08-09T19:57:27Z</time>
</trkpt>
<trkpt lat="37.58261963" lon="-1.20135396">
<ele>219</ele>
<time>2013-08-09T19:57:31Z</time>
</trkpt>
<trkpt lat="37.5826091" lon="-1.20132692">
<ele>220</ele>
<time>2013-08-09T19:57:33Z</time>
</trkpt>
<trkpt lat="37.58261897" lon="-1.20125152">
<ele>221</ele>
<time>2013-08-09T19:57:39Z</time>
</trkpt>
<trkpt lat="37.58262445" lon="-1.20124346">
<ele>221</ele>
<time>2013-08-09T19:57:41Z</time>
</trkpt>
<trkpt lat="37.58262904" lon="-1.20123292">
<ele>221</ele>
<time>2013-08-09T19:57:45Z</time>
</trkpt>
<trkpt lat="37.58263118" lon="-1.20123753">
<ele>222</ele>
<time>2013-08-09T19:57:47Z</time>
</trkpt>
<trkpt lat="37.58263354" lon="-1.20123079">
<ele>222</ele>
<time>2013-08-09T19:57:51Z</time>
</trkpt>
<trkpt lat="37.58263229" lon="-1.20123196">
<ele>222</ele>
<time>2013-08-09T19:57:53Z</time>
</trkpt>
<trkpt lat="37.58263409" lon="-1.20123074">
<ele>221</ele>
<time>2013-08-09T19:57:57Z</time>
</trkpt>
<trkpt lat="37.58263567" lon="-1.2012304">
<ele>221</ele>
<time>2013-08-09T19:57:59Z</time>
</trkpt>
<trkpt lat="37.58263521" lon="-1.2012302">
<ele>221</ele>
<time>2013-08-09T19:58:03Z</time>
</trkpt>
<trkpt lat="37.58263444" lon="-1.20123044">
<ele>221</ele>
<time>2013-08-09T19:58:05Z</time>
</trkpt>
<trkpt lat="37.5826342" lon="-1.20123047">
<ele>221</ele>
<time>2013-08-09T19:58:09Z</time>
</trkpt>
<trkpt lat="37.58263407" lon="-1.20123052">
<ele>221</ele>
<time>2013-08-09T19:58:11Z</time>
</trkpt>
<trkpt lat="37.58263422" lon="-1.2012321">
<ele>221</ele>
<time>2013-08-09T19:58:15Z</time>
</trkpt>
<trkpt lat="37.58263422" lon="-1.2012321">
<ele>221</ele>
<time>2013-08-09T19:58:17Z</time>
</trkpt>
<trkpt lat="37.58263449" lon="-1.20123265">
<ele>221</ele>
<time>2013-08-09T19:58:21Z</time>
</trkpt>
<trkpt lat="37.58263478" lon="-1.20123264">
<ele>221</ele>
<time>2013-08-09T19:58:23Z</time>
</trkpt>
<trkpt lat="37.58263499" lon="-1.20123271">
<ele>221</ele>
<time>2013-08-09T19:58:27Z</time>
</trkpt>
<trkpt lat="37.58263515" lon="-1.20123276">
<ele>221</ele>
<time>2013-08-09T19:58:29Z</time>
</trkpt>
<trkpt lat="37.58263522" lon="-1.20123278">
<ele>221</ele>
<time>2013-08-09T19:58:33Z</time>
</trkpt>
<trkpt lat="37.58263523" lon="-1.20123277">
<ele>221</ele>
<time>2013-08-09T19:58:35Z</time>
</trkpt>
<trkpt lat="37.58263526" lon="-1.20123279">
<ele>221</ele>
<time>2013-08-09T19:58:39Z</time>
</trkpt>
<trkpt lat="37.58263543" lon="-1.20123276">
<ele>221</ele>
<time>2013-08-09T19:58:41Z</time>
</trkpt>
<trkpt lat="37.58263602" lon="-1.20123332">
<ele>221</ele>
<time>2013-08-09T19:58:45Z</time>
</trkpt>
<trkpt lat="37.58263611" lon="-1.20123337">
<ele>221</ele>
<time>2013-08-09T19:58:47Z</time>
</trkpt>
<trkpt lat="37.58263668" lon="-1.20123402">
<ele>221</ele>
<time>2013-08-09T19:58:51Z</time>
</trkpt>
<trkpt lat="37.58262556" lon="-1.20126741">
<ele>222</ele>
<time>2013-08-09T19:58:53Z</time>
</trkpt>
<trkpt lat="37.5826267" lon="-1.20127609">
<ele>222</ele>
<time>2013-08-09T19:58:57Z</time>
</trkpt>
<trkpt lat="37.58262802" lon="-1.20125275">
<ele>221</ele>
<time>2013-08-09T19:58:59Z</time>
</trkpt>
<trkpt lat="37.58262726" lon="-1.2012075">
<ele>220</ele>
<time>2013-08-09T19:59:03Z</time>
</trkpt>
<trkpt lat="37.58262691" lon="-1.20117785">
<ele>220</ele>
<time>2013-08-09T19:59:05Z</time>
</trkpt>
<trkpt lat="37.58262674" lon="-1.20110954">
<ele>220</ele>
<time>2013-08-09T19:59:09Z</time>
</trkpt>
<trkpt lat="37.58263079" lon="-1.20107463">
<ele>221</ele>
<time>2013-08-09T19:59:11Z</time>
</trkpt>
<trkpt lat="37.58264002" lon="-1.201035">
<ele>221</ele>
<time>2013-08-09T19:59:15Z</time>
</trkpt>
<trkpt lat="37.58264068" lon="-1.20101552">
<ele>222</ele>
<time>2013-08-09T19:59:17Z</time>
</trkpt>
<trkpt lat="37.58261637" lon="-1.20097547">
<ele>222</ele>
<time>2013-08-09T19:59:21Z</time>
</trkpt>
<trkpt lat="37.58261134" lon="-1.20096501">
<ele>222</ele>
<time>2013-08-09T19:59:23Z</time>
</trkpt>
<trkpt lat="37.58260162" lon="-1.20092893">
<ele>225</ele>
<time>2013-08-09T19:59:27Z</time>
</trkpt>
<trkpt lat="37.5825823" lon="-1.20091642">
<ele>227</ele>
<time>2013-08-09T19:59:29Z</time>
</trkpt>
<trkpt lat="37.58255313" lon="-1.2008961">
<ele>224</ele>
<time>2013-08-09T19:59:33Z</time>
</trkpt>
<trkpt lat="37.58254301" lon="-1.20088811">
<ele>224</ele>
<time>2013-08-09T19:59:35Z</time>
</trkpt>
<trkpt lat="37.58251783" lon="-1.20089105">
<ele>224</ele>
<time>2013-08-09T19:59:39Z</time>
</trkpt>
<trkpt lat="37.5825182" lon="-1.2008848">
<ele>222</ele>
<time>2013-08-09T19:59:41Z</time>
</trkpt>
<trkpt lat="37.58256927" lon="-1.20088362">
<ele>220</ele>
<time>2013-08-09T19:59:45Z</time>
</trkpt>
<trkpt lat="37.58258291" lon="-1.2008774">
<ele>221</ele>
<time>2013-08-09T19:59:47Z</time>
</trkpt>
<trkpt lat="37.58258685" lon="-1.20089276">
<ele>219</ele>
<time>2013-08-09T19:59:51Z</time>
</trkpt>
<trkpt lat="37.58258803" lon="-1.20090341">
<ele>218</ele>
<time>2013-08-09T19:59:53Z</time>
</trkpt>
<trkpt lat="37.58259625" lon="-1.20092478">
<ele>218</ele>
<time>2013-08-09T19:59:57Z</time>
</trkpt>
<trkpt lat="37.58259769" lon="-1.20092908">
<ele>218</ele>
<time>2013-08-09T19:59:59Z</time>
</trkpt>
<trkpt lat="37.58259814" lon="-1.20093156">
<ele>218</ele>
<time>2013-08-09T20:00:03Z</time>
</trkpt>
<trkpt lat="37.58259869" lon="-1.20093333">
<ele>217</ele>
<time>2013-08-09T20:00:05Z</time>
</trkpt>
<trkpt lat="37.58259858" lon="-1.20093377">
<ele>218</ele>
<time>2013-08-09T20:00:09Z</time>
</trkpt>
<trkpt lat="37.58259834" lon="-1.20093353">
<ele>217</ele>
<time>2013-08-09T20:00:11Z</time>
</trkpt>
<trkpt lat="37.58259845" lon="-1.2009342">
<ele>217</ele>
<time>2013-08-09T20:00:15Z</time>
</trkpt>
<trkpt lat="37.58259852" lon="-1.20093401">
<ele>217</ele>
<time>2013-08-09T20:00:17Z</time>
</trkpt>
<trkpt lat="37.58259875" lon="-1.20093252">
<ele>217</ele>
<time>2013-08-09T20:00:21Z</time>
</trkpt>
<trkpt lat="37.58259872" lon="-1.20093239">
<ele>217</ele>
<time>2013-08-09T20:00:23Z</time>
</trkpt>
<trkpt lat="37.58259293" lon="-1.20092992">
<ele>217</ele>
<time>2013-08-09T20:00:27Z</time>
</trkpt>
<trkpt lat="37.58257861" lon="-1.20092349">
<ele>220</ele>
<time>2013-08-09T20:00:29Z</time>
</trkpt>
<trkpt lat="37.58257262" lon="-1.20091519">
<ele>219</ele>
<time>2013-08-09T20:00:33Z</time>
</trkpt>
<trkpt lat="37.58256961" lon="-1.20091238">
<ele>220</ele>
<time>2013-08-09T20:00:35Z</time>
</trkpt>
<trkpt lat="37.58257114" lon="-1.20091649">
<ele>219</ele>
<time>2013-08-09T20:00:39Z</time>
</trkpt>
<trkpt lat="37.58257104" lon="-1.20091802">
<ele>218</ele>
<time>2013-08-09T20:00:41Z</time>
</trkpt>
<trkpt lat="37.58256561" lon="-1.20091677">
<ele>219</ele>
<time>2013-08-09T20:00:45Z</time>
</trkpt>
<trkpt lat="37.58256393" lon="-1.20091694">
<ele>219</ele>
<time>2013-08-09T20:00:47Z</time>
</trkpt>
<trkpt lat="37.58256056" lon="-1.20091664">
<ele>218</ele>
<time>2013-08-09T20:00:51Z</time>
</trkpt>
<trkpt lat="37.58256025" lon="-1.20091705">
<ele>219</ele>
<time>2013-08-09T20:00:53Z</time>
</trkpt>
<trkpt lat="37.58256015" lon="-1.20091683">
<ele>219</ele>
<time>2013-08-09T20:00:57Z</time>
</trkpt>
<trkpt lat="37.58256024" lon="-1.2009148">
<ele>219</ele>
<time>2013-08-09T20:00:59Z</time>
</trkpt>
<trkpt lat="37.58256858" lon="-1.2009253">
<ele>217</ele>
<time>2013-08-09T20:01:03Z</time>
</trkpt>
<trkpt lat="37.58256823" lon="-1.20092793">
<ele>217</ele>
<time>2013-08-09T20:01:05Z</time>
</trkpt>
<trkpt lat="37.58256068" lon="-1.20092783">
<ele>216</ele>
<time>2013-08-09T20:01:09Z</time>
</trkpt>
<trkpt lat="37.5825586" lon="-1.20092521">
<ele>216</ele>
<time>2013-08-09T20:01:11Z</time>
</trkpt>
<trkpt lat="37.58255568" lon="-1.2009256">
<ele>218</ele>
<time>2013-08-09T20:01:15Z</time>
</trkpt>
<trkpt lat="37.58255375" lon="-1.20092683">
<ele>219</ele>
<time>2013-08-09T20:01:17Z</time>
</trkpt>
<trkpt lat="37.58255308" lon="-1.20093026">
<ele>218</ele>
<time>2013-08-09T20:01:21Z</time>
</trkpt>
<trkpt lat="37.58255324" lon="-1.20093071">
<ele>218</ele>
<time>2013-08-09T20:01:23Z</time>
</trkpt>
<trkpt lat="37.58256622" lon="-1.20093319">
<ele>218</ele>
<time>2013-08-09T20:01:27Z</time>
</trkpt>
<trkpt lat="37.58258082" lon="-1.20092107">
<ele>219</ele>
<time>2013-08-09T20:01:29Z</time>
</trkpt>
<trkpt lat="37.58257963" lon="-1.20090101">
<ele>220</ele>
<time>2013-08-09T20:01:33Z</time>
</trkpt>
<trkpt lat="37.58257963" lon="-1.20090101">
<ele>220</ele>
<time>2013-08-09T20:01:35Z</time>
</trkpt>
<trkpt lat="37.58258379" lon="-1.20090697">
<ele>219</ele>
<time>2013-08-09T20:01:39Z</time>
</trkpt>
<trkpt lat="37.58258313" lon="-1.20090905">
<ele>219</ele>
<time>2013-08-09T20:01:41Z</time>
</trkpt>
<trkpt lat="37.58258502" lon="-1.20091219">
<ele>219</ele>
<time>2013-08-09T20:01:45Z</time>
</trkpt>
<trkpt lat="37.58258371" lon="-1.20091302">
<ele>219</ele>
<time>2013-08-09T20:01:47Z</time>
</trkpt>
<trkpt lat="37.58258205" lon="-1.20091604">
<ele>218</ele>
<time>2013-08-09T20:01:51Z</time>
</trkpt>
<trkpt lat="37.58258153" lon="-1.20091754">
<ele>219</ele>
<time>2013-08-09T20:01:53Z</time>
</trkpt>
<trkpt lat="37.58258109" lon="-1.20091896">
<ele>219</ele>
<time>2013-08-09T20:01:57Z</time>
</trkpt>
<trkpt lat="37.58258106" lon="-1.20091931">
<ele>219</ele>
<time>2013-08-09T20:01:59Z</time>
</trkpt>
<trkpt lat="37.58258096" lon="-1.20091992">
<ele>219</ele>
<time>2013-08-09T20:02:03Z</time>
</trkpt>
<trkpt lat="37.58258088" lon="-1.20092005">
<ele>219</ele>
<time>2013-08-09T20:02:05Z</time>
</trkpt>
<trkpt lat="37.58258062" lon="-1.20091995">
<ele>219</ele>
<time>2013-08-09T20:02:09Z</time>
</trkpt>
<trkpt lat="37.58258062" lon="-1.20091995">
<ele>219</ele>
<time>2013-08-09T20:02:11Z</time>
</trkpt>
<trkpt lat="37.58258027" lon="-1.20091971">
<ele>219</ele>
<time>2013-08-09T20:02:15Z</time>
</trkpt>
<trkpt lat="37.58258027" lon="-1.20091971">
<ele>219</ele>
<time>2013-08-09T20:02:17Z</time>
</trkpt>
<trkpt lat="37.5825802" lon="-1.20091961">
<ele>219</ele>
<time>2013-08-09T20:02:21Z</time>
</trkpt>
<trkpt lat="37.58258023" lon="-1.20091961">
<ele>219</ele>
<time>2013-08-09T20:02:23Z</time>
</trkpt>
<trkpt lat="37.58258014" lon="-1.20091951">
<ele>219</ele>
<time>2013-08-09T20:02:27Z</time>
</trkpt>
<trkpt lat="37.58258014" lon="-1.20091951">
<ele>219</ele>
<time>2013-08-09T20:02:29Z</time>
</trkpt>
<trkpt lat="37.58257339" lon="-1.20094108">
<ele>219</ele>
<time>2013-08-09T20:02:33Z</time>
</trkpt>
<trkpt lat="37.58257437" lon="-1.20094646">
<ele>219</ele>
<time>2013-08-09T20:02:35Z</time>
</trkpt>
<trkpt lat="37.58257431" lon="-1.20093119">
<ele>222</ele>
<time>2013-08-09T20:02:39Z</time>
</trkpt>
<trkpt lat="37.58257872" lon="-1.20092561">
<ele>222</ele>
<time>2013-08-09T20:02:41Z</time>
</trkpt>
<trkpt lat="37.58260613" lon="-1.20095374">
<ele>223</ele>
<time>2013-08-09T20:02:45Z</time>
</trkpt>
<trkpt lat="37.58261072" lon="-1.20096168">
<ele>221</ele>
<time>2013-08-09T20:02:47Z</time>
</trkpt>
<trkpt lat="37.58262365" lon="-1.20095122">
<ele>220</ele>
<time>2013-08-09T20:02:51Z</time>
</trkpt>
<trkpt lat="37.58262703" lon="-1.20094504">
<ele>221</ele>
<time>2013-08-09T20:02:53Z</time>
</trkpt>
<trkpt lat="37.58262635" lon="-1.20093932">
<ele>221</ele>
<time>2013-08-09T20:02:57Z</time>
</trkpt>
<trkpt lat="37.58262726" lon="-1.20093827">
<ele>221</ele>
<time>2013-08-09T20:02:59Z</time>
</trkpt>
<trkpt lat="37.58263124" lon="-1.20094132">
<ele>221</ele>
<time>2013-08-09T20:03:03Z</time>
</trkpt>
<trkpt lat="37.58263255" lon="-1.20094573">
<ele>221</ele>
<time>2013-08-09T20:03:05Z</time>
</trkpt>
<trkpt lat="37.58263407" lon="-1.20095071">
<ele>221</ele>
<time>2013-08-09T20:03:09Z</time>
</trkpt>
<trkpt lat="37.5826349" lon="-1.20095158">
<ele>221</ele>
<time>2013-08-09T20:03:11Z</time>
</trkpt>
<trkpt lat="37.58263433" lon="-1.200949">
<ele>222</ele>
<time>2013-08-09T20:03:15Z</time>
</trkpt>
<trkpt lat="37.58263396" lon="-1.20094878">
<ele>222</ele>
<time>2013-08-09T20:03:17Z</time>
</trkpt>
<trkpt lat="37.58263362" lon="-1.2009485">
<ele>222</ele>
<time>2013-08-09T20:03:21Z</time>
</trkpt>
<trkpt lat="37.58263362" lon="-1.2009485">
<ele>222</ele>
<time>2013-08-09T20:03:23Z</time>
</trkpt>
<trkpt lat="37.58263229" lon="-1.20094893">
<ele>222</ele>
<time>2013-08-09T20:03:27Z</time>
</trkpt>
<trkpt lat="37.58263175" lon="-1.20094873">
<ele>222</ele>
<time>2013-08-09T20:03:29Z</time>
</trkpt>
<trkpt lat="37.58263217" lon="-1.20094918">
<ele>222</ele>
<time>2013-08-09T20:03:33Z</time>
</trkpt>
<trkpt lat="37.58261623" lon="-1.2009515">
<ele>222</ele>
<time>2013-08-09T20:03:35Z</time>
</trkpt>
<trkpt lat="37.58257129" lon="-1.20094907">
<ele>223</ele>
<time>2013-08-09T20:03:39Z</time>
</trkpt>
<trkpt lat="37.58255946" lon="-1.20094758">
<ele>222</ele>
<time>2013-08-09T20:03:41Z</time>
</trkpt>
<trkpt lat="37.58254405" lon="-1.20094543">
<ele>224</ele>
<time>2013-08-09T20:03:45Z</time>
</trkpt>
<trkpt lat="37.58254593" lon="-1.20094036">
<ele>224</ele>
<time>2013-08-09T20:03:47Z</time>
</trkpt>
<trkpt lat="37.58256184" lon="-1.20093025">
<ele>223</ele>
<time>2013-08-09T20:03:51Z</time>
</trkpt>
<trkpt lat="37.58256184" lon="-1.20093025">
<ele>223</ele>
<time>2013-08-09T20:03:53Z</time>
</trkpt>
<trkpt lat="37.58256452" lon="-1.20092814">
<ele>223</ele>
<time>2013-08-09T20:03:57Z</time>
</trkpt>
<trkpt lat="37.58256424" lon="-1.20092862">
<ele>223</ele>
<time>2013-08-09T20:03:59Z</time>
</trkpt>
<trkpt lat="37.58256362" lon="-1.20092873">
<ele>223</ele>
<time>2013-08-09T20:04:03Z</time>
</trkpt>
<trkpt lat="37.58256337" lon="-1.20092893">
<ele>223</ele>
<time>2013-08-09T20:04:05Z</time>
</trkpt>
<trkpt lat="37.58256267" lon="-1.20092907">
<ele>223</ele>
<time>2013-08-09T20:04:09Z</time>
</trkpt>
<trkpt lat="37.58256259" lon="-1.2009292">
<ele>223</ele>
<time>2013-08-09T20:04:11Z</time>
</trkpt>
<trkpt lat="37.58256271" lon="-1.20092942">
<ele>223</ele>
<time>2013-08-09T20:04:15Z</time>
</trkpt>
<trkpt lat="37.58256343" lon="-1.20093001">
<ele>223</ele>
<time>2013-08-09T20:04:17Z</time>
</trkpt>
<trkpt lat="37.58255703" lon="-1.20093084">
<ele>223</ele>
<time>2013-08-09T20:04:21Z</time>
</trkpt>
<trkpt lat="37.58255514" lon="-1.20093056">
<ele>224</ele>
<time>2013-08-09T20:04:23Z</time>
</trkpt>
<trkpt lat="37.58255315" lon="-1.2009319">
<ele>224</ele>
<time>2013-08-09T20:04:27Z</time>
</trkpt>
<trkpt lat="37.5825535" lon="-1.20093315">
<ele>224</ele>
<time>2013-08-09T20:04:29Z</time>
</trkpt>
<trkpt lat="37.58255393" lon="-1.20093453">
<ele>224</ele>
<time>2013-08-09T20:04:33Z</time>
</trkpt>
<trkpt lat="37.58255414" lon="-1.20093515">
<ele>224</ele>
<time>2013-08-09T20:04:35Z</time>
</trkpt>
<trkpt lat="37.58255452" lon="-1.20093579">
<ele>224</ele>
<time>2013-08-09T20:04:39Z</time>
</trkpt>
<trkpt lat="37.58255456" lon="-1.20093605">
<ele>224</ele>
<time>2013-08-09T20:04:41Z</time>
</trkpt>
<trkpt lat="37.58255562" lon="-1.20093685">
<ele>223</ele>
<time>2013-08-09T20:04:45Z</time>
</trkpt>
<trkpt lat="37.58255597" lon="-1.20093705">
<ele>224</ele>
<time>2013-08-09T20:04:47Z</time>
</trkpt>
<trkpt lat="37.58255621" lon="-1.20093734">
<ele>224</ele>
<time>2013-08-09T20:04:51Z</time>
</trkpt>
<trkpt lat="37.5825563" lon="-1.20093737">
<ele>224</ele>
<time>2013-08-09T20:04:53Z</time>
</trkpt>
<trkpt lat="37.58255645" lon="-1.20093743">
<ele>224</ele>
<time>2013-08-09T20:04:57Z</time>
</trkpt>
<trkpt lat="37.58255656" lon="-1.20093751">
<ele>224</ele>
<time>2013-08-09T20:04:59Z</time>
</trkpt>
<trkpt lat="37.58254825" lon="-1.20093702">
<ele>224</ele>
<time>2013-08-09T20:05:03Z</time>
</trkpt>
<trkpt lat="37.58254967" lon="-1.20094353">
<ele>221</ele>
<time>2013-08-09T20:05:05Z</time>
</trkpt>
<trkpt lat="37.5825464" lon="-1.20097147">
<ele>218</ele>
<time>2013-08-09T20:05:09Z</time>
</trkpt>
<trkpt lat="37.58254703" lon="-1.20098309">
<ele>217</ele>
<time>2013-08-09T20:05:11Z</time>
</trkpt>
<trkpt lat="37.58255697" lon="-1.20097837">
<ele>216</ele>
<time>2013-08-09T20:05:15Z</time>
</trkpt>
<trkpt lat="37.58257447" lon="-1.20097645">
<ele>216</ele>
<time>2013-08-09T20:05:17Z</time>
</trkpt>
<trkpt lat="37.58258171" lon="-1.20096963">
<ele>216</ele>
<time>2013-08-09T20:05:21Z</time>
</trkpt>
<trkpt lat="37.58258432" lon="-1.200966">
<ele>216</ele>
<time>2013-08-09T20:05:23Z</time>
</trkpt>
<trkpt lat="37.58258353" lon="-1.20095621">
<ele>217</ele>
<time>2013-08-09T20:05:27Z</time>
</trkpt>
<trkpt lat="37.58257983" lon="-1.2009512">
<ele>217</ele>
<time>2013-08-09T20:05:29Z</time>
</trkpt>
<trkpt lat="37.58257514" lon="-1.20095037">
<ele>216</ele>
<time>2013-08-09T20:05:33Z</time>
</trkpt>
<trkpt lat="37.58257379" lon="-1.20095158">
<ele>216</ele>
<time>2013-08-09T20:05:35Z</time>
</trkpt>
<trkpt lat="37.5825731" lon="-1.20095362">
<ele>216</ele>
<time>2013-08-09T20:05:39Z</time>
</trkpt>
<trkpt lat="37.58257329" lon="-1.20095391">
<ele>216</ele>
<time>2013-08-09T20:05:41Z</time>
</trkpt>
<trkpt lat="37.58257353" lon="-1.20095551">
<ele>216</ele>
<time>2013-08-09T20:05:45Z</time>
</trkpt>
<trkpt lat="37.58257405" lon="-1.2009564">
<ele>216</ele>
<time>2013-08-09T20:05:47Z</time>
</trkpt>
<trkpt lat="37.5825737" lon="-1.2009575">
<ele>216</ele>
<time>2013-08-09T20:05:51Z</time>
</trkpt>
<trkpt lat="37.58257363" lon="-1.20095733">
<ele>216</ele>
<time>2013-08-09T20:05:53Z</time>
</trkpt>
<trkpt lat="37.58257328" lon="-1.20095531">
<ele>216</ele>
<time>2013-08-09T20:05:57Z</time>
</trkpt>
<trkpt lat="37.58257308" lon="-1.20095465">
<ele>216</ele>
<time>2013-08-09T20:05:59Z</time>
</trkpt>
<trkpt lat="37.58257311" lon="-1.20095407">
<ele>216</ele>
<time>2013-08-09T20:06:03Z</time>
</trkpt>
<trkpt lat="37.5825731" lon="-1.20095408">
<ele>216</ele>
<time>2013-08-09T20:06:05Z</time>
</trkpt>
<trkpt lat="37.58257286" lon="-1.20095524">
<ele>216</ele>
<time>2013-08-09T20:06:09Z</time>
</trkpt>
<trkpt lat="37.58257275" lon="-1.20095384">
<ele>216</ele>
<time>2013-08-09T20:06:11Z</time>
</trkpt>
<trkpt lat="37.5825717" lon="-1.20094921">
<ele>216</ele>
<time>2013-08-09T20:06:15Z</time>
</trkpt>
<trkpt lat="37.58257169" lon="-1.20094892">
<ele>216</ele>
<time>2013-08-09T20:06:17Z</time>
</trkpt>
<trkpt lat="37.58257166" lon="-1.20094868">
<ele>216</ele>
<time>2013-08-09T20:06:21Z</time>
</trkpt>
<trkpt lat="37.5825717" lon="-1.20094867">
<ele>216</ele>
<time>2013-08-09T20:06:23Z</time>
</trkpt>
<trkpt lat="37.58257146" lon="-1.20094846">
<ele>216</ele>
<time>2013-08-09T20:06:27Z</time>
</trkpt>
<trkpt lat="37.58257139" lon="-1.2009484">
<ele>216</ele>
<time>2013-08-09T20:06:29Z</time>
</trkpt>
<trkpt lat="37.58257105" lon="-1.20094836">
<ele>216</ele>
<time>2013-08-09T20:06:33Z</time>
</trkpt>
<trkpt lat="37.58257101" lon="-1.20094839">
<ele>216</ele>
<time>2013-08-09T20:06:35Z</time>
</trkpt>
<trkpt lat="37.58257082" lon="-1.20094829">
<ele>217</ele>
<time>2013-08-09T20:06:39Z</time>
</trkpt>
<trkpt lat="37.58257078" lon="-1.20094826">
<ele>217</ele>
<time>2013-08-09T20:06:41Z</time>
</trkpt>
<trkpt lat="37.58257077" lon="-1.20094827">
<ele>217</ele>
<time>2013-08-09T20:06:45Z</time>
</trkpt>
<trkpt lat="37.58257079" lon="-1.20094828">
<ele>217</ele>
<time>2013-08-09T20:06:47Z</time>
</trkpt>
<trkpt lat="37.58257066" lon="-1.20093263">
<ele>214</ele>
<time>2013-08-09T20:06:51Z</time>
</trkpt>
<trkpt lat="37.58257185" lon="-1.2009412">
<ele>216</ele>
<time>2013-08-09T20:06:53Z</time>
</trkpt>
<trkpt lat="37.58257466" lon="-1.20094104">
<ele>219</ele>
<time>2013-08-09T20:06:57Z</time>
</trkpt>
<trkpt lat="37.58257411" lon="-1.20093924">
<ele>219</ele>
<time>2013-08-09T20:06:59Z</time>
</trkpt>
<trkpt lat="37.58257314" lon="-1.20093311">
<ele>219</ele>
<time>2013-08-09T20:07:03Z</time>
</trkpt>
<trkpt lat="37.58257493" lon="-1.20093369">
<ele>218</ele>
<time>2013-08-09T20:07:05Z</time>
</trkpt>
<trkpt lat="37.5825779" lon="-1.20093717">
<ele>219</ele>
<time>2013-08-09T20:07:09Z</time>
</trkpt>
<trkpt lat="37.58257867" lon="-1.20093755">
<ele>219</ele>
<time>2013-08-09T20:07:11Z</time>
</trkpt>
<trkpt lat="37.58257885" lon="-1.20093891">
<ele>219</ele>
<time>2013-08-09T20:07:15Z</time>
</trkpt>
<trkpt lat="37.58257883" lon="-1.20093907">
<ele>219</ele>
<time>2013-08-09T20:07:17Z</time>
</trkpt>
<trkpt lat="37.58257878" lon="-1.20093923">
<ele>219</ele>
<time>2013-08-09T20:07:21Z</time>
</trkpt>
<trkpt lat="37.58257878" lon="-1.20093923">
<ele>219</ele>
<time>2013-08-09T20:07:23Z</time>
</trkpt>
<trkpt lat="37.58257885" lon="-1.20093941">
<ele>219</ele>
<time>2013-08-09T20:07:27Z</time>
</trkpt>
<trkpt lat="37.58257885" lon="-1.20093944">
<ele>219</ele>
<time>2013-08-09T20:07:29Z</time>
</trkpt>
<trkpt lat="37.58257884" lon="-1.20093937">
<ele>219</ele>
<time>2013-08-09T20:07:33Z</time>
</trkpt>
<trkpt lat="37.58257882" lon="-1.20093932">
<ele>219</ele>
<time>2013-08-09T20:07:35Z</time>
</trkpt>
<trkpt lat="37.58257876" lon="-1.20093931">
<ele>219</ele>
<time>2013-08-09T20:07:39Z</time>
</trkpt>
<trkpt lat="37.58257874" lon="-1.20093931">
<ele>219</ele>
<time>2013-08-09T20:07:41Z</time>
</trkpt>
<trkpt lat="37.58257879" lon="-1.20093927">
<ele>219</ele>
<time>2013-08-09T20:07:45Z</time>
</trkpt>
<trkpt lat="37.58257921" lon="-1.20093928">
<ele>219</ele>
<time>2013-08-09T20:07:47Z</time>
</trkpt>
<trkpt lat="37.58257971" lon="-1.20093928">
<ele>219</ele>
<time>2013-08-09T20:07:51Z</time>
</trkpt>
<trkpt lat="37.58257983" lon="-1.20093931">
<ele>219</ele>
<time>2013-08-09T20:07:53Z</time>
</trkpt>
<trkpt lat="37.58257998" lon="-1.20093957">
<ele>219</ele>
<time>2013-08-09T20:07:57Z</time>
</trkpt>
<trkpt lat="37.58257998" lon="-1.20093957">
<ele>219</ele>
<time>2013-08-09T20:07:59Z</time>
</trkpt>
<trkpt lat="37.58258009" lon="-1.2009398">
<ele>219</ele>
<time>2013-08-09T20:08:03Z</time>
</trkpt>
<trkpt lat="37.58258016" lon="-1.20093987">
<ele>219</ele>
<time>2013-08-09T20:08:05Z</time>
</trkpt>
<trkpt lat="37.58258018" lon="-1.20093985">
<ele>219</ele>
<time>2013-08-09T20:08:09Z</time>
</trkpt>
<trkpt lat="37.58258017" lon="-1.2009398">
<ele>219</ele>
<time>2013-08-09T20:08:11Z</time>
</trkpt>
<trkpt lat="37.58258019" lon="-1.20093975">
<ele>219</ele>
<time>2013-08-09T20:08:15Z</time>
</trkpt>
<trkpt lat="37.58258019" lon="-1.20093979">
<ele>219</ele>
<time>2013-08-09T20:08:17Z</time>
</trkpt>
<trkpt lat="37.58258026" lon="-1.20093992">
<ele>219</ele>
<time>2013-08-09T20:08:21Z</time>
</trkpt>
<trkpt lat="37.58258034" lon="-1.20093999">
<ele>219</ele>
<time>2013-08-09T20:08:23Z</time>
</trkpt>
<trkpt lat="37.58258054" lon="-1.20094033">
<ele>219</ele>
<time>2013-08-09T20:08:27Z</time>
</trkpt>
<trkpt lat="37.58258059" lon="-1.20094036">
<ele>219</ele>
<time>2013-08-09T20:08:29Z</time>
</trkpt>
<trkpt lat="37.5825806" lon="-1.20094033">
<ele>219</ele>
<time>2013-08-09T20:08:33Z</time>
</trkpt>
<trkpt lat="37.58258064" lon="-1.20094033">
<ele>219</ele>
<time>2013-08-09T20:08:35Z</time>
</trkpt>
<trkpt lat="37.58258071" lon="-1.20094036">
<ele>219</ele>
<time>2013-08-09T20:08:38Z</time>
</trkpt>
<trkpt lat="37.58258074" lon="-1.20094037">
<ele>219</ele>
<time>2013-08-09T20:08:41Z</time>
</trkpt>
<trkpt lat="37.58258082" lon="-1.20094042">
<ele>219</ele>
<time>2013-08-09T20:08:45Z</time>
</trkpt>
<trkpt lat="37.582581" lon="-1.20094066">
<ele>219</ele>
<time>2013-08-09T20:08:47Z</time>
</trkpt>
<trkpt lat="37.58257592" lon="-1.20094051">
<ele>217</ele>
<time>2013-08-09T20:08:51Z</time>
</trkpt>
<trkpt lat="37.5825758" lon="-1.20094002">
<ele>219</ele>
<time>2013-08-09T20:08:53Z</time>
</trkpt>
<trkpt lat="37.58256789" lon="-1.20094733">
<ele>218</ele>
<time>2013-08-09T20:08:57Z</time>
</trkpt>
<trkpt lat="37.58255959" lon="-1.20095093">
<ele>219</ele>
<time>2013-08-09T20:08:59Z</time>
</trkpt>
<trkpt lat="37.58257846" lon="-1.20095875">
<ele>218</ele>
<time>2013-08-09T20:09:03Z</time>
</trkpt>
<trkpt lat="37.5825866" lon="-1.20095706">
<ele>218</ele>
<time>2013-08-09T20:09:05Z</time>
</trkpt>
<trkpt lat="37.58259631" lon="-1.20095628">
<ele>218</ele>
<time>2013-08-09T20:09:09Z</time>
</trkpt>
<trkpt lat="37.58260608" lon="-1.20095312">
<ele>218</ele>
<time>2013-08-09T20:09:11Z</time>
</trkpt>
<trkpt lat="37.58261752" lon="-1.20095088">
<ele>218</ele>
<time>2013-08-09T20:09:15Z</time>
</trkpt>
<trkpt lat="37.58261919" lon="-1.20094987">
<ele>218</ele>
<time>2013-08-09T20:09:17Z</time>
</trkpt>
<trkpt lat="37.58261808" lon="-1.20095395">
<ele>218</ele>
<time>2013-08-09T20:09:21Z</time>
</trkpt>
<trkpt lat="37.58261801" lon="-1.20095518">
<ele>218</ele>
<time>2013-08-09T20:09:23Z</time>
</trkpt>
<trkpt lat="37.58261573" lon="-1.20095663">
<ele>218</ele>
<time>2013-08-09T20:09:27Z</time>
</trkpt>
<trkpt lat="37.58261567" lon="-1.20095692">
<ele>218</ele>
<time>2013-08-09T20:09:29Z</time>
</trkpt>
<trkpt lat="37.58261582" lon="-1.2009565">
<ele>218</ele>
<time>2013-08-09T20:09:33Z</time>
</trkpt>
<trkpt lat="37.58261543" lon="-1.20095613">
<ele>218</ele>
<time>2013-08-09T20:09:35Z</time>
</trkpt>
<trkpt lat="37.58261529" lon="-1.20095599">
<ele>218</ele>
<time>2013-08-09T20:09:39Z</time>
</trkpt>
<trkpt lat="37.58261525" lon="-1.20095596">
<ele>218</ele>
<time>2013-08-09T20:09:41Z</time>
</trkpt>
<trkpt lat="37.58261535" lon="-1.2009559">
<ele>218</ele>
<time>2013-08-09T20:09:45Z</time>
</trkpt>
<trkpt lat="37.58261542" lon="-1.20095583">
<ele>218</ele>
<time>2013-08-09T20:09:47Z</time>
</trkpt>
<trkpt lat="37.58261567" lon="-1.20095595">
<ele>218</ele>
<time>2013-08-09T20:09:51Z</time>
</trkpt>
<trkpt lat="37.58261586" lon="-1.20095587">
<ele>218</ele>
<time>2013-08-09T20:09:53Z</time>
</trkpt>
<trkpt lat="37.58261618" lon="-1.20095575">
<ele>218</ele>
<time>2013-08-09T20:09:57Z</time>
</trkpt>
<trkpt lat="37.58261622" lon="-1.20095576">
<ele>218</ele>
<time>2013-08-09T20:09:59Z</time>
</trkpt>
<trkpt lat="37.58261644" lon="-1.20095596">
<ele>218</ele>
<time>2013-08-09T20:10:03Z</time>
</trkpt>
<trkpt lat="37.58261652" lon="-1.20095603">
<ele>218</ele>
<time>2013-08-09T20:10:05Z</time>
</trkpt>
<trkpt lat="37.58261671" lon="-1.20095608">
<ele>218</ele>
<time>2013-08-09T20:10:09Z</time>
</trkpt>
<trkpt lat="37.58261678" lon="-1.20095611">
<ele>218</ele>
<time>2013-08-09T20:10:11Z</time>
</trkpt>
<trkpt lat="37.58261712" lon="-1.20095622">
<ele>218</ele>
<time>2013-08-09T20:10:15Z</time>
</trkpt>
<trkpt lat="37.58261739" lon="-1.20095627">
<ele>218</ele>
<time>2013-08-09T20:10:17Z</time>
</trkpt>
<trkpt lat="37.58261744" lon="-1.20095613">
<ele>218</ele>
<time>2013-08-09T20:10:21Z</time>
</trkpt>
<trkpt lat="37.58261742" lon="-1.20095604">
<ele>218</ele>
<time>2013-08-09T20:10:23Z</time>
</trkpt>
<trkpt lat="37.58261737" lon="-1.20095597">
<ele>218</ele>
<time>2013-08-09T20:10:27Z</time>
</trkpt>
<trkpt lat="37.58261736" lon="-1.20095594">
<ele>218</ele>
<time>2013-08-09T20:10:29Z</time>
</trkpt>
<trkpt lat="37.58261753" lon="-1.20095583">
<ele>218</ele>
<time>2013-08-09T20:10:33Z</time>
</trkpt>
<trkpt lat="37.58261765" lon="-1.20095633">
<ele>218</ele>
<time>2013-08-09T20:10:35Z</time>
</trkpt>
<trkpt lat="37.58261781" lon="-1.20095647">
<ele>218</ele>
<time>2013-08-09T20:10:39Z</time>
</trkpt>
<trkpt lat="37.58261772" lon="-1.20095645">
<ele>218</ele>
<time>2013-08-09T20:10:41Z</time>
</trkpt>
<trkpt lat="37.58261759" lon="-1.20095643">
<ele>218</ele>
<time>2013-08-09T20:10:45Z</time>
</trkpt>
<trkpt lat="37.58261904" lon="-1.20095672">
<ele>217</ele>
<time>2013-08-09T20:10:47Z</time>
</trkpt>
<trkpt lat="37.58261901" lon="-1.20095494">
<ele>218</ele>
<time>2013-08-09T20:10:51Z</time>
</trkpt>
<trkpt lat="37.58261874" lon="-1.20095454">
<ele>218</ele>
<time>2013-08-09T20:10:53Z</time>
</trkpt>
<trkpt lat="37.58261866" lon="-1.20095423">
<ele>218</ele>
<time>2013-08-09T20:10:57Z</time>
</trkpt>
<trkpt lat="37.5826187" lon="-1.20095407">
<ele>218</ele>
<time>2013-08-09T20:10:59Z</time>
</trkpt>
<trkpt lat="37.58261872" lon="-1.20095395">
<ele>218</ele>
<time>2013-08-09T20:11:03Z</time>
</trkpt>
<trkpt lat="37.5826187" lon="-1.20095399">
<ele>218</ele>
<time>2013-08-09T20:11:05Z</time>
</trkpt>
<trkpt lat="37.58261877" lon="-1.2009541">
<ele>218</ele>
<time>2013-08-09T20:11:09Z</time>
</trkpt>
<trkpt lat="37.58261881" lon="-1.20095415">
<ele>218</ele>
<time>2013-08-09T20:11:11Z</time>
</trkpt>
<trkpt lat="37.58261883" lon="-1.20095418">
<ele>218</ele>
<time>2013-08-09T20:11:15Z</time>
</trkpt>
<trkpt lat="37.58261893" lon="-1.20095419">
<ele>218</ele>
<time>2013-08-09T20:11:17Z</time>
</trkpt>
<trkpt lat="37.5826192" lon="-1.20095426">
<ele>218</ele>
<time>2013-08-09T20:11:21Z</time>
</trkpt>
<trkpt lat="37.58261931" lon="-1.2009543">
<ele>218</ele>
<time>2013-08-09T20:11:23Z</time>
</trkpt>
<trkpt lat="37.58261954" lon="-1.20095445">
<ele>218</ele>
<time>2013-08-09T20:11:27Z</time>
</trkpt>
<trkpt lat="37.58261982" lon="-1.20095465">
<ele>218</ele>
<time>2013-08-09T20:11:29Z</time>
</trkpt>
<trkpt lat="37.58262024" lon="-1.20095489">
<ele>217</ele>
<time>2013-08-09T20:11:33Z</time>
</trkpt>
<trkpt lat="37.58262024" lon="-1.20095496">
<ele>217</ele>
<time>2013-08-09T20:11:35Z</time>
</trkpt>
<trkpt lat="37.58262025" lon="-1.20095494">
<ele>217</ele>
<time>2013-08-09T20:11:39Z</time>
</trkpt>
<trkpt lat="37.58262032" lon="-1.20095501">
<ele>217</ele>
<time>2013-08-09T20:11:41Z</time>
</trkpt>
<trkpt lat="37.58262044" lon="-1.20095496">
<ele>217</ele>
<time>2013-08-09T20:11:45Z</time>
</trkpt>
<trkpt lat="37.58262047" lon="-1.20095498">
<ele>217</ele>
<time>2013-08-09T20:11:47Z</time>
</trkpt>
<trkpt lat="37.58262049" lon="-1.200955">
<ele>217</ele>
<time>2013-08-09T20:11:51Z</time>
</trkpt>
<trkpt lat="37.58262048" lon="-1.200955">
<ele>217</ele>
<time>2013-08-09T20:11:53Z</time>
</trkpt>
<trkpt lat="37.58262053" lon="-1.20095514">
<ele>217</ele>
<time>2013-08-09T20:11:57Z</time>
</trkpt>
<trkpt lat="37.5826205" lon="-1.20095518">
<ele>217</ele>
<time>2013-08-09T20:11:59Z</time>
</trkpt>
<trkpt lat="37.5826206" lon="-1.20095527">
<ele>217</ele>
<time>2013-08-09T20:12:03Z</time>
</trkpt>
<trkpt lat="37.58262066" lon="-1.20095536">
<ele>217</ele>
<time>2013-08-09T20:12:05Z</time>
</trkpt>
<trkpt lat="37.58262068" lon="-1.20095551">
<ele>217</ele>
<time>2013-08-09T20:12:09Z</time>
</trkpt>
<trkpt lat="37.58262072" lon="-1.20095547">
<ele>217</ele>
<time>2013-08-09T20:12:11Z</time>
</trkpt>
<trkpt lat="37.58262048" lon="-1.20095522">
<ele>217</ele>
<time>2013-08-09T20:12:15Z</time>
</trkpt>
<trkpt lat="37.5826204" lon="-1.20095521">
<ele>217</ele>
<time>2013-08-09T20:12:17Z</time>
</trkpt>
<trkpt lat="37.58262034" lon="-1.20095533">
<ele>217</ele>
<time>2013-08-09T20:12:21Z</time>
</trkpt>
<trkpt lat="37.58262035" lon="-1.20095539">
<ele>217</ele>
<time>2013-08-09T20:12:23Z</time>
</trkpt>
<trkpt lat="37.58262038" lon="-1.20095545">
<ele>217</ele>
<time>2013-08-09T20:12:27Z</time>
</trkpt>
<trkpt lat="37.58262036" lon="-1.20095547">
<ele>217</ele>
<time>2013-08-09T20:12:29Z</time>
</trkpt>
<trkpt lat="37.58262037" lon="-1.20095553">
<ele>217</ele>
<time>2013-08-09T20:12:33Z</time>
</trkpt>
<trkpt lat="37.58262039" lon="-1.20095562">
<ele>217</ele>
<time>2013-08-09T20:12:35Z</time>
</trkpt>
<trkpt lat="37.58262047" lon="-1.20095585">
<ele>217</ele>
<time>2013-08-09T20:12:39Z</time>
</trkpt>
<trkpt lat="37.58262057" lon="-1.20095603">
<ele>217</ele>
<time>2013-08-09T20:12:41Z</time>
</trkpt>
<trkpt lat="37.58262071" lon="-1.20095615">
<ele>217</ele>
<time>2013-08-09T20:12:45Z</time>
</trkpt>
<trkpt lat="37.58262064" lon="-1.20095614">
<ele>217</ele>
<time>2013-08-09T20:12:47Z</time>
</trkpt>
<trkpt lat="37.58262039" lon="-1.20095617">
<ele>217</ele>
<time>2013-08-09T20:12:51Z</time>
</trkpt>
<trkpt lat="37.58262036" lon="-1.2009562">
<ele>217</ele>
<time>2013-08-09T20:12:53Z</time>
</trkpt>
<trkpt lat="37.58262034" lon="-1.20095623">
<ele>217</ele>
<time>2013-08-09T20:12:57Z</time>
</trkpt>
<trkpt lat="37.58262047" lon="-1.20095633">
<ele>217</ele>
<time>2013-08-09T20:12:59Z</time>
</trkpt>
<trkpt lat="37.58262061" lon="-1.20095652">
<ele>217</ele>
<time>2013-08-09T20:13:03Z</time>
</trkpt>
<trkpt lat="37.58262077" lon="-1.20095683">
<ele>217</ele>
<time>2013-08-09T20:13:05Z</time>
</trkpt>
<trkpt lat="37.58262095" lon="-1.20095712">
<ele>217</ele>
<time>2013-08-09T20:13:09Z</time>
</trkpt>
<trkpt lat="37.58262105" lon="-1.20095723">
<ele>217</ele>
<time>2013-08-09T20:13:11Z</time>
</trkpt>
<trkpt lat="37.58262128" lon="-1.20095738">
<ele>217</ele>
<time>2013-08-09T20:13:15Z</time>
</trkpt>
<trkpt lat="37.58262138" lon="-1.20095742">
<ele>217</ele>
<time>2013-08-09T20:13:17Z</time>
</trkpt>
<trkpt lat="37.58262711" lon="-1.20097834">
<ele>218</ele>
<time>2013-08-09T20:13:21Z</time>
</trkpt>
<trkpt lat="37.58264064" lon="-1.20100553">
<ele>221</ele>
<time>2013-08-09T20:13:23Z</time>
</trkpt>
<trkpt lat="37.58268008" lon="-1.20102759">
<ele>222</ele>
<time>2013-08-09T20:13:27Z</time>
</trkpt>
<trkpt lat="37.58269321" lon="-1.20103444">
<ele>223</ele>
<time>2013-08-09T20:13:29Z</time>
</trkpt>
<trkpt lat="37.58269304" lon="-1.201041">
<ele>222</ele>
<time>2013-08-09T20:13:33Z</time>
</trkpt>
<trkpt lat="37.58269578" lon="-1.20104672">
<ele>222</ele>
<time>2013-08-09T20:13:35Z</time>
</trkpt>
<trkpt lat="37.58269646" lon="-1.20105371">
<ele>221</ele>
<time>2013-08-09T20:13:39Z</time>
</trkpt>
<trkpt lat="37.58269475" lon="-1.20107024">
<ele>221</ele>
<time>2013-08-09T20:13:41Z</time>
</trkpt>
<trkpt lat="37.58270574" lon="-1.20113927">
<ele>222</ele>
<time>2013-08-09T20:13:45Z</time>
</trkpt>
<trkpt lat="37.58272689" lon="-1.20116939">
<ele>221</ele>
<time>2013-08-09T20:13:47Z</time>
</trkpt>
<trkpt lat="37.58276084" lon="-1.20120808">
<ele>224</ele>
<time>2013-08-09T20:13:51Z</time>
</trkpt>
<trkpt lat="37.58276974" lon="-1.20123392">
<ele>225</ele>
<time>2013-08-09T20:13:53Z</time>
</trkpt>
<trkpt lat="37.58276786" lon="-1.2012799">
<ele>224</ele>
<time>2013-08-09T20:13:57Z</time>
</trkpt>
<trkpt lat="37.58275985" lon="-1.20129255">
<ele>224</ele>
<time>2013-08-09T20:13:59Z</time>
</trkpt>
<trkpt lat="37.58277047" lon="-1.20131848">
<ele>224</ele>
<time>2013-08-09T20:14:03Z</time>
</trkpt>
<trkpt lat="37.58276664" lon="-1.20134456">
<ele>223</ele>
<time>2013-08-09T20:14:05Z</time>
</trkpt>
<trkpt lat="37.58277293" lon="-1.20137501">
<ele>221</ele>
<time>2013-08-09T20:14:09Z</time>
</trkpt>
<trkpt lat="37.58278811" lon="-1.20137284">
<ele>223</ele>
<time>2013-08-09T20:14:11Z</time>
</trkpt>
<trkpt lat="37.58282775" lon="-1.2013827">
<ele>226</ele>
<time>2013-08-09T20:14:15Z</time>
</trkpt>
<trkpt lat="37.5828481" lon="-1.20138341">
<ele>226</ele>
<time>2013-08-09T20:14:17Z</time>
</trkpt>
<trkpt lat="37.58286332" lon="-1.20138855">
<ele>226</ele>
<time>2013-08-09T20:14:21Z</time>
</trkpt>
<trkpt lat="37.58287973" lon="-1.20138313">
<ele>226</ele>
<time>2013-08-09T20:14:23Z</time>
</trkpt>
<trkpt lat="37.58290417" lon="-1.20134703">
<ele>230</ele>
<time>2013-08-09T20:14:27Z</time>
</trkpt>
<trkpt lat="37.58291112" lon="-1.20133589">
<ele>232</ele>
<time>2013-08-09T20:14:29Z</time>
</trkpt>
<trkpt lat="37.58291392" lon="-1.20135631">
<ele>233</ele>
<time>2013-08-09T20:14:33Z</time>
</trkpt>
<trkpt lat="37.58291479" lon="-1.20137035">
<ele>232</ele>
<time>2013-08-09T20:14:35Z</time>
</trkpt>
<trkpt lat="37.5829031" lon="-1.20141364">
<ele>233</ele>
<time>2013-08-09T20:14:39Z</time>
</trkpt>
<trkpt lat="37.58291132" lon="-1.20141852">
<ele>233</ele>
<time>2013-08-09T20:14:41Z</time>
</trkpt>
<trkpt lat="37.58291992" lon="-1.20141148">
<ele>233</ele>
<time>2013-08-09T20:14:45Z</time>
</trkpt>
<trkpt lat="37.58292443" lon="-1.2014065">
<ele>233</ele>
<time>2013-08-09T20:14:47Z</time>
</trkpt>
<trkpt lat="37.58292645" lon="-1.20140553">
<ele>233</ele>
<time>2013-08-09T20:14:51Z</time>
</trkpt>
<trkpt lat="37.58292651" lon="-1.20140507">
<ele>233</ele>
<time>2013-08-09T20:14:53Z</time>
</trkpt>
<trkpt lat="37.58292611" lon="-1.20140535">
<ele>233</ele>
<time>2013-08-09T20:14:57Z</time>
</trkpt>
<trkpt lat="37.58292578" lon="-1.20140684">
<ele>233</ele>
<time>2013-08-09T20:14:59Z</time>
</trkpt>
<trkpt lat="37.5829257" lon="-1.20140772">
<ele>233</ele>
<time>2013-08-09T20:15:03Z</time>
</trkpt>
<trkpt lat="37.58292568" lon="-1.20140788">
<ele>233</ele>
<time>2013-08-09T20:15:05Z</time>
</trkpt>
<trkpt lat="37.58292592" lon="-1.2014078">
<ele>233</ele>
<time>2013-08-09T20:15:09Z</time>
</trkpt>
<trkpt lat="37.58292587" lon="-1.201407">
<ele>233</ele>
<time>2013-08-09T20:15:11Z</time>
</trkpt>
<trkpt lat="37.58293234" lon="-1.20140653">
<ele>233</ele>
<time>2013-08-09T20:15:15Z</time>
</trkpt>
<trkpt lat="37.58295309" lon="-1.20141302">
<ele>234</ele>
<time>2013-08-09T20:15:17Z</time>
</trkpt>
<trkpt lat="37.58299867" lon="-1.20140803">
<ele>239</ele>
<time>2013-08-09T20:15:21Z</time>
</trkpt>
<trkpt lat="37.58302099" lon="-1.20141499">
<ele>240</ele>
<time>2013-08-09T20:15:23Z</time>
</trkpt>
<trkpt lat="37.58305772" lon="-1.20143114">
<ele>241</ele>
<time>2013-08-09T20:15:27Z</time>
</trkpt>
<trkpt lat="37.58307353" lon="-1.2014457">
<ele>240</ele>
<time>2013-08-09T20:15:29Z</time>
</trkpt>
<trkpt lat="37.58308426" lon="-1.20148651">
<ele>240</ele>
<time>2013-08-09T20:15:33Z</time>
</trkpt>
<trkpt lat="37.58308792" lon="-1.20150981">
<ele>239</ele>
<time>2013-08-09T20:15:35Z</time>
</trkpt>
<trkpt lat="37.58311158" lon="-1.20155577">
<ele>239</ele>
<time>2013-08-09T20:15:39Z</time>
</trkpt>
<trkpt lat="37.58312771" lon="-1.20156379">
<ele>239</ele>
<time>2013-08-09T20:15:41Z</time>
</trkpt>
<trkpt lat="37.58314501" lon="-1.20158081">
<ele>240</ele>
<time>2013-08-09T20:15:45Z</time>
</trkpt>
<trkpt lat="37.58313829" lon="-1.20159423">
<ele>238</ele>
<time>2013-08-09T20:15:47Z</time>
</trkpt>
<trkpt lat="37.58312121" lon="-1.20162259">
<ele>241</ele>
<time>2013-08-09T20:15:51Z</time>
</trkpt>
<trkpt lat="37.5831142" lon="-1.20162892">
<ele>240</ele>
<time>2013-08-09T20:15:53Z</time>
</trkpt>
<trkpt lat="37.583086" lon="-1.20163695">
<ele>241</ele>
<time>2013-08-09T20:15:57Z</time>
</trkpt>
<trkpt lat="37.58307013" lon="-1.20161626">
<ele>240</ele>
<time>2013-08-09T20:15:59Z</time>
</trkpt>
<trkpt lat="37.58306802" lon="-1.20161194">
<ele>241</ele>
<time>2013-08-09T20:16:03Z</time>
</trkpt>
<trkpt lat="37.5830794" lon="-1.20160682">
<ele>242</ele>
<time>2013-08-09T20:16:05Z</time>
</trkpt>
<trkpt lat="37.58309967" lon="-1.20161589">
<ele>243</ele>
<time>2013-08-09T20:16:09Z</time>
</trkpt>
<trkpt lat="37.58309995" lon="-1.20161825">
<ele>243</ele>
<time>2013-08-09T20:16:11Z</time>
</trkpt>
<trkpt lat="37.5830983" lon="-1.20162096">
<ele>243</ele>
<time>2013-08-09T20:16:15Z</time>
</trkpt>
<trkpt lat="37.58309784" lon="-1.20162173">
<ele>243</ele>
<time>2013-08-09T20:16:17Z</time>
</trkpt>
<trkpt lat="37.58309698" lon="-1.20162217">
<ele>243</ele>
<time>2013-08-09T20:16:21Z</time>
</trkpt>
<trkpt lat="37.58309736" lon="-1.2016333">
<ele>243</ele>
<time>2013-08-09T20:16:23Z</time>
</trkpt>
<trkpt lat="37.58309619" lon="-1.20167003">
<ele>243</ele>
<time>2013-08-09T20:16:27Z</time>
</trkpt>
<trkpt lat="37.58309511" lon="-1.20168333">
<ele>243</ele>
<time>2013-08-09T20:16:29Z</time>
</trkpt>
<trkpt lat="37.58309717" lon="-1.20169094">
<ele>243</ele>
<time>2013-08-09T20:16:33Z</time>
</trkpt>
<trkpt lat="37.58309795" lon="-1.20169987">
<ele>243</ele>
<time>2013-08-09T20:16:35Z</time>
</trkpt>
<trkpt lat="37.58309501" lon="-1.20170667">
<ele>243</ele>
<time>2013-08-09T20:16:39Z</time>
</trkpt>
<trkpt lat="37.58309333" lon="-1.2017132">
<ele>243</ele>
<time>2013-08-09T20:16:41Z</time>
</trkpt>
<trkpt lat="37.58309268" lon="-1.20172043">
<ele>244</ele>
<time>2013-08-09T20:16:45Z</time>
</trkpt>
<trkpt lat="37.58309292" lon="-1.20172243">
<ele>244</ele>
<time>2013-08-09T20:16:47Z</time>
</trkpt>
<trkpt lat="37.5831003" lon="-1.20174755">
<ele>247</ele>
<time>2013-08-09T20:16:51Z</time>
</trkpt>
<trkpt lat="37.58310087" lon="-1.20177798">
<ele>246</ele>
<time>2013-08-09T20:16:53Z</time>
</trkpt>
<trkpt lat="37.58309369" lon="-1.20181581">
<ele>248</ele>
<time>2013-08-09T20:16:57Z</time>
</trkpt>
<trkpt lat="37.58307901" lon="-1.20183086">
<ele>248</ele>
<time>2013-08-09T20:16:59Z</time>
</trkpt>
<trkpt lat="37.58306171" lon="-1.20186997">
<ele>250</ele>
<time>2013-08-09T20:17:03Z</time>
</trkpt>
<trkpt lat="37.5830562" lon="-1.20188195">
<ele>250</ele>
<time>2013-08-09T20:17:05Z</time>
</trkpt>
<trkpt lat="37.58304983" lon="-1.20191522">
<ele>251</ele>
<time>2013-08-09T20:17:09Z</time>
</trkpt>
<trkpt lat="37.58304946" lon="-1.20193852">
<ele>251</ele>
<time>2013-08-09T20:17:11Z</time>
</trkpt>
<trkpt lat="37.58306504" lon="-1.20196014">
<ele>253</ele>
<time>2013-08-09T20:17:15Z</time>
</trkpt>
<trkpt lat="37.58305432" lon="-1.201966">
<ele>254</ele>
<time>2013-08-09T20:17:17Z</time>
</trkpt>
<trkpt lat="37.58305241" lon="-1.20197168">
<ele>255</ele>
<time>2013-08-09T20:17:21Z</time>
</trkpt>
<trkpt lat="37.58305996" lon="-1.20196522">
<ele>257</ele>
<time>2013-08-09T20:17:23Z</time>
</trkpt>
<trkpt lat="37.58306941" lon="-1.20194811">
<ele>259</ele>
<time>2013-08-09T20:17:27Z</time>
</trkpt>
<trkpt lat="37.5830723" lon="-1.20194694">
<ele>259</ele>
<time>2013-08-09T20:17:29Z</time>
</trkpt>
<trkpt lat="37.58307144" lon="-1.2019478">
<ele>259</ele>
<time>2013-08-09T20:17:33Z</time>
</trkpt>
<trkpt lat="37.5830715" lon="-1.20194835">
<ele>259</ele>
<time>2013-08-09T20:17:35Z</time>
</trkpt>
<trkpt lat="37.58307154" lon="-1.20194907">
<ele>259</ele>
<time>2013-08-09T20:17:39Z</time>
</trkpt>
<trkpt lat="37.58307149" lon="-1.20194906">
<ele>259</ele>
<time>2013-08-09T20:17:41Z</time>
</trkpt>
<trkpt lat="37.58307156" lon="-1.20194915">
<ele>259</ele>
<time>2013-08-09T20:17:45Z</time>
</trkpt>
<trkpt lat="37.58307172" lon="-1.20194959">
<ele>259</ele>
<time>2013-08-09T20:17:47Z</time>
</trkpt>
<trkpt lat="37.5830717" lon="-1.20195015">
<ele>259</ele>
<time>2013-08-09T20:17:51Z</time>
</trkpt>
<trkpt lat="37.58307148" lon="-1.20194996">
<ele>259</ele>
<time>2013-08-09T20:17:53Z</time>
</trkpt>
<trkpt lat="37.58307103" lon="-1.20194962">
<ele>259</ele>
<time>2013-08-09T20:17:57Z</time>
</trkpt>
<trkpt lat="37.583071" lon="-1.20194981">
<ele>259</ele>
<time>2013-08-09T20:17:59Z</time>
</trkpt>
<trkpt lat="37.58307096" lon="-1.20194955">
<ele>259</ele>
<time>2013-08-09T20:18:03Z</time>
</trkpt>
<trkpt lat="37.58307103" lon="-1.20194915">
<ele>260</ele>
<time>2013-08-09T20:18:05Z</time>
</trkpt>
<trkpt lat="37.5830711" lon="-1.20194906">
<ele>260</ele>
<time>2013-08-09T20:18:09Z</time>
</trkpt>
<trkpt lat="37.5830711" lon="-1.20194906">
<ele>260</ele>
<time>2013-08-09T20:18:11Z</time>
</trkpt>
<trkpt lat="37.58309122" lon="-1.20197619">
<ele>261</ele>
<time>2013-08-09T20:18:15Z</time>
</trkpt>
<trkpt lat="37.58310228" lon="-1.20199691">
<ele>265</ele>
<time>2013-08-09T20:18:17Z</time>
</trkpt>
<trkpt lat="37.58312352" lon="-1.20201621">
<ele>265</ele>
<time>2013-08-09T20:18:21Z</time>
</trkpt>
<trkpt lat="37.58312352" lon="-1.20201621">
<ele>265</ele>
<time>2013-08-09T20:18:23Z</time>
</trkpt>
<trkpt lat="37.58312928" lon="-1.20201752">
<ele>267</ele>
<time>2013-08-09T20:18:27Z</time>
</trkpt>
<trkpt lat="37.58313263" lon="-1.20201711">
<ele>268</ele>
<time>2013-08-09T20:18:29Z</time>
</trkpt>
<trkpt lat="37.5831365" lon="-1.20201366">
<ele>268</ele>
<time>2013-08-09T20:18:33Z</time>
</trkpt>
<trkpt lat="37.58313881" lon="-1.20201332">
<ele>269</ele>
<time>2013-08-09T20:18:35Z</time>
</trkpt>
<trkpt lat="37.58313851" lon="-1.20201638">
<ele>270</ele>
<time>2013-08-09T20:18:39Z</time>
</trkpt>
<trkpt lat="37.58313866" lon="-1.20201751">
<ele>270</ele>
<time>2013-08-09T20:18:41Z</time>
</trkpt>
<trkpt lat="37.58313842" lon="-1.20201901">
<ele>270</ele>
<time>2013-08-09T20:18:45Z</time>
</trkpt>
<trkpt lat="37.58313867" lon="-1.2020196">
<ele>270</ele>
<time>2013-08-09T20:18:47Z</time>
</trkpt>
<trkpt lat="37.58313872" lon="-1.20202044">
<ele>270</ele>
<time>2013-08-09T20:18:51Z</time>
</trkpt>
<trkpt lat="37.58313855" lon="-1.20202065">
<ele>270</ele>
<time>2013-08-09T20:18:53Z</time>
</trkpt>
<trkpt lat="37.58313915" lon="-1.20204744">
<ele>271</ele>
<time>2013-08-09T20:18:57Z</time>
</trkpt>
<trkpt lat="37.58314684" lon="-1.20208486">
<ele>271</ele>
<time>2013-08-09T20:18:59Z</time>
</trkpt>
<trkpt lat="37.58316962" lon="-1.20213981">
<ele>268</ele>
<time>2013-08-09T20:19:03Z</time>
</trkpt>
<trkpt lat="37.58317932" lon="-1.20216624">
<ele>268</ele>
<time>2013-08-09T20:19:05Z</time>
</trkpt>
<trkpt lat="37.58318183" lon="-1.20223259">
<ele>270</ele>
<time>2013-08-09T20:19:09Z</time>
</trkpt>
<trkpt lat="37.58317508" lon="-1.20225737">
<ele>272</ele>
<time>2013-08-09T20:19:11Z</time>
</trkpt>
<trkpt lat="37.58315839" lon="-1.20230696">
<ele>276</ele>
<time>2013-08-09T20:19:15Z</time>
</trkpt>
<trkpt lat="37.58314957" lon="-1.20232714">
<ele>280</ele>
<time>2013-08-09T20:19:17Z</time>
</trkpt>
<trkpt lat="37.58311042" lon="-1.20234944">
<ele>284</ele>
<time>2013-08-09T20:19:21Z</time>
</trkpt>
<trkpt lat="37.58312008" lon="-1.20234636">
<ele>282</ele>
<time>2013-08-09T20:19:23Z</time>
</trkpt>
<trkpt lat="37.58312599" lon="-1.20235375">
<ele>283</ele>
<time>2013-08-09T20:19:27Z</time>
</trkpt>
<trkpt lat="37.58312447" lon="-1.20236369">
<ele>287</ele>
<time>2013-08-09T20:19:29Z</time>
</trkpt>
<trkpt lat="37.58313358" lon="-1.20240412">
<ele>290</ele>
<time>2013-08-09T20:19:33Z</time>
</trkpt>
<trkpt lat="37.58314054" lon="-1.20241879">
<ele>290</ele>
<time>2013-08-09T20:19:35Z</time>
</trkpt>
<trkpt lat="37.58312137" lon="-1.20240905">
<ele>290</ele>
<time>2013-08-09T20:19:39Z</time>
</trkpt>
<trkpt lat="37.58313118" lon="-1.20238447">
<ele>291</ele>
<time>2013-08-09T20:19:41Z</time>
</trkpt>
<trkpt lat="37.58314929" lon="-1.20235958">
<ele>293</ele>
<time>2013-08-09T20:19:45Z</time>
</trkpt>
<trkpt lat="37.58315041" lon="-1.2023558">
<ele>293</ele>
<time>2013-08-09T20:19:47Z</time>
</trkpt>
<trkpt lat="37.58315559" lon="-1.20235804">
<ele>293</ele>
<time>2013-08-09T20:19:51Z</time>
</trkpt>
<trkpt lat="37.58315633" lon="-1.20236139">
<ele>293</ele>
<time>2013-08-09T20:19:53Z</time>
</trkpt>
<trkpt lat="37.58315168" lon="-1.20236648">
<ele>294</ele>
<time>2013-08-09T20:19:57Z</time>
</trkpt>
<trkpt lat="37.58315167" lon="-1.20237021">
<ele>293</ele>
<time>2013-08-09T20:19:59Z</time>
</trkpt>
<trkpt lat="37.58315698" lon="-1.20237256">
<ele>293</ele>
<time>2013-08-09T20:20:03Z</time>
</trkpt>
<trkpt lat="37.58315759" lon="-1.20237261">
<ele>293</ele>
<time>2013-08-09T20:20:05Z</time>
</trkpt>
<trkpt lat="37.58315771" lon="-1.20237287">
<ele>293</ele>
<time>2013-08-09T20:20:09Z</time>
</trkpt>
<trkpt lat="37.5831578" lon="-1.20237282">
<ele>293</ele>
<time>2013-08-09T20:20:11Z</time>
</trkpt>
<trkpt lat="37.58315775" lon="-1.20237289">
<ele>293</ele>
<time>2013-08-09T20:20:15Z</time>
</trkpt>
<trkpt lat="37.58315775" lon="-1.20237289">
<ele>293</ele>
<time>2013-08-09T20:20:17Z</time>
</trkpt>
<trkpt lat="37.58315569" lon="-1.20237666">
<ele>293</ele>
<time>2013-08-09T20:20:21Z</time>
</trkpt>
<trkpt lat="37.58315552" lon="-1.20237699">
<ele>293</ele>
<time>2013-08-09T20:20:23Z</time>
</trkpt>
<trkpt lat="37.58315544" lon="-1.20237721">
<ele>293</ele>
<time>2013-08-09T20:20:27Z</time>
</trkpt>
<trkpt lat="37.58315625" lon="-1.20237735">
<ele>293</ele>
<time>2013-08-09T20:20:29Z</time>
</trkpt>
<trkpt lat="37.58315725" lon="-1.20237782">
<ele>293</ele>
<time>2013-08-09T20:20:33Z</time>
</trkpt>
<trkpt lat="37.5831572" lon="-1.20237836">
<ele>293</ele>
<time>2013-08-09T20:20:35Z</time>
</trkpt>
<trkpt lat="37.58315727" lon="-1.2023789">
<ele>293</ele>
<time>2013-08-09T20:20:39Z</time>
</trkpt>
<trkpt lat="37.58315817" lon="-1.20237799">
<ele>293</ele>
<time>2013-08-09T20:20:41Z</time>
</trkpt>
<trkpt lat="37.58315865" lon="-1.20237765">
<ele>293</ele>
<time>2013-08-09T20:20:45Z</time>
</trkpt>
<trkpt lat="37.58315902" lon="-1.20237735">
<ele>293</ele>
<time>2013-08-09T20:20:47Z</time>
</trkpt>
<trkpt lat="37.58315904" lon="-1.20237731">
<ele>293</ele>
<time>2013-08-09T20:20:51Z</time>
</trkpt>
<trkpt lat="37.58315908" lon="-1.20237727">
<ele>293</ele>
<time>2013-08-09T20:20:53Z</time>
</trkpt>
<trkpt lat="37.5831591" lon="-1.2023772">
<ele>293</ele>
<time>2013-08-09T20:20:57Z</time>
</trkpt>
<trkpt lat="37.58315906" lon="-1.2023772">
<ele>293</ele>
<time>2013-08-09T20:20:59Z</time>
</trkpt>
<trkpt lat="37.58315898" lon="-1.20237726">
<ele>293</ele>
<time>2013-08-09T20:21:03Z</time>
</trkpt>
<trkpt lat="37.58315891" lon="-1.20237729">
<ele>293</ele>
<time>2013-08-09T20:21:05Z</time>
</trkpt>
<trkpt lat="37.58315888" lon="-1.20237734">
<ele>293</ele>
<time>2013-08-09T20:21:09Z</time>
</trkpt>
<trkpt lat="37.58315893" lon="-1.20237739">
<ele>293</ele>
<time>2013-08-09T20:21:11Z</time>
</trkpt>
<trkpt lat="37.58315895" lon="-1.2023774">
<ele>293</ele>
<time>2013-08-09T20:21:15Z</time>
</trkpt>
<trkpt lat="37.58315898" lon="-1.20237741">
<ele>293</ele>
<time>2013-08-09T20:21:17Z</time>
</trkpt>
<trkpt lat="37.58318271" lon="-1.20238865">
<ele>293</ele>
<time>2013-08-09T20:21:21Z</time>
</trkpt>
<trkpt lat="37.58319138" lon="-1.20240231">
<ele>294</ele>
<time>2013-08-09T20:21:23Z</time>
</trkpt>
<trkpt lat="37.58320449" lon="-1.20242933">
<ele>298</ele>
<time>2013-08-09T20:21:27Z</time>
</trkpt>
<trkpt lat="37.58320697" lon="-1.20245565">
<ele>298</ele>
<time>2013-08-09T20:21:29Z</time>
</trkpt>
<trkpt lat="37.58320816" lon="-1.20244646">
<ele>300</ele>
<time>2013-08-09T20:21:33Z</time>
</trkpt>
<trkpt lat="37.58320432" lon="-1.20244134">
<ele>300</ele>
<time>2013-08-09T20:21:35Z</time>
</trkpt>
<trkpt lat="37.58320156" lon="-1.20243431">
<ele>302</ele>
<time>2013-08-09T20:21:39Z</time>
</trkpt>
<trkpt lat="37.58320098" lon="-1.20242828">
<ele>301</ele>
<time>2013-08-09T20:21:41Z</time>
</trkpt>
<trkpt lat="37.5832008" lon="-1.20243138">
<ele>302</ele>
<time>2013-08-09T20:21:45Z</time>
</trkpt>
<trkpt lat="37.58320284" lon="-1.20243484">
<ele>302</ele>
<time>2013-08-09T20:21:47Z</time>
</trkpt>
<trkpt lat="37.58319844" lon="-1.20243829">
<ele>302</ele>
<time>2013-08-09T20:21:51Z</time>
</trkpt>
<trkpt lat="37.58319914" lon="-1.2024403">
<ele>302</ele>
<time>2013-08-09T20:21:53Z</time>
</trkpt>
<trkpt lat="37.58320068" lon="-1.20244257">
<ele>302</ele>
<time>2013-08-09T20:21:57Z</time>
</trkpt>
<trkpt lat="37.58320085" lon="-1.20244306">
<ele>302</ele>
<time>2013-08-09T20:21:59Z</time>
</trkpt>
<trkpt lat="37.58320048" lon="-1.20244373">
<ele>302</ele>
<time>2013-08-09T20:22:03Z</time>
</trkpt>
<trkpt lat="37.58320025" lon="-1.20244353">
<ele>302</ele>
<time>2013-08-09T20:22:05Z</time>
</trkpt>
<trkpt lat="37.58320021" lon="-1.20244402">
<ele>302</ele>
<time>2013-08-09T20:22:09Z</time>
</trkpt>
<trkpt lat="37.58319985" lon="-1.20244426">
<ele>302</ele>
<time>2013-08-09T20:22:11Z</time>
</trkpt>
<trkpt lat="37.58319938" lon="-1.20244533">
<ele>302</ele>
<time>2013-08-09T20:22:15Z</time>
</trkpt>
<trkpt lat="37.58319914" lon="-1.20244591">
<ele>302</ele>
<time>2013-08-09T20:22:17Z</time>
</trkpt>
<trkpt lat="37.58319926" lon="-1.20244635">
<ele>302</ele>
<time>2013-08-09T20:22:21Z</time>
</trkpt>
<trkpt lat="37.58319943" lon="-1.20244659">
<ele>302</ele>
<time>2013-08-09T20:22:23Z</time>
</trkpt>
<trkpt lat="37.58319915" lon="-1.20244673">
<ele>302</ele>
<time>2013-08-09T20:22:27Z</time>
</trkpt>
<trkpt lat="37.58319884" lon="-1.20244696">
<ele>302</ele>
<time>2013-08-09T20:22:29Z</time>
</trkpt>
<trkpt lat="37.58319874" lon="-1.20244698">
<ele>302</ele>
<time>2013-08-09T20:22:33Z</time>
</trkpt>
<trkpt lat="37.58319871" lon="-1.20244694">
<ele>302</ele>
<time>2013-08-09T20:22:35Z</time>
</trkpt>
<trkpt lat="37.58319846" lon="-1.20244699">
<ele>302</ele>
<time>2013-08-09T20:22:39Z</time>
</trkpt>
<trkpt lat="37.58319849" lon="-1.20244694">
<ele>302</ele>
<time>2013-08-09T20:22:41Z</time>
</trkpt>
<trkpt lat="37.58319854" lon="-1.20244689">
<ele>302</ele>
<time>2013-08-09T20:22:45Z</time>
</trkpt>
<trkpt lat="37.58319844" lon="-1.20244686">
<ele>302</ele>
<time>2013-08-09T20:22:47Z</time>
</trkpt>
<trkpt lat="37.58319846" lon="-1.20244689">
<ele>302</ele>
<time>2013-08-09T20:22:51Z</time>
</trkpt>
<trkpt lat="37.58319835" lon="-1.20244689">
<ele>302</ele>
<time>2013-08-09T20:22:53Z</time>
</trkpt>
<trkpt lat="37.58319832" lon="-1.20244691">
<ele>302</ele>
<time>2013-08-09T20:22:57Z</time>
</trkpt>
<trkpt lat="37.58319827" lon="-1.20244692">
<ele>302</ele>
<time>2013-08-09T20:22:59Z</time>
</trkpt>
<trkpt lat="37.58319811" lon="-1.20244693">
<ele>302</ele>
<time>2013-08-09T20:23:03Z</time>
</trkpt>
<trkpt lat="37.5831983" lon="-1.2024467">
<ele>302</ele>
<time>2013-08-09T20:23:05Z</time>
</trkpt>
<trkpt lat="37.5831987" lon="-1.20244485">
<ele>302</ele>
<time>2013-08-09T20:23:09Z</time>
</trkpt>
<trkpt lat="37.58319857" lon="-1.20244406">
<ele>302</ele>
<time>2013-08-09T20:23:11Z</time>
</trkpt>
<trkpt lat="37.58319841" lon="-1.20244379">
<ele>302</ele>
<time>2013-08-09T20:23:15Z</time>
</trkpt>
<trkpt lat="37.58319822" lon="-1.20244328">
<ele>302</ele>
<time>2013-08-09T20:23:17Z</time>
</trkpt>
<trkpt lat="37.58320103" lon="-1.20244191">
<ele>302</ele>
<time>2013-08-09T20:23:21Z</time>
</trkpt>
<trkpt lat="37.5832019" lon="-1.20244158">
<ele>302</ele>
<time>2013-08-09T20:23:23Z</time>
</trkpt>
<trkpt lat="37.58320213" lon="-1.20244194">
<ele>302</ele>
<time>2013-08-09T20:23:27Z</time>
</trkpt>
<trkpt lat="37.58320213" lon="-1.20244177">
<ele>302</ele>
<time>2013-08-09T20:23:29Z</time>
</trkpt>
<trkpt lat="37.58320005" lon="-1.20244251">
<ele>303</ele>
<time>2013-08-09T20:23:33Z</time>
</trkpt>
<trkpt lat="37.583199" lon="-1.20244297">
<ele>303</ele>
<time>2013-08-09T20:23:35Z</time>
</trkpt>
<trkpt lat="37.58319803" lon="-1.20244359">
<ele>303</ele>
<time>2013-08-09T20:23:39Z</time>
</trkpt>
<trkpt lat="37.58319803" lon="-1.20244359">
<ele>303</ele>
<time>2013-08-09T20:23:41Z</time>
</trkpt>
<trkpt lat="37.58319716" lon="-1.20244419">
<ele>303</ele>
<time>2013-08-09T20:23:45Z</time>
</trkpt>
<trkpt lat="37.58319666" lon="-1.20244465">
<ele>303</ele>
<time>2013-08-09T20:23:47Z</time>
</trkpt>
<trkpt lat="37.58319659" lon="-1.20244496">
<ele>303</ele>
<time>2013-08-09T20:23:51Z</time>
</trkpt>
<trkpt lat="37.58319661" lon="-1.20244506">
<ele>303</ele>
<time>2013-08-09T20:23:53Z</time>
</trkpt>
<trkpt lat="37.58319717" lon="-1.20244474">
<ele>303</ele>
<time>2013-08-09T20:23:57Z</time>
</trkpt>
<trkpt lat="37.58319811" lon="-1.20244365">
<ele>303</ele>
<time>2013-08-09T20:23:59Z</time>
</trkpt>
<trkpt lat="37.58319939" lon="-1.20244248">
<ele>303</ele>
<time>2013-08-09T20:24:03Z</time>
</trkpt>
<trkpt lat="37.58319954" lon="-1.2024424">
<ele>303</ele>
<time>2013-08-09T20:24:05Z</time>
</trkpt>
<trkpt lat="37.58319992" lon="-1.20244219">
<ele>303</ele>
<time>2013-08-09T20:24:09Z</time>
</trkpt>
<trkpt lat="37.58320027" lon="-1.20244189">
<ele>303</ele>
<time>2013-08-09T20:24:11Z</time>
</trkpt>
<trkpt lat="37.58320081" lon="-1.20244149">
<ele>303</ele>
<time>2013-08-09T20:24:15Z</time>
</trkpt>
<trkpt lat="37.58320092" lon="-1.20244147">
<ele>303</ele>
<time>2013-08-09T20:24:17Z</time>
</trkpt>
<trkpt lat="37.58321577" lon="-1.20246016">
<ele>302</ele>
<time>2013-08-09T20:24:21Z</time>
</trkpt>
<trkpt lat="37.58323066" lon="-1.20247434">
<ele>302</ele>
<time>2013-08-09T20:24:23Z</time>
</trkpt>
<trkpt lat="37.58326502" lon="-1.20248884">
<ele>303</ele>
<time>2013-08-09T20:24:27Z</time>
</trkpt>
<trkpt lat="37.58327919" lon="-1.20248398">
<ele>303</ele>
<time>2013-08-09T20:24:29Z</time>
</trkpt>
<trkpt lat="37.58329248" lon="-1.20247142">
<ele>301</ele>
<time>2013-08-09T20:24:33Z</time>
</trkpt>
<trkpt lat="37.58329874" lon="-1.20246969">
<ele>301</ele>
<time>2013-08-09T20:24:35Z</time>
</trkpt>
<trkpt lat="37.58330576" lon="-1.20246729">
<ele>302</ele>
<time>2013-08-09T20:24:39Z</time>
</trkpt>
<trkpt lat="37.58331017" lon="-1.20246698">
<ele>302</ele>
<time>2013-08-09T20:24:41Z</time>
</trkpt>
<trkpt lat="37.58331355" lon="-1.20246723">
<ele>302</ele>
<time>2013-08-09T20:24:45Z</time>
</trkpt>
<trkpt lat="37.58331337" lon="-1.20246793">
<ele>302</ele>
<time>2013-08-09T20:24:47Z</time>
</trkpt>
<trkpt lat="37.58331378" lon="-1.20246807">
<ele>302</ele>
<time>2013-08-09T20:24:51Z</time>
</trkpt>
<trkpt lat="37.58331359" lon="-1.20246763">
<ele>302</ele>
<time>2013-08-09T20:24:53Z</time>
</trkpt>
<trkpt lat="37.58331374" lon="-1.20246724">
<ele>302</ele>
<time>2013-08-09T20:24:57Z</time>
</trkpt>
<trkpt lat="37.58331374" lon="-1.20246724">
<ele>302</ele>
<time>2013-08-09T20:24:59Z</time>
</trkpt>
<trkpt lat="37.58331607" lon="-1.20246948">
<ele>302</ele>
<time>2013-08-09T20:25:03Z</time>
</trkpt>
<trkpt lat="37.58331607" lon="-1.20246948">
<ele>302</ele>
<time>2013-08-09T20:25:05Z</time>
</trkpt>
<trkpt lat="37.58331782" lon="-1.20247057">
<ele>302</ele>
<time>2013-08-09T20:25:09Z</time>
</trkpt>
<trkpt lat="37.58331833" lon="-1.20247098">
<ele>302</ele>
<time>2013-08-09T20:25:11Z</time>
</trkpt>
<trkpt lat="37.58331877" lon="-1.2024712">
<ele>302</ele>
<time>2013-08-09T20:25:15Z</time>
</trkpt>
<trkpt lat="37.58331897" lon="-1.20247124">
<ele>302</ele>
<time>2013-08-09T20:25:17Z</time>
</trkpt>
<trkpt lat="37.58331924" lon="-1.20247121">
<ele>302</ele>
<time>2013-08-09T20:25:21Z</time>
</trkpt>
<trkpt lat="37.58331944" lon="-1.20247124">
<ele>302</ele>
<time>2013-08-09T20:25:23Z</time>
</trkpt>
<trkpt lat="37.58330745" lon="-1.20246039">
<ele>304</ele>
<time>2013-08-09T20:25:27Z</time>
</trkpt>
<trkpt lat="37.58330389" lon="-1.20246584">
<ele>306</ele>
<time>2013-08-09T20:25:29Z</time>
</trkpt>
<trkpt lat="37.58330674" lon="-1.20246513">
<ele>309</ele>
<time>2013-08-09T20:25:33Z</time>
</trkpt>
<trkpt lat="37.58332894" lon="-1.20246672">
<ele>309</ele>
<time>2013-08-09T20:25:35Z</time>
</trkpt>
<trkpt lat="37.58341974" lon="-1.20246441">
<ele>312</ele>
<time>2013-08-09T20:25:39Z</time>
</trkpt>
<trkpt lat="37.58344846" lon="-1.20245388">
<ele>314</ele>
<time>2013-08-09T20:25:41Z</time>
</trkpt>
<trkpt lat="37.58346577" lon="-1.20244449">
<ele>314</ele>
<time>2013-08-09T20:25:45Z</time>
</trkpt>
<trkpt lat="37.58346577" lon="-1.20244449">
<ele>314</ele>
<time>2013-08-09T20:25:47Z</time>
</trkpt>
<trkpt lat="37.58346803" lon="-1.20244623">
<ele>315</ele>
<time>2013-08-09T20:25:51Z</time>
</trkpt>
<trkpt lat="37.58346803" lon="-1.20244623">
<ele>315</ele>
<time>2013-08-09T20:25:53Z</time>
</trkpt>
<trkpt lat="37.583468" lon="-1.2024511">
<ele>315</ele>
<time>2013-08-09T20:25:57Z</time>
</trkpt>
<trkpt lat="37.58346773" lon="-1.20245216">
<ele>315</ele>
<time>2013-08-09T20:25:59Z</time>
</trkpt>
<trkpt lat="37.58346695" lon="-1.20245411">
<ele>315</ele>
<time>2013-08-09T20:26:03Z</time>
</trkpt>
<trkpt lat="37.58346699" lon="-1.20245426">
<ele>315</ele>
<time>2013-08-09T20:26:05Z</time>
</trkpt>
<trkpt lat="37.58346667" lon="-1.20245408">
<ele>315</ele>
<time>2013-08-09T20:26:09Z</time>
</trkpt>
<trkpt lat="37.58346678" lon="-1.20245377">
<ele>315</ele>
<time>2013-08-09T20:26:11Z</time>
</trkpt>
<trkpt lat="37.5834693" lon="-1.20245411">
<ele>315</ele>
<time>2013-08-09T20:26:15Z</time>
</trkpt>
<trkpt lat="37.58347055" lon="-1.20245432">
<ele>315</ele>
<time>2013-08-09T20:26:17Z</time>
</trkpt>
<trkpt lat="37.5834716" lon="-1.20245453">
<ele>315</ele>
<time>2013-08-09T20:26:21Z</time>
</trkpt>
<trkpt lat="37.58347172" lon="-1.20245457">
<ele>315</ele>
<time>2013-08-09T20:26:23Z</time>
</trkpt>
<trkpt lat="37.58347147" lon="-1.20245452">
<ele>315</ele>
<time>2013-08-09T20:26:27Z</time>
</trkpt>
<trkpt lat="37.58347117" lon="-1.2024546">
<ele>315</ele>
<time>2013-08-09T20:26:29Z</time>
</trkpt>
<trkpt lat="37.5834715" lon="-1.20245454">
<ele>315</ele>
<time>2013-08-09T20:26:33Z</time>
</trkpt>
<trkpt lat="37.58347159" lon="-1.2024544">
<ele>315</ele>
<time>2013-08-09T20:26:35Z</time>
</trkpt>
<trkpt lat="37.58347199" lon="-1.20245422">
<ele>315</ele>
<time>2013-08-09T20:26:39Z</time>
</trkpt>
<trkpt lat="37.58347207" lon="-1.20245433">
<ele>315</ele>
<time>2013-08-09T20:26:41Z</time>
</trkpt>
<trkpt lat="37.58347217" lon="-1.20245462">
<ele>315</ele>
<time>2013-08-09T20:26:45Z</time>
</trkpt>
<trkpt lat="37.58347217" lon="-1.20245462">
<ele>315</ele>
<time>2013-08-09T20:26:47Z</time>
</trkpt>
<trkpt lat="37.58347243" lon="-1.20245473">
<ele>315</ele>
<time>2013-08-09T20:26:51Z</time>
</trkpt>
<trkpt lat="37.5834716" lon="-1.20245477">
<ele>315</ele>
<time>2013-08-09T20:26:53Z</time>
</trkpt>
<trkpt lat="37.58347103" lon="-1.20245493">
<ele>315</ele>
<time>2013-08-09T20:26:57Z</time>
</trkpt>
<trkpt lat="37.58347094" lon="-1.20245496">
<ele>315</ele>
<time>2013-08-09T20:26:59Z</time>
</trkpt>
<trkpt lat="37.58347038" lon="-1.20247196">
<ele>315</ele>
<time>2013-08-09T20:27:03Z</time>
</trkpt>
<trkpt lat="37.58347228" lon="-1.20251771">
<ele>318</ele>
<time>2013-08-09T20:27:05Z</time>
</trkpt>
<trkpt lat="37.58348334" lon="-1.20260094">
<ele>319</ele>
<time>2013-08-09T20:27:09Z</time>
</trkpt>
<trkpt lat="37.58348727" lon="-1.20263107">
<ele>321</ele>
<time>2013-08-09T20:27:11Z</time>
</trkpt>
<trkpt lat="37.58349092" lon="-1.20268004">
<ele>322</ele>
<time>2013-08-09T20:27:15Z</time>
</trkpt>
<trkpt lat="37.58351152" lon="-1.20271668">
<ele>327</ele>
<time>2013-08-09T20:27:17Z</time>
</trkpt>
<trkpt lat="37.58354875" lon="-1.20268493">
<ele>344</ele>
<time>2013-08-09T20:27:21Z</time>
</trkpt>
<trkpt lat="37.58354726" lon="-1.20268119">
<ele>344</ele>
<time>2013-08-09T20:27:23Z</time>
</trkpt>
<trkpt lat="37.58353998" lon="-1.20269824">
<ele>343</ele>
<time>2013-08-09T20:27:27Z</time>
</trkpt>
<trkpt lat="37.58353852" lon="-1.20270527">
<ele>342</ele>
<time>2013-08-09T20:27:29Z</time>
</trkpt>
<trkpt lat="37.58353897" lon="-1.20271028">
<ele>341</ele>
<time>2013-08-09T20:27:33Z</time>
</trkpt>
<trkpt lat="37.58353897" lon="-1.20271028">
<ele>341</ele>
<time>2013-08-09T20:27:35Z</time>
</trkpt>
<trkpt lat="37.58353915" lon="-1.20271084">
<ele>341</ele>
<time>2013-08-09T20:27:39Z</time>
</trkpt>
<trkpt lat="37.58353907" lon="-1.20271087">
<ele>341</ele>
<time>2013-08-09T20:27:41Z</time>
</trkpt>
<trkpt lat="37.58353904" lon="-1.20271089">
<ele>341</ele>
<time>2013-08-09T20:27:45Z</time>
</trkpt>
<trkpt lat="37.58353897" lon="-1.20271115">
<ele>341</ele>
<time>2013-08-09T20:27:47Z</time>
</trkpt>
<trkpt lat="37.5835274" lon="-1.20272477">
<ele>341</ele>
<time>2013-08-09T20:27:51Z</time>
</trkpt>
<trkpt lat="37.58352153" lon="-1.20275095">
<ele>341</ele>
<time>2013-08-09T20:27:53Z</time>
</trkpt>
<trkpt lat="37.58352903" lon="-1.20277916">
<ele>339</ele>
<time>2013-08-09T20:27:57Z</time>
</trkpt>
<trkpt lat="37.58355377" lon="-1.20282544">
<ele>337</ele>
<time>2013-08-09T20:27:59Z</time>
</trkpt>
<trkpt lat="37.58358269" lon="-1.2028423">
<ele>336</ele>
<time>2013-08-09T20:28:03Z</time>
</trkpt>
<trkpt lat="37.58357448" lon="-1.20284299">
<ele>335</ele>
<time>2013-08-09T20:28:05Z</time>
</trkpt>
<trkpt lat="37.58357537" lon="-1.20284205">
<ele>334</ele>
<time>2013-08-09T20:28:09Z</time>
</trkpt>
<trkpt lat="37.58357397" lon="-1.20283794">
<ele>335</ele>
<time>2013-08-09T20:28:11Z</time>
</trkpt>
<trkpt lat="37.58357046" lon="-1.20281668">
<ele>335</ele>
<time>2013-08-09T20:28:15Z</time>
</trkpt>
<trkpt lat="37.58358082" lon="-1.20280859">
<ele>337</ele>
<time>2013-08-09T20:28:17Z</time>
</trkpt>
<trkpt lat="37.58359804" lon="-1.20274522">
<ele>347</ele>
<time>2013-08-09T20:28:21Z</time>
</trkpt>
<trkpt lat="37.58360262" lon="-1.20269724">
<ele>349</ele>
<time>2013-08-09T20:28:23Z</time>
</trkpt>
<trkpt lat="37.58363092" lon="-1.20259183">
<ele>348</ele>
<time>2013-08-09T20:28:27Z</time>
</trkpt>
<trkpt lat="37.58363014" lon="-1.20254706">
<ele>350</ele>
<time>2013-08-09T20:28:29Z</time>
</trkpt>
<trkpt lat="37.58363818" lon="-1.20253966">
<ele>351</ele>
<time>2013-08-09T20:28:33Z</time>
</trkpt>
<trkpt lat="37.5836373" lon="-1.20253775">
<ele>351</ele>
<time>2013-08-09T20:28:35Z</time>
</trkpt>
<trkpt lat="37.58363875" lon="-1.20253112">
<ele>350</ele>
<time>2013-08-09T20:28:39Z</time>
</trkpt>
<trkpt lat="37.5836404" lon="-1.20253566">
<ele>350</ele>
<time>2013-08-09T20:28:41Z</time>
</trkpt>
<trkpt lat="37.58364094" lon="-1.20253762">
<ele>350</ele>
<time>2013-08-09T20:28:45Z</time>
</trkpt>
<trkpt lat="37.58364121" lon="-1.20253797">
<ele>350</ele>
<time>2013-08-09T20:28:47Z</time>
</trkpt>
<trkpt lat="37.58364163" lon="-1.20253839">
<ele>350</ele>
<time>2013-08-09T20:28:51Z</time>
</trkpt>
<trkpt lat="37.5836417" lon="-1.20253848">
<ele>350</ele>
<time>2013-08-09T20:28:53Z</time>
</trkpt>
<trkpt lat="37.58364012" lon="-1.20253815">
<ele>351</ele>
<time>2013-08-09T20:28:57Z</time>
</trkpt>
<trkpt lat="37.58363979" lon="-1.20253812">
<ele>351</ele>
<time>2013-08-09T20:28:59Z</time>
</trkpt>
<trkpt lat="37.58363954" lon="-1.202538">
<ele>351</ele>
<time>2013-08-09T20:29:03Z</time>
</trkpt>
<trkpt lat="37.58363937" lon="-1.2025372">
<ele>351</ele>
<time>2013-08-09T20:29:05Z</time>
</trkpt>
<trkpt lat="37.58363926" lon="-1.20253659">
<ele>351</ele>
<time>2013-08-09T20:29:09Z</time>
</trkpt>
<trkpt lat="37.58363872" lon="-1.20253704">
<ele>351</ele>
<time>2013-08-09T20:29:11Z</time>
</trkpt>
<trkpt lat="37.58363847" lon="-1.2025379">
<ele>351</ele>
<time>2013-08-09T20:29:15Z</time>
</trkpt>
<trkpt lat="37.58363859" lon="-1.20253791">
<ele>351</ele>
<time>2013-08-09T20:29:17Z</time>
</trkpt>
<trkpt lat="37.58363871" lon="-1.20253797">
<ele>351</ele>
<time>2013-08-09T20:29:21Z</time>
</trkpt>
<trkpt lat="37.58363888" lon="-1.20253801">
<ele>351</ele>
<time>2013-08-09T20:29:23Z</time>
</trkpt>
<trkpt lat="37.58363959" lon="-1.20253846">
<ele>351</ele>
<time>2013-08-09T20:29:27Z</time>
</trkpt>
<trkpt lat="37.58366771" lon="-1.20252407">
<ele>350</ele>
<time>2013-08-09T20:29:29Z</time>
</trkpt>
<trkpt lat="37.58367222" lon="-1.20250744">
<ele>348</ele>
<time>2013-08-09T20:29:33Z</time>
</trkpt>
<trkpt lat="37.58366083" lon="-1.20248413">
<ele>345</ele>
<time>2013-08-09T20:29:35Z</time>
</trkpt>
<trkpt lat="37.58365756" lon="-1.20245144">
<ele>344</ele>
<time>2013-08-09T20:29:39Z</time>
</trkpt>
<trkpt lat="37.58365537" lon="-1.20243359">
<ele>344</ele>
<time>2013-08-09T20:29:41Z</time>
</trkpt>
<trkpt lat="37.58364957" lon="-1.20238931">
<ele>348</ele>
<time>2013-08-09T20:29:45Z</time>
</trkpt>
<trkpt lat="37.58365606" lon="-1.20237688">
<ele>347</ele>
<time>2013-08-09T20:29:47Z</time>
</trkpt>
<trkpt lat="37.58372266" lon="-1.20241535">
<ele>351</ele>
<time>2013-08-09T20:29:51Z</time>
</trkpt>
<trkpt lat="37.5837469" lon="-1.20245941">
<ele>348</ele>
<time>2013-08-09T20:29:53Z</time>
</trkpt>
<trkpt lat="37.58376745" lon="-1.20252319">
<ele>348</ele>
<time>2013-08-09T20:29:57Z</time>
</trkpt>
<trkpt lat="37.58376993" lon="-1.20255014">
<ele>348</ele>
<time>2013-08-09T20:29:59Z</time>
</trkpt>
<trkpt lat="37.58378951" lon="-1.20259385">
<ele>349</ele>
<time>2013-08-09T20:30:03Z</time>
</trkpt>
<trkpt lat="37.58379665" lon="-1.2025951">
<ele>349</ele>
<time>2013-08-09T20:30:05Z</time>
</trkpt>
<trkpt lat="37.58379348" lon="-1.20259122">
<ele>350</ele>
<time>2013-08-09T20:30:09Z</time>
</trkpt>
<trkpt lat="37.5837892" lon="-1.20258527">
<ele>349</ele>
<time>2013-08-09T20:30:11Z</time>
</trkpt>
<trkpt lat="37.58379992" lon="-1.20254638">
<ele>355</ele>
<time>2013-08-09T20:30:15Z</time>
</trkpt>
<trkpt lat="37.58378393" lon="-1.20254271">
<ele>360</ele>
<time>2013-08-09T20:30:17Z</time>
</trkpt>
<trkpt lat="37.58377338" lon="-1.20255343">
<ele>357</ele>
<time>2013-08-09T20:30:21Z</time>
</trkpt>
<trkpt lat="37.58375658" lon="-1.20255603">
<ele>356</ele>
<time>2013-08-09T20:30:24Z</time>
</trkpt>
<trkpt lat="37.58375395" lon="-1.20255599">
<ele>355</ele>
<time>2013-08-09T20:30:28Z</time>
</trkpt>
<trkpt lat="37.58375335" lon="-1.20255593">
<ele>355</ele>
<time>2013-08-09T20:30:30Z</time>
</trkpt>
<trkpt lat="37.58375254" lon="-1.20255597">
<ele>355</ele>
<time>2013-08-09T20:30:34Z</time>
</trkpt>
<trkpt lat="37.58375035" lon="-1.20255816">
<ele>355</ele>
<time>2013-08-09T20:30:36Z</time>
</trkpt>
<trkpt lat="37.58375156" lon="-1.20257238">
<ele>348</ele>
<time>2013-08-09T20:30:40Z</time>
</trkpt>
<trkpt lat="37.58374729" lon="-1.2025751">
<ele>348</ele>
<time>2013-08-09T20:30:42Z</time>
</trkpt>
<trkpt lat="37.58373387" lon="-1.20258409">
<ele>346</ele>
<time>2013-08-09T20:30:46Z</time>
</trkpt>
<trkpt lat="37.58373414" lon="-1.2025924">
<ele>344</ele>
<time>2013-08-09T20:30:48Z</time>
</trkpt>
<trkpt lat="37.58373371" lon="-1.20259759">
<ele>341</ele>
<time>2013-08-09T20:30:52Z</time>
</trkpt>
<trkpt lat="37.58373256" lon="-1.20259703">
<ele>340</ele>
<time>2013-08-09T20:30:54Z</time>
</trkpt>
<trkpt lat="37.5837337" lon="-1.20259623">
<ele>340</ele>
<time>2013-08-09T20:30:58Z</time>
</trkpt>
<trkpt lat="37.5837341" lon="-1.20259709">
<ele>340</ele>
<time>2013-08-09T20:31:00Z</time>
</trkpt>
<trkpt lat="37.58373473" lon="-1.20259631">
<ele>340</ele>
<time>2013-08-09T20:31:04Z</time>
</trkpt>
<trkpt lat="37.58373535" lon="-1.20259688">
<ele>340</ele>
<time>2013-08-09T20:31:06Z</time>
</trkpt>
<trkpt lat="37.5837358" lon="-1.20259747">
<ele>340</ele>
<time>2013-08-09T20:31:10Z</time>
</trkpt>
<trkpt lat="37.58373606" lon="-1.20259788">
<ele>340</ele>
<time>2013-08-09T20:31:12Z</time>
</trkpt>
<trkpt lat="37.58373625" lon="-1.20259829">
<ele>340</ele>
<time>2013-08-09T20:31:16Z</time>
</trkpt>
<trkpt lat="37.5837363" lon="-1.20259837">
<ele>340</ele>
<time>2013-08-09T20:31:18Z</time>
</trkpt>
<trkpt lat="37.58373632" lon="-1.20259848">
<ele>340</ele>
<time>2013-08-09T20:31:22Z</time>
</trkpt>
<trkpt lat="37.58373642" lon="-1.20259843">
<ele>340</ele>
<time>2013-08-09T20:31:24Z</time>
</trkpt>
<trkpt lat="37.58373654" lon="-1.20259842">
<ele>340</ele>
<time>2013-08-09T20:31:28Z</time>
</trkpt>
<trkpt lat="37.58373654" lon="-1.20259841">
<ele>340</ele>
<time>2013-08-09T20:31:30Z</time>
</trkpt>
<trkpt lat="37.5837365" lon="-1.20259842">
<ele>340</ele>
<time>2013-08-09T20:31:34Z</time>
</trkpt>
<trkpt lat="37.58373512" lon="-1.20260016">
<ele>340</ele>
<time>2013-08-09T20:31:36Z</time>
</trkpt>
<trkpt lat="37.58371787" lon="-1.20260724">
<ele>336</ele>
<time>2013-08-09T20:31:40Z</time>
</trkpt>
<trkpt lat="37.58371742" lon="-1.20260873">
<ele>336</ele>
<time>2013-08-09T20:31:42Z</time>
</trkpt>
<trkpt lat="37.58371325" lon="-1.20261568">
<ele>335</ele>
<time>2013-08-09T20:31:46Z</time>
</trkpt>
<trkpt lat="37.58371318" lon="-1.20261885">
<ele>335</ele>
<time>2013-08-09T20:31:48Z</time>
</trkpt>
<trkpt lat="37.5837089" lon="-1.20262364">
<ele>335</ele>
<time>2013-08-09T20:31:52Z</time>
</trkpt>
<trkpt lat="37.58370905" lon="-1.20262802">
<ele>335</ele>
<time>2013-08-09T20:31:54Z</time>
</trkpt>
<trkpt lat="37.5837089" lon="-1.20263463">
<ele>335</ele>
<time>2013-08-09T20:31:58Z</time>
</trkpt>
<trkpt lat="37.58370892" lon="-1.20263664">
<ele>334</ele>
<time>2013-08-09T20:32:00Z</time>
</trkpt>
<trkpt lat="37.58370907" lon="-1.2026386">
<ele>334</ele>
<time>2013-08-09T20:32:04Z</time>
</trkpt>
<trkpt lat="37.58370924" lon="-1.20263916">
<ele>334</ele>
<time>2013-08-09T20:32:06Z</time>
</trkpt>
<trkpt lat="37.58370943" lon="-1.20263963">
<ele>334</ele>
<time>2013-08-09T20:32:10Z</time>
</trkpt>
<trkpt lat="37.58370943" lon="-1.20263985">
<ele>334</ele>
<time>2013-08-09T20:32:12Z</time>
</trkpt>
<trkpt lat="37.58370944" lon="-1.20263984">
<ele>334</ele>
<time>2013-08-09T20:32:16Z</time>
</trkpt>
<trkpt lat="37.58370944" lon="-1.20263981">
<ele>334</ele>
<time>2013-08-09T20:32:18Z</time>
</trkpt>
<trkpt lat="37.58370943" lon="-1.20263974">
<ele>334</ele>
<time>2013-08-09T20:32:22Z</time>
</trkpt>
<trkpt lat="37.58370942" lon="-1.20263982">
<ele>334</ele>
<time>2013-08-09T20:32:24Z</time>
</trkpt>
<trkpt lat="37.58370937" lon="-1.20263991">
<ele>334</ele>
<time>2013-08-09T20:32:28Z</time>
</trkpt>
<trkpt lat="37.58370935" lon="-1.20263993">
<ele>334</ele>
<time>2013-08-09T20:32:30Z</time>
</trkpt>
<trkpt lat="37.58370935" lon="-1.20263992">
<ele>334</ele>
<time>2013-08-09T20:32:34Z</time>
</trkpt>
<trkpt lat="37.58370937" lon="-1.20263991">
<ele>334</ele>
<time>2013-08-09T20:32:36Z</time>
</trkpt>
<trkpt lat="37.58370938" lon="-1.2026399">
<ele>334</ele>
<time>2013-08-09T20:32:40Z</time>
</trkpt>
<trkpt lat="37.58370939" lon="-1.20263991">
<ele>334</ele>
<time>2013-08-09T20:32:42Z</time>
</trkpt>
<trkpt lat="37.58370936" lon="-1.2026399">
<ele>334</ele>
<time>2013-08-09T20:32:46Z</time>
</trkpt>
<trkpt lat="37.58370934" lon="-1.20263991">
<ele>334</ele>
<time>2013-08-09T20:32:48Z</time>
</trkpt>
<trkpt lat="37.58370935" lon="-1.20263996">
<ele>334</ele>
<time>2013-08-09T20:32:52Z</time>
</trkpt>
<trkpt lat="37.58370941" lon="-1.20263991">
<ele>334</ele>
<time>2013-08-09T20:32:54Z</time>
</trkpt>
<trkpt lat="37.58370948" lon="-1.20263982">
<ele>334</ele>
<time>2013-08-09T20:32:58Z</time>
</trkpt>
<trkpt lat="37.58370948" lon="-1.20263981">
<ele>334</ele>
<time>2013-08-09T20:33:00Z</time>
</trkpt>
<trkpt lat="37.58370953" lon="-1.2026398">
<ele>334</ele>
<time>2013-08-09T20:33:04Z</time>
</trkpt>
<trkpt lat="37.58370957" lon="-1.20263981">
<ele>334</ele>
<time>2013-08-09T20:33:06Z</time>
</trkpt>
<trkpt lat="37.58370963" lon="-1.20263984">
<ele>334</ele>
<time>2013-08-09T20:33:10Z</time>
</trkpt>
<trkpt lat="37.58370964" lon="-1.20263984">
<ele>334</ele>
<time>2013-08-09T20:33:12Z</time>
</trkpt>
<trkpt lat="37.58370967" lon="-1.20263985">
<ele>334</ele>
<time>2013-08-09T20:33:16Z</time>
</trkpt>
<trkpt lat="37.58370967" lon="-1.20263986">
<ele>334</ele>
<time>2013-08-09T20:33:18Z</time>
</trkpt>
<trkpt lat="37.58370974" lon="-1.20263984">
<ele>334</ele>
<time>2013-08-09T20:33:22Z</time>
</trkpt>
<trkpt lat="37.58370971" lon="-1.20263988">
<ele>334</ele>
<time>2013-08-09T20:33:24Z</time>
</trkpt>
<trkpt lat="37.58370967" lon="-1.20263991">
<ele>334</ele>
<time>2013-08-09T20:33:28Z</time>
</trkpt>
<trkpt lat="37.58370968" lon="-1.20263991">
<ele>334</ele>
<time>2013-08-09T20:33:30Z</time>
</trkpt>
<trkpt lat="37.58370971" lon="-1.20263991">
<ele>334</ele>
<time>2013-08-09T20:33:34Z</time>
</trkpt>
<trkpt lat="37.58370972" lon="-1.20263993">
<ele>334</ele>
<time>2013-08-09T20:33:36Z</time>
</trkpt>
<trkpt lat="37.58370972" lon="-1.20263992">
<ele>334</ele>
<time>2013-08-09T20:33:40Z</time>
</trkpt>
<trkpt lat="37.58370971" lon="-1.20263991">
<ele>335</ele>
<time>2013-08-09T20:33:42Z</time>
</trkpt>
<trkpt lat="37.58370971" lon="-1.20263987">
<ele>335</ele>
<time>2013-08-09T20:33:46Z</time>
</trkpt>
<trkpt lat="37.58370973" lon="-1.20263988">
<ele>334</ele>
<time>2013-08-09T20:33:48Z</time>
</trkpt>
<trkpt lat="37.58370978" lon="-1.20263985">
<ele>334</ele>
<time>2013-08-09T20:33:52Z</time>
</trkpt>
<trkpt lat="37.58370978" lon="-1.20263984">
<ele>334</ele>
<time>2013-08-09T20:33:54Z</time>
</trkpt>
<trkpt lat="37.58370982" lon="-1.20263988">
<ele>334</ele>
<time>2013-08-09T20:33:58Z</time>
</trkpt>
<trkpt lat="37.58370985" lon="-1.20263991">
<ele>334</ele>
<time>2013-08-09T20:34:00Z</time>
</trkpt>
<trkpt lat="37.5837099" lon="-1.20263987">
<ele>334</ele>
<time>2013-08-09T20:34:04Z</time>
</trkpt>
<trkpt lat="37.58370994" lon="-1.20263982">
<ele>334</ele>
<time>2013-08-09T20:34:06Z</time>
</trkpt>
<trkpt lat="37.58370999" lon="-1.20263971">
<ele>334</ele>
<time>2013-08-09T20:34:10Z</time>
</trkpt>
<trkpt lat="37.58371003" lon="-1.20263971">
<ele>334</ele>
<time>2013-08-09T20:34:12Z</time>
</trkpt>
<trkpt lat="37.58371002" lon="-1.20263975">
<ele>334</ele>
<time>2013-08-09T20:34:16Z</time>
</trkpt>
<trkpt lat="37.58371005" lon="-1.20263975">
<ele>334</ele>
<time>2013-08-09T20:34:18Z</time>
</trkpt>
<trkpt lat="37.58371007" lon="-1.20263971">
<ele>334</ele>
<time>2013-08-09T20:34:22Z</time>
</trkpt>
<trkpt lat="37.58371007" lon="-1.2026397">
<ele>334</ele>
<time>2013-08-09T20:34:24Z</time>
</trkpt>
<trkpt lat="37.58371005" lon="-1.2026397">
<ele>334</ele>
<time>2013-08-09T20:34:28Z</time>
</trkpt>
<trkpt lat="37.58371008" lon="-1.20263968">
<ele>334</ele>
<time>2013-08-09T20:34:30Z</time>
</trkpt>
<trkpt lat="37.58371012" lon="-1.20263964">
<ele>334</ele>
<time>2013-08-09T20:34:34Z</time>
</trkpt>
<trkpt lat="37.58371015" lon="-1.20263962">
<ele>334</ele>
<time>2013-08-09T20:34:36Z</time>
</trkpt>
<trkpt lat="37.58371008" lon="-1.20263963">
<ele>335</ele>
<time>2013-08-09T20:34:40Z</time>
</trkpt>
<trkpt lat="37.58371008" lon="-1.20263962">
<ele>335</ele>
<time>2013-08-09T20:34:42Z</time>
</trkpt>
<trkpt lat="37.58371008" lon="-1.20263967">
<ele>335</ele>
<time>2013-08-09T20:34:46Z</time>
</trkpt>
<trkpt lat="37.58371013" lon="-1.20263968">
<ele>335</ele>
<time>2013-08-09T20:34:48Z</time>
</trkpt>
<trkpt lat="37.58371022" lon="-1.20263963">
<ele>334</ele>
<time>2013-08-09T20:34:52Z</time>
</trkpt>
<trkpt lat="37.58371024" lon="-1.2026396">
<ele>334</ele>
<time>2013-08-09T20:34:54Z</time>
</trkpt>
<trkpt lat="37.58371028" lon="-1.20263965">
<ele>334</ele>
<time>2013-08-09T20:34:58Z</time>
</trkpt>
<trkpt lat="37.58371029" lon="-1.20263966">
<ele>334</ele>
<time>2013-08-09T20:35:00Z</time>
</trkpt>
<trkpt lat="37.58371031" lon="-1.20263969">
<ele>334</ele>
<time>2013-08-09T20:35:04Z</time>
</trkpt>
<trkpt lat="37.58371032" lon="-1.20263969">
<ele>334</ele>
<time>2013-08-09T20:35:06Z</time>
</trkpt>
<trkpt lat="37.58371032" lon="-1.20263967">
<ele>335</ele>
<time>2013-08-09T20:35:10Z</time>
</trkpt>
<trkpt lat="37.58371034" lon="-1.20263966">
<ele>335</ele>
<time>2013-08-09T20:35:12Z</time>
</trkpt>
<trkpt lat="37.58371037" lon="-1.20263965">
<ele>335</ele>
<time>2013-08-09T20:35:16Z</time>
</trkpt>
<trkpt lat="37.58371036" lon="-1.20263968">
<ele>335</ele>
<time>2013-08-09T20:35:18Z</time>
</trkpt>
<trkpt lat="37.58371044" lon="-1.20263973">
<ele>335</ele>
<time>2013-08-09T20:35:22Z</time>
</trkpt>
<trkpt lat="37.58371044" lon="-1.20263973">
<ele>335</ele>
<time>2013-08-09T20:35:24Z</time>
</trkpt>
<trkpt lat="37.58371052" lon="-1.20263967">
<ele>335</ele>
<time>2013-08-09T20:35:28Z</time>
</trkpt>
<trkpt lat="37.58371054" lon="-1.20263968">
<ele>335</ele>
<time>2013-08-09T20:35:30Z</time>
</trkpt>
<trkpt lat="37.58371059" lon="-1.20263966">
<ele>335</ele>
<time>2013-08-09T20:35:34Z</time>
</trkpt>
<trkpt lat="37.58371063" lon="-1.20263965">
<ele>335</ele>
<time>2013-08-09T20:35:36Z</time>
</trkpt>
<trkpt lat="37.58371065" lon="-1.20263962">
<ele>335</ele>
<time>2013-08-09T20:35:40Z</time>
</trkpt>
<trkpt lat="37.58371063" lon="-1.20263961">
<ele>335</ele>
<time>2013-08-09T20:35:42Z</time>
</trkpt>
<trkpt lat="37.58371069" lon="-1.20263957">
<ele>335</ele>
<time>2013-08-09T20:35:46Z</time>
</trkpt>
<trkpt lat="37.58371071" lon="-1.20263953">
<ele>335</ele>
<time>2013-08-09T20:35:48Z</time>
</trkpt>
<trkpt lat="37.5837107" lon="-1.20263948">
<ele>335</ele>
<time>2013-08-09T20:35:52Z</time>
</trkpt>
<trkpt lat="37.5837107" lon="-1.20263946">
<ele>334</ele>
<time>2013-08-09T20:35:54Z</time>
</trkpt>
<trkpt lat="37.58371076" lon="-1.20263944">
<ele>334</ele>
<time>2013-08-09T20:35:58Z</time>
</trkpt>
<trkpt lat="37.58371079" lon="-1.20263946">
<ele>334</ele>
<time>2013-08-09T20:36:00Z</time>
</trkpt>
<trkpt lat="37.58371088" lon="-1.20263947">
<ele>334</ele>
<time>2013-08-09T20:36:04Z</time>
</trkpt>
<trkpt lat="37.58371093" lon="-1.2026395">
<ele>334</ele>
<time>2013-08-09T20:36:06Z</time>
</trkpt>
<trkpt lat="37.583711" lon="-1.20263952">
<ele>334</ele>
<time>2013-08-09T20:36:10Z</time>
</trkpt>
<trkpt lat="37.58371103" lon="-1.20263953">
<ele>334</ele>
<time>2013-08-09T20:36:12Z</time>
</trkpt>
<trkpt lat="37.58371104" lon="-1.20263952">
<ele>334</ele>
<time>2013-08-09T20:36:16Z</time>
</trkpt>
<trkpt lat="37.58371051" lon="-1.20263845">
<ele>335</ele>
<time>2013-08-09T20:36:18Z</time>
</trkpt>
<trkpt lat="37.58370894" lon="-1.20264195">
<ele>333</ele>
<time>2013-08-09T20:36:22Z</time>
</trkpt>
<trkpt lat="37.58370912" lon="-1.20264379">
<ele>334</ele>
<time>2013-08-09T20:36:24Z</time>
</trkpt>
<trkpt lat="37.58370934" lon="-1.20264112">
<ele>334</ele>
<time>2013-08-09T20:36:28Z</time>
</trkpt>
<trkpt lat="37.58371121" lon="-1.20264211">
<ele>333</ele>
<time>2013-08-09T20:36:30Z</time>
</trkpt>
<trkpt lat="37.58371337" lon="-1.20264362">
<ele>333</ele>
<time>2013-08-09T20:36:34Z</time>
</trkpt>
<trkpt lat="37.58371353" lon="-1.20264468">
<ele>333</ele>
<time>2013-08-09T20:36:36Z</time>
</trkpt>
<trkpt lat="37.58371103" lon="-1.20264624">
<ele>333</ele>
<time>2013-08-09T20:36:40Z</time>
</trkpt>
<trkpt lat="37.58371166" lon="-1.20264686">
<ele>334</ele>
<time>2013-08-09T20:36:42Z</time>
</trkpt>
<trkpt lat="37.58371164" lon="-1.20264721">
<ele>333</ele>
<time>2013-08-09T20:36:46Z</time>
</trkpt>
<trkpt lat="37.58371155" lon="-1.20264722">
<ele>333</ele>
<time>2013-08-09T20:36:48Z</time>
</trkpt>
<trkpt lat="37.58371149" lon="-1.20264695">
<ele>333</ele>
<time>2013-08-09T20:36:52Z</time>
</trkpt>
<trkpt lat="37.58371157" lon="-1.20264695">
<ele>333</ele>
<time>2013-08-09T20:36:54Z</time>
</trkpt>
<trkpt lat="37.5837115" lon="-1.20264676">
<ele>333</ele>
<time>2013-08-09T20:36:58Z</time>
</trkpt>
<trkpt lat="37.58371079" lon="-1.20264735">
<ele>334</ele>
<time>2013-08-09T20:37:00Z</time>
</trkpt>
<trkpt lat="37.58370748" lon="-1.20264539">
<ele>335</ele>
<time>2013-08-09T20:37:04Z</time>
</trkpt>
<trkpt lat="37.58370762" lon="-1.20264475">
<ele>336</ele>
<time>2013-08-09T20:37:06Z</time>
</trkpt>
<trkpt lat="37.58370228" lon="-1.20263604">
<ele>335</ele>
<time>2013-08-09T20:37:10Z</time>
</trkpt>
<trkpt lat="37.58370261" lon="-1.20263116">
<ele>335</ele>
<time>2013-08-09T20:37:12Z</time>
</trkpt>
<trkpt lat="37.58370246" lon="-1.20262592">
<ele>336</ele>
<time>2013-08-09T20:37:16Z</time>
</trkpt>
<trkpt lat="37.58370267" lon="-1.20262319">
<ele>335</ele>
<time>2013-08-09T20:37:18Z</time>
</trkpt>
<trkpt lat="37.58371094" lon="-1.20262385">
<ele>335</ele>
<time>2013-08-09T20:37:22Z</time>
</trkpt>
<trkpt lat="37.58371186" lon="-1.202623">
<ele>335</ele>
<time>2013-08-09T20:37:24Z</time>
</trkpt>
<trkpt lat="37.58371182" lon="-1.20262105">
<ele>335</ele>
<time>2013-08-09T20:37:28Z</time>
</trkpt>
<trkpt lat="37.58371182" lon="-1.20262105">
<ele>335</ele>
<time>2013-08-09T20:37:30Z</time>
</trkpt>
<trkpt lat="37.58371192" lon="-1.2026209">
<ele>335</ele>
<time>2013-08-09T20:37:34Z</time>
</trkpt>
<trkpt lat="37.58371205" lon="-1.20262114">
<ele>335</ele>
<time>2013-08-09T20:37:36Z</time>
</trkpt>
<trkpt lat="37.58371214" lon="-1.2026213">
<ele>335</ele>
<time>2013-08-09T20:37:40Z</time>
</trkpt>
<trkpt lat="37.58371224" lon="-1.20262139">
<ele>335</ele>
<time>2013-08-09T20:37:42Z</time>
</trkpt>
<trkpt lat="37.58371211" lon="-1.20262153">
<ele>335</ele>
<time>2013-08-09T20:37:46Z</time>
</trkpt>
<trkpt lat="37.58371218" lon="-1.20262138">
<ele>335</ele>
<time>2013-08-09T20:37:48Z</time>
</trkpt>
<trkpt lat="37.58371222" lon="-1.2026212">
<ele>335</ele>
<time>2013-08-09T20:37:52Z</time>
</trkpt>
<trkpt lat="37.58371222" lon="-1.2026212">
<ele>335</ele>
<time>2013-08-09T20:37:54Z</time>
</trkpt>
<trkpt lat="37.58371225" lon="-1.20262108">
<ele>335</ele>
<time>2013-08-09T20:37:58Z</time>
</trkpt>
<trkpt lat="37.58371228" lon="-1.20262102">
<ele>335</ele>
<time>2013-08-09T20:38:00Z</time>
</trkpt>
<trkpt lat="37.5837123" lon="-1.20262103">
<ele>335</ele>
<time>2013-08-09T20:38:04Z</time>
</trkpt>
<trkpt lat="37.58371233" lon="-1.20262103">
<ele>335</ele>
<time>2013-08-09T20:38:06Z</time>
</trkpt>
<trkpt lat="37.58371234" lon="-1.20262104">
<ele>335</ele>
<time>2013-08-09T20:38:10Z</time>
</trkpt>
<trkpt lat="37.58371224" lon="-1.20262082">
<ele>335</ele>
<time>2013-08-09T20:38:12Z</time>
</trkpt>
<trkpt lat="37.58371227" lon="-1.20262049">
<ele>335</ele>
<time>2013-08-09T20:38:16Z</time>
</trkpt>
<trkpt lat="37.58371232" lon="-1.20262038">
<ele>336</ele>
<time>2013-08-09T20:38:18Z</time>
</trkpt>
<trkpt lat="37.58371238" lon="-1.20262028">
<ele>336</ele>
<time>2013-08-09T20:38:22Z</time>
</trkpt>
<trkpt lat="37.5837124" lon="-1.20262027">
<ele>336</ele>
<time>2013-08-09T20:38:24Z</time>
</trkpt>
<trkpt lat="37.58371315" lon="-1.20262081">
<ele>336</ele>
<time>2013-08-09T20:38:28Z</time>
</trkpt>
<trkpt lat="37.58371398" lon="-1.20262134">
<ele>335</ele>
<time>2013-08-09T20:38:30Z</time>
</trkpt>
<trkpt lat="37.58371676" lon="-1.20262308">
<ele>335</ele>
<time>2013-08-09T20:38:34Z</time>
</trkpt>
<trkpt lat="37.58371744" lon="-1.20262365">
<ele>335</ele>
<time>2013-08-09T20:38:36Z</time>
</trkpt>
<trkpt lat="37.58374149" lon="-1.2025465">
<ele>339</ele>
<time>2013-08-09T20:38:40Z</time>
</trkpt>
<trkpt lat="37.5837449" lon="-1.20254678">
<ele>339</ele>
<time>2013-08-09T20:38:42Z</time>
</trkpt>
<trkpt lat="37.58374575" lon="-1.20255621">
<ele>340</ele>
<time>2013-08-09T20:38:46Z</time>
</trkpt>
<trkpt lat="37.58374559" lon="-1.20256299">
<ele>341</ele>
<time>2013-08-09T20:38:48Z</time>
</trkpt>
<trkpt lat="37.58374482" lon="-1.20257645">
<ele>341</ele>
<time>2013-08-09T20:38:52Z</time>
</trkpt>
<trkpt lat="37.58374338" lon="-1.20257762">
<ele>342</ele>
<time>2013-08-09T20:38:54Z</time>
</trkpt>
<trkpt lat="37.58374048" lon="-1.20257718">
<ele>341</ele>
<time>2013-08-09T20:38:58Z</time>
</trkpt>
<trkpt lat="37.58371992" lon="-1.20257278">
<ele>341</ele>
<time>2013-08-09T20:39:00Z</time>
</trkpt>
<trkpt lat="37.58372704" lon="-1.20258421">
<ele>340</ele>
<time>2013-08-09T20:39:04Z</time>
</trkpt>
<trkpt lat="37.58373183" lon="-1.20258498">
<ele>340</ele>
<time>2013-08-09T20:39:06Z</time>
</trkpt>
<trkpt lat="37.5837342" lon="-1.2025961">
<ele>339</ele>
<time>2013-08-09T20:39:10Z</time>
</trkpt>
<trkpt lat="37.5837326" lon="-1.20257798">
<ele>336</ele>
<time>2013-08-09T20:39:12Z</time>
</trkpt>
<trkpt lat="37.58373577" lon="-1.20256106">
<ele>336</ele>
<time>2013-08-09T20:39:16Z</time>
</trkpt>
<trkpt lat="37.58374625" lon="-1.20256618">
<ele>337</ele>
<time>2013-08-09T20:39:18Z</time>
</trkpt>
<trkpt lat="37.58376619" lon="-1.20259766">
<ele>336</ele>
<time>2013-08-09T20:39:22Z</time>
</trkpt>
<trkpt lat="37.58376788" lon="-1.20260677">
<ele>336</ele>
<time>2013-08-09T20:39:24Z</time>
</trkpt>
<trkpt lat="37.58376792" lon="-1.20260971">
<ele>336</ele>
<time>2013-08-09T20:39:28Z</time>
</trkpt>
<trkpt lat="37.58376841" lon="-1.20261082">
<ele>336</ele>
<time>2013-08-09T20:39:30Z</time>
</trkpt>
<trkpt lat="37.5837682" lon="-1.20261254">
<ele>336</ele>
<time>2013-08-09T20:39:34Z</time>
</trkpt>
<trkpt lat="37.5837682" lon="-1.20261268">
<ele>336</ele>
<time>2013-08-09T20:39:36Z</time>
</trkpt>
<trkpt lat="37.58376841" lon="-1.20261304">
<ele>336</ele>
<time>2013-08-09T20:39:40Z</time>
</trkpt>
<trkpt lat="37.58376862" lon="-1.20261283">
<ele>336</ele>
<time>2013-08-09T20:39:42Z</time>
</trkpt>
<trkpt lat="37.583769" lon="-1.20261283">
<ele>336</ele>
<time>2013-08-09T20:39:46Z</time>
</trkpt>
<trkpt lat="37.58376909" lon="-1.20261284">
<ele>336</ele>
<time>2013-08-09T20:39:48Z</time>
</trkpt>
<trkpt lat="37.58376963" lon="-1.20261247">
<ele>336</ele>
<time>2013-08-09T20:39:52Z</time>
</trkpt>
<trkpt lat="37.58376963" lon="-1.20261241">
<ele>336</ele>
<time>2013-08-09T20:39:54Z</time>
</trkpt>
<trkpt lat="37.58376941" lon="-1.20261197">
<ele>336</ele>
<time>2013-08-09T20:39:58Z</time>
</trkpt>
<trkpt lat="37.58376938" lon="-1.20261183">
<ele>336</ele>
<time>2013-08-09T20:40:00Z</time>
</trkpt>
<trkpt lat="37.58376936" lon="-1.20261174">
<ele>336</ele>
<time>2013-08-09T20:40:04Z</time>
</trkpt>
<trkpt lat="37.58376935" lon="-1.20261173">
<ele>336</ele>
<time>2013-08-09T20:40:06Z</time>
</trkpt>
<trkpt lat="37.58376934" lon="-1.20261167">
<ele>336</ele>
<time>2013-08-09T20:40:10Z</time>
</trkpt>
<trkpt lat="37.58376932" lon="-1.20261166">
<ele>336</ele>
<time>2013-08-09T20:40:12Z</time>
</trkpt>
<trkpt lat="37.58376929" lon="-1.20261161">
<ele>336</ele>
<time>2013-08-09T20:40:16Z</time>
</trkpt>
<trkpt lat="37.58376924" lon="-1.20261159">
<ele>336</ele>
<time>2013-08-09T20:40:18Z</time>
</trkpt>
<trkpt lat="37.58376921" lon="-1.20261153">
<ele>336</ele>
<time>2013-08-09T20:40:22Z</time>
</trkpt>
<trkpt lat="37.58376919" lon="-1.20261152">
<ele>336</ele>
<time>2013-08-09T20:40:24Z</time>
</trkpt>
<trkpt lat="37.58376917" lon="-1.2026115">
<ele>336</ele>
<time>2013-08-09T20:40:28Z</time>
</trkpt>
<trkpt lat="37.58376917" lon="-1.20261151">
<ele>336</ele>
<time>2013-08-09T20:40:30Z</time>
</trkpt>
<trkpt lat="37.58376916" lon="-1.20261153">
<ele>336</ele>
<time>2013-08-09T20:40:34Z</time>
</trkpt>
<trkpt lat="37.58376916" lon="-1.20261153">
<ele>336</ele>
<time>2013-08-09T20:40:36Z</time>
</trkpt>
<trkpt lat="37.58376504" lon="-1.20261048">
<ele>336</ele>
<time>2013-08-09T20:40:40Z</time>
</trkpt>
<trkpt lat="37.58375913" lon="-1.20260988">
<ele>337</ele>
<time>2013-08-09T20:40:42Z</time>
</trkpt>
<trkpt lat="37.58375571" lon="-1.20260739">
<ele>337</ele>
<time>2013-08-09T20:40:46Z</time>
</trkpt>
<trkpt lat="37.58375542" lon="-1.20260727">
<ele>337</ele>
<time>2013-08-09T20:40:48Z</time>
</trkpt>
<trkpt lat="37.58375356" lon="-1.20260561">
<ele>337</ele>
<time>2013-08-09T20:40:52Z</time>
</trkpt>
<trkpt lat="37.5837562" lon="-1.20260402">
<ele>337</ele>
<time>2013-08-09T20:40:54Z</time>
</trkpt>
<trkpt lat="37.58375783" lon="-1.20260139">
<ele>337</ele>
<time>2013-08-09T20:40:58Z</time>
</trkpt>
<trkpt lat="37.5837584" lon="-1.20260125">
<ele>337</ele>
<time>2013-08-09T20:41:00Z</time>
</trkpt>
<trkpt lat="37.5837579" lon="-1.20259955">
<ele>337</ele>
<time>2013-08-09T20:41:04Z</time>
</trkpt>
<trkpt lat="37.58375767" lon="-1.20259915">
<ele>337</ele>
<time>2013-08-09T20:41:06Z</time>
</trkpt>
<trkpt lat="37.58375798" lon="-1.20259904">
<ele>337</ele>
<time>2013-08-09T20:41:10Z</time>
</trkpt>
<trkpt lat="37.58375702" lon="-1.20259872">
<ele>337</ele>
<time>2013-08-09T20:41:12Z</time>
</trkpt>
<trkpt lat="37.58375266" lon="-1.2025964">
<ele>338</ele>
<time>2013-08-09T20:41:16Z</time>
</trkpt>
<trkpt lat="37.58375186" lon="-1.20259532">
<ele>338</ele>
<time>2013-08-09T20:41:18Z</time>
</trkpt>
<trkpt lat="37.58375339" lon="-1.2025928">
<ele>338</ele>
<time>2013-08-09T20:41:22Z</time>
</trkpt>
<trkpt lat="37.58375395" lon="-1.20259156">
<ele>337</ele>
<time>2013-08-09T20:41:24Z</time>
</trkpt>
<trkpt lat="37.58375552" lon="-1.2025899">
<ele>338</ele>
<time>2013-08-09T20:41:28Z</time>
</trkpt>
<trkpt lat="37.58375731" lon="-1.20258997">
<ele>338</ele>
<time>2013-08-09T20:41:30Z</time>
</trkpt>
<trkpt lat="37.58375889" lon="-1.20259067">
<ele>338</ele>
<time>2013-08-09T20:41:34Z</time>
</trkpt>
<trkpt lat="37.58375916" lon="-1.20259071">
<ele>338</ele>
<time>2013-08-09T20:41:36Z</time>
</trkpt>
<trkpt lat="37.58375931" lon="-1.20259077">
<ele>338</ele>
<time>2013-08-09T20:41:40Z</time>
</trkpt>
<trkpt lat="37.58375933" lon="-1.20259078">
<ele>338</ele>
<time>2013-08-09T20:41:42Z</time>
</trkpt>
<trkpt lat="37.58375953" lon="-1.20259081">
<ele>338</ele>
<time>2013-08-09T20:41:46Z</time>
</trkpt>
<trkpt lat="37.58375988" lon="-1.20259088">
<ele>337</ele>
<time>2013-08-09T20:41:48Z</time>
</trkpt>
<trkpt lat="37.58377402" lon="-1.20259901">
<ele>336</ele>
<time>2013-08-09T20:41:52Z</time>
</trkpt>
<trkpt lat="37.5837784" lon="-1.20261031">
<ele>337</ele>
<time>2013-08-09T20:41:54Z</time>
</trkpt>
<trkpt lat="37.58378054" lon="-1.20264446">
<ele>338</ele>
<time>2013-08-09T20:41:58Z</time>
</trkpt>
<trkpt lat="37.58378823" lon="-1.20265081">
<ele>338</ele>
<time>2013-08-09T20:42:00Z</time>
</trkpt>
<trkpt lat="37.58380254" lon="-1.20266088">
<ele>341</ele>
<time>2013-08-09T20:42:04Z</time>
</trkpt>
<trkpt lat="37.58380893" lon="-1.20266169">
<ele>342</ele>
<time>2013-08-09T20:42:06Z</time>
</trkpt>
<trkpt lat="37.58381065" lon="-1.20268904">
<ele>342</ele>
<time>2013-08-09T20:42:10Z</time>
</trkpt>
<trkpt lat="37.58380829" lon="-1.20270181">
<ele>342</ele>
<time>2013-08-09T20:42:12Z</time>
</trkpt>
<trkpt lat="37.58380666" lon="-1.2027133">
<ele>341</ele>
<time>2013-08-09T20:42:16Z</time>
</trkpt>
<trkpt lat="37.58380669" lon="-1.20271367">
<ele>341</ele>
<time>2013-08-09T20:42:18Z</time>
</trkpt>
<trkpt lat="37.58380678" lon="-1.20271398">
<ele>341</ele>
<time>2013-08-09T20:42:22Z</time>
</trkpt>
<trkpt lat="37.58380681" lon="-1.20271401">
<ele>341</ele>
<time>2013-08-09T20:42:24Z</time>
</trkpt>
<trkpt lat="37.58380619" lon="-1.20271575">
<ele>341</ele>
<time>2013-08-09T20:42:28Z</time>
</trkpt>
<trkpt lat="37.58380602" lon="-1.20271609">
<ele>341</ele>
<time>2013-08-09T20:42:30Z</time>
</trkpt>
<trkpt lat="37.58380614" lon="-1.20271634">
<ele>341</ele>
<time>2013-08-09T20:42:34Z</time>
</trkpt>
<trkpt lat="37.58380724" lon="-1.20271709">
<ele>341</ele>
<time>2013-08-09T20:42:36Z</time>
</trkpt>
<trkpt lat="37.58380776" lon="-1.20271844">
<ele>341</ele>
<time>2013-08-09T20:42:40Z</time>
</trkpt>
<trkpt lat="37.58380775" lon="-1.2027187">
<ele>341</ele>
<time>2013-08-09T20:42:42Z</time>
</trkpt>
<trkpt lat="37.5838179" lon="-1.20268627">
<ele>342</ele>
<time>2013-08-09T20:42:46Z</time>
</trkpt>
<trkpt lat="37.58382646" lon="-1.20266214">
<ele>342</ele>
<time>2013-08-09T20:42:48Z</time>
</trkpt>
<trkpt lat="37.58384468" lon="-1.20266035">
<ele>346</ele>
<time>2013-08-09T20:42:52Z</time>
</trkpt>
<trkpt lat="37.58382093" lon="-1.20271368">
<ele>346</ele>
<time>2013-08-09T20:42:54Z</time>
</trkpt>
<trkpt lat="37.58380492" lon="-1.20274779">
<ele>347</ele>
<time>2013-08-09T20:42:58Z</time>
</trkpt>
<trkpt lat="37.5838092" lon="-1.20274142">
<ele>348</ele>
<time>2013-08-09T20:43:00Z</time>
</trkpt>
<trkpt lat="37.58381491" lon="-1.20274099">
<ele>349</ele>
<time>2013-08-09T20:43:04Z</time>
</trkpt>
<trkpt lat="37.58381839" lon="-1.20273717">
<ele>349</ele>
<time>2013-08-09T20:43:06Z</time>
</trkpt>
<trkpt lat="37.58382098" lon="-1.20273343">
<ele>349</ele>
<time>2013-08-09T20:43:10Z</time>
</trkpt>
<trkpt lat="37.58382127" lon="-1.20273357">
<ele>349</ele>
<time>2013-08-09T20:43:12Z</time>
</trkpt>
<trkpt lat="37.58382142" lon="-1.20273366">
<ele>349</ele>
<time>2013-08-09T20:43:16Z</time>
</trkpt>
<trkpt lat="37.58382154" lon="-1.20273358">
<ele>349</ele>
<time>2013-08-09T20:43:18Z</time>
</trkpt>
<trkpt lat="37.58382163" lon="-1.20273335">
<ele>349</ele>
<time>2013-08-09T20:43:22Z</time>
</trkpt>
<trkpt lat="37.5838217" lon="-1.20273324">
<ele>349</ele>
<time>2013-08-09T20:43:24Z</time>
</trkpt>
<trkpt lat="37.58382189" lon="-1.20273296">
<ele>349</ele>
<time>2013-08-09T20:43:28Z</time>
</trkpt>
<trkpt lat="37.583822" lon="-1.20273277">
<ele>349</ele>
<time>2013-08-09T20:43:30Z</time>
</trkpt>
<trkpt lat="37.58382206" lon="-1.20273266">
<ele>349</ele>
<time>2013-08-09T20:43:34Z</time>
</trkpt>
<trkpt lat="37.5838222" lon="-1.20273271">
<ele>349</ele>
<time>2013-08-09T20:43:36Z</time>
</trkpt>
<trkpt lat="37.58382339" lon="-1.20272918">
<ele>350</ele>
<time>2013-08-09T20:43:40Z</time>
</trkpt>
<trkpt lat="37.58382399" lon="-1.20272742">
<ele>350</ele>
<time>2013-08-09T20:43:42Z</time>
</trkpt>
<trkpt lat="37.58384084" lon="-1.20271082">
<ele>347</ele>
<time>2013-08-09T20:43:46Z</time>
</trkpt>
<trkpt lat="37.58384921" lon="-1.20270353">
<ele>345</ele>
<time>2013-08-09T20:43:48Z</time>
</trkpt>
<trkpt lat="37.5838658" lon="-1.20265885">
<ele>346</ele>
<time>2013-08-09T20:43:52Z</time>
</trkpt>
<trkpt lat="37.58386998" lon="-1.20263601">
<ele>347</ele>
<time>2013-08-09T20:43:54Z</time>
</trkpt>
<trkpt lat="37.58389836" lon="-1.20260645">
<ele>343</ele>
<time>2013-08-09T20:43:58Z</time>
</trkpt>
<trkpt lat="37.58390745" lon="-1.20262902">
<ele>345</ele>
<time>2013-08-09T20:44:00Z</time>
</trkpt>
<trkpt lat="37.58390802" lon="-1.20264377">
<ele>346</ele>
<time>2013-08-09T20:44:04Z</time>
</trkpt>
<trkpt lat="37.58390733" lon="-1.20263755">
<ele>346</ele>
<time>2013-08-09T20:44:06Z</time>
</trkpt>
<trkpt lat="37.58392345" lon="-1.20261625">
<ele>350</ele>
<time>2013-08-09T20:44:10Z</time>
</trkpt>
<trkpt lat="37.58392445" lon="-1.20261577">
<ele>350</ele>
<time>2013-08-09T20:44:12Z</time>
</trkpt>
<trkpt lat="37.58393036" lon="-1.20261277">
<ele>349</ele>
<time>2013-08-09T20:44:16Z</time>
</trkpt>
<trkpt lat="37.58393296" lon="-1.20261003">
<ele>350</ele>
<time>2013-08-09T20:44:18Z</time>
</trkpt>
<trkpt lat="37.58393272" lon="-1.20260852">
<ele>350</ele>
<time>2013-08-09T20:44:22Z</time>
</trkpt>
<trkpt lat="37.58393279" lon="-1.20260849">
<ele>350</ele>
<time>2013-08-09T20:44:24Z</time>
</trkpt>
<trkpt lat="37.58393287" lon="-1.2026085">
<ele>350</ele>
<time>2013-08-09T20:44:28Z</time>
</trkpt>
<trkpt lat="37.58393287" lon="-1.20260824">
<ele>350</ele>
<time>2013-08-09T20:44:30Z</time>
</trkpt>
<trkpt lat="37.58393294" lon="-1.20260806">
<ele>350</ele>
<time>2013-08-09T20:44:34Z</time>
</trkpt>
<trkpt lat="37.58393297" lon="-1.20260806">
<ele>349</ele>
<time>2013-08-09T20:44:36Z</time>
</trkpt>
<trkpt lat="37.5839333" lon="-1.20260647">
<ele>349</ele>
<time>2013-08-09T20:44:40Z</time>
</trkpt>
<trkpt lat="37.58394395" lon="-1.20260532">
<ele>349</ele>
<time>2013-08-09T20:44:42Z</time>
</trkpt>
<trkpt lat="37.58399043" lon="-1.20259811">
<ele>346</ele>
<time>2013-08-09T20:44:46Z</time>
</trkpt>
<trkpt lat="37.58401317" lon="-1.20259291">
<ele>345</ele>
<time>2013-08-09T20:44:48Z</time>
</trkpt>
<trkpt lat="37.5840557" lon="-1.2025919">
<ele>347</ele>
<time>2013-08-09T20:44:52Z</time>
</trkpt>
<trkpt lat="37.58407603" lon="-1.2025942">
<ele>348</ele>
<time>2013-08-09T20:44:54Z</time>
</trkpt>
<trkpt lat="37.58409722" lon="-1.20258873">
<ele>349</ele>
<time>2013-08-09T20:44:58Z</time>
</trkpt>
<trkpt lat="37.58411243" lon="-1.20258756">
<ele>351</ele>
<time>2013-08-09T20:45:00Z</time>
</trkpt>
<trkpt lat="37.58415264" lon="-1.20259876">
<ele>348</ele>
<time>2013-08-09T20:45:04Z</time>
</trkpt>
<trkpt lat="37.58417329" lon="-1.20259037">
<ele>347</ele>
<time>2013-08-09T20:45:06Z</time>
</trkpt>
<trkpt lat="37.58417887" lon="-1.20257999">
<ele>348</ele>
<time>2013-08-09T20:45:10Z</time>
</trkpt>
<trkpt lat="37.58418678" lon="-1.20256757">
<ele>348</ele>
<time>2013-08-09T20:45:12Z</time>
</trkpt>
<trkpt lat="37.58421035" lon="-1.20253505">
<ele>349</ele>
<time>2013-08-09T20:45:16Z</time>
</trkpt>
<trkpt lat="37.58421446" lon="-1.20252497">
<ele>353</ele>
<time>2013-08-09T20:45:18Z</time>
</trkpt>
<trkpt lat="37.58421973" lon="-1.2025084">
<ele>358</ele>
<time>2013-08-09T20:45:22Z</time>
</trkpt>
<trkpt lat="37.58422719" lon="-1.2025034">
<ele>359</ele>
<time>2013-08-09T20:45:24Z</time>
</trkpt>
<trkpt lat="37.58425959" lon="-1.20248301">
<ele>362</ele>
<time>2013-08-09T20:45:28Z</time>
</trkpt>
<trkpt lat="37.58427586" lon="-1.20247569">
<ele>362</ele>
<time>2013-08-09T20:45:30Z</time>
</trkpt>
<trkpt lat="37.58433203" lon="-1.2024615">
<ele>362</ele>
<time>2013-08-09T20:45:34Z</time>
</trkpt>
<trkpt lat="37.58436299" lon="-1.20244618">
<ele>361</ele>
<time>2013-08-09T20:45:36Z</time>
</trkpt>
<trkpt lat="37.58443283" lon="-1.20244761">
<ele>359</ele>
<time>2013-08-09T20:45:40Z</time>
</trkpt>
<trkpt lat="37.58445335" lon="-1.20245691">
<ele>359</ele>
<time>2013-08-09T20:45:42Z</time>
</trkpt>
<trkpt lat="37.58449396" lon="-1.20247835">
<ele>357</ele>
<time>2013-08-09T20:45:46Z</time>
</trkpt>
<trkpt lat="37.58450458" lon="-1.20249019">
<ele>357</ele>
<time>2013-08-09T20:45:48Z</time>
</trkpt>
<trkpt lat="37.58451373" lon="-1.20251508">
<ele>356</ele>
<time>2013-08-09T20:45:52Z</time>
</trkpt>
<trkpt lat="37.5845331" lon="-1.20251863">
<ele>356</ele>
<time>2013-08-09T20:45:54Z</time>
</trkpt>
<trkpt lat="37.58455885" lon="-1.20254262">
<ele>354</ele>
<time>2013-08-09T20:45:58Z</time>
</trkpt>
<trkpt lat="37.58456213" lon="-1.20256678">
<ele>354</ele>
<time>2013-08-09T20:46:00Z</time>
</trkpt>
<trkpt lat="37.58455908" lon="-1.20261273">
<ele>353</ele>
<time>2013-08-09T20:46:04Z</time>
</trkpt>
<trkpt lat="37.58455134" lon="-1.20265073">
<ele>354</ele>
<time>2013-08-09T20:46:06Z</time>
</trkpt>
<trkpt lat="37.58455459" lon="-1.20265855">
<ele>355</ele>
<time>2013-08-09T20:46:10Z</time>
</trkpt>
<trkpt lat="37.58455462" lon="-1.20263762">
<ele>355</ele>
<time>2013-08-09T20:46:12Z</time>
</trkpt>
<trkpt lat="37.58454783" lon="-1.20262354">
<ele>355</ele>
<time>2013-08-09T20:46:16Z</time>
</trkpt>
<trkpt lat="37.58454495" lon="-1.20262004">
<ele>355</ele>
<time>2013-08-09T20:46:18Z</time>
</trkpt>
<trkpt lat="37.58454145" lon="-1.20262171">
<ele>354</ele>
<time>2013-08-09T20:46:22Z</time>
</trkpt>
<trkpt lat="37.58454434" lon="-1.2026281">
<ele>353</ele>
<time>2013-08-09T20:46:24Z</time>
</trkpt>
<trkpt lat="37.58454284" lon="-1.20262467">
<ele>353</ele>
<time>2013-08-09T20:46:28Z</time>
</trkpt>
<trkpt lat="37.58454244" lon="-1.20262411">
<ele>353</ele>
<time>2013-08-09T20:46:30Z</time>
</trkpt>
<trkpt lat="37.58454211" lon="-1.20262277">
<ele>354</ele>
<time>2013-08-09T20:46:34Z</time>
</trkpt>
<trkpt lat="37.58454174" lon="-1.20262303">
<ele>354</ele>
<time>2013-08-09T20:46:36Z</time>
</trkpt>
<trkpt lat="37.58454119" lon="-1.20262372">
<ele>354</ele>
<time>2013-08-09T20:46:40Z</time>
</trkpt>
<trkpt lat="37.58454105" lon="-1.20262371">
<ele>354</ele>
<time>2013-08-09T20:46:42Z</time>
</trkpt>
<trkpt lat="37.58454087" lon="-1.20262399">
<ele>354</ele>
<time>2013-08-09T20:46:46Z</time>
</trkpt>
<trkpt lat="37.58454075" lon="-1.20262395">
<ele>354</ele>
<time>2013-08-09T20:46:48Z</time>
</trkpt>
<trkpt lat="37.58454109" lon="-1.20262383">
<ele>354</ele>
<time>2013-08-09T20:46:52Z</time>
</trkpt>
<trkpt lat="37.58454115" lon="-1.20262362">
<ele>354</ele>
<time>2013-08-09T20:46:54Z</time>
</trkpt>
<trkpt lat="37.5845408" lon="-1.2026231">
<ele>354</ele>
<time>2013-08-09T20:46:58Z</time>
</trkpt>
<trkpt lat="37.58454082" lon="-1.20262308">
<ele>354</ele>
<time>2013-08-09T20:47:00Z</time>
</trkpt>
<trkpt lat="37.58454846" lon="-1.20261573">
<ele>354</ele>
<time>2013-08-09T20:47:04Z</time>
</trkpt>
<trkpt lat="37.58455027" lon="-1.20261415">
<ele>354</ele>
<time>2013-08-09T20:47:06Z</time>
</trkpt>
<trkpt lat="37.58455189" lon="-1.20258409">
<ele>354</ele>
<time>2013-08-09T20:47:10Z</time>
</trkpt>
<trkpt lat="37.58455602" lon="-1.20255445">
<ele>352</ele>
<time>2013-08-09T20:47:12Z</time>
</trkpt>
<trkpt lat="37.58452691" lon="-1.20251749">
<ele>349</ele>
<time>2013-08-09T20:47:16Z</time>
</trkpt>
<trkpt lat="37.58450866" lon="-1.20250408">
<ele>348</ele>
<time>2013-08-09T20:47:18Z</time>
</trkpt>
<trkpt lat="37.58450763" lon="-1.20246735">
<ele>352</ele>
<time>2013-08-09T20:47:22Z</time>
</trkpt>
<trkpt lat="37.58451483" lon="-1.20244969">
<ele>353</ele>
<time>2013-08-09T20:47:24Z</time>
</trkpt>
<trkpt lat="37.58455512" lon="-1.20243825">
<ele>364</ele>
<time>2013-08-09T20:47:28Z</time>
</trkpt>
<trkpt lat="37.5845711" lon="-1.20242979">
<ele>364</ele>
<time>2013-08-09T20:47:30Z</time>
</trkpt>
<trkpt lat="37.5846044" lon="-1.20242619">
<ele>365</ele>
<time>2013-08-09T20:47:34Z</time>
</trkpt>
<trkpt lat="37.58459966" lon="-1.20241737">
<ele>365</ele>
<time>2013-08-09T20:47:36Z</time>
</trkpt>
<trkpt lat="37.58459429" lon="-1.20240367">
<ele>364</ele>
<time>2013-08-09T20:47:40Z</time>
</trkpt>
<trkpt lat="37.58458818" lon="-1.20240183">
<ele>365</ele>
<time>2013-08-09T20:47:42Z</time>
</trkpt>
<trkpt lat="37.58457126" lon="-1.20237841">
<ele>365</ele>
<time>2013-08-09T20:47:46Z</time>
</trkpt>
<trkpt lat="37.58457135" lon="-1.20237025">
<ele>366</ele>
<time>2013-08-09T20:47:48Z</time>
</trkpt>
<trkpt lat="37.58460697" lon="-1.20236629">
<ele>368</ele>
<time>2013-08-09T20:47:52Z</time>
</trkpt>
<trkpt lat="37.58462232" lon="-1.20237324">
<ele>373</ele>
<time>2013-08-09T20:47:54Z</time>
</trkpt>
<trkpt lat="37.58464669" lon="-1.20236758">
<ele>373</ele>
<time>2013-08-09T20:47:58Z</time>
</trkpt>
<trkpt lat="37.58466214" lon="-1.20236807">
<ele>373</ele>
<time>2013-08-09T20:48:00Z</time>
</trkpt>
<trkpt lat="37.58472781" lon="-1.20236958">
<ele>371</ele>
<time>2013-08-09T20:48:04Z</time>
</trkpt>
<trkpt lat="37.58475762" lon="-1.20236691">
<ele>371</ele>
<time>2013-08-09T20:48:06Z</time>
</trkpt>
<trkpt lat="37.58473063" lon="-1.20233019">
<ele>369</ele>
<time>2013-08-09T20:48:10Z</time>
</trkpt>
<trkpt lat="37.58471439" lon="-1.20231952">
<ele>368</ele>
<time>2013-08-09T20:48:12Z</time>
</trkpt>
<trkpt lat="37.58471387" lon="-1.20230789">
<ele>368</ele>
<time>2013-08-09T20:48:16Z</time>
</trkpt>
<trkpt lat="37.58471318" lon="-1.20230701">
<ele>367</ele>
<time>2013-08-09T20:48:18Z</time>
</trkpt>
<trkpt lat="37.58471167" lon="-1.20230474">
<ele>367</ele>
<time>2013-08-09T20:48:22Z</time>
</trkpt>
<trkpt lat="37.58471137" lon="-1.20229217">
<ele>366</ele>
<time>2013-08-09T20:48:24Z</time>
</trkpt>
<trkpt lat="37.58471212" lon="-1.20228191">
<ele>366</ele>
<time>2013-08-09T20:48:28Z</time>
</trkpt>
<trkpt lat="37.58471358" lon="-1.20226589">
<ele>367</ele>
<time>2013-08-09T20:48:30Z</time>
</trkpt>
<trkpt lat="37.58472358" lon="-1.20221877">
<ele>363</ele>
<time>2013-08-09T20:48:34Z</time>
</trkpt>
<trkpt lat="37.5847277" lon="-1.20218625">
<ele>361</ele>
<time>2013-08-09T20:48:36Z</time>
</trkpt>
<trkpt lat="37.58473078" lon="-1.20216303">
<ele>359</ele>
<time>2013-08-09T20:48:40Z</time>
</trkpt>
<trkpt lat="37.5847367" lon="-1.20215342">
<ele>359</ele>
<time>2013-08-09T20:48:42Z</time>
</trkpt>
<trkpt lat="37.58477468" lon="-1.20212802">
<ele>354</ele>
<time>2013-08-09T20:48:46Z</time>
</trkpt>
<trkpt lat="37.58478907" lon="-1.2021073">
<ele>355</ele>
<time>2013-08-09T20:48:48Z</time>
</trkpt>
<trkpt lat="37.58479142" lon="-1.20206193">
<ele>353</ele>
<time>2013-08-09T20:48:52Z</time>
</trkpt>
<trkpt lat="37.58479204" lon="-1.20205234">
<ele>353</ele>
<time>2013-08-09T20:48:54Z</time>
</trkpt>
<trkpt lat="37.58480251" lon="-1.20204465">
<ele>352</ele>
<time>2013-08-09T20:48:58Z</time>
</trkpt>
<trkpt lat="37.58481153" lon="-1.20204345">
<ele>353</ele>
<time>2013-08-09T20:49:00Z</time>
</trkpt>
<trkpt lat="37.58483536" lon="-1.20203881">
<ele>353</ele>
<time>2013-08-09T20:49:04Z</time>
</trkpt>
<trkpt lat="37.58486878" lon="-1.20204215">
<ele>342</ele>
<time>2013-08-09T20:49:06Z</time>
</trkpt>
<trkpt lat="37.58491763" lon="-1.20203322">
<ele>336</ele>
<time>2013-08-09T20:49:10Z</time>
</trkpt>
<trkpt lat="37.58492806" lon="-1.20202501">
<ele>336</ele>
<time>2013-08-09T20:49:12Z</time>
</trkpt>
<trkpt lat="37.58495303" lon="-1.20199427">
<ele>336</ele>
<time>2013-08-09T20:49:16Z</time>
</trkpt>
<trkpt lat="37.58496448" lon="-1.20198393">
<ele>337</ele>
<time>2013-08-09T20:49:18Z</time>
</trkpt>
<trkpt lat="37.5849699" lon="-1.20198608">
<ele>336</ele>
<time>2013-08-09T20:49:22Z</time>
</trkpt>
<trkpt lat="37.58496526" lon="-1.20199526">
<ele>335</ele>
<time>2013-08-09T20:49:24Z</time>
</trkpt>
<trkpt lat="37.5849644" lon="-1.20199175">
<ele>335</ele>
<time>2013-08-09T20:49:28Z</time>
</trkpt>
<trkpt lat="37.58496522" lon="-1.20198906">
<ele>335</ele>
<time>2013-08-09T20:49:30Z</time>
</trkpt>
<trkpt lat="37.58497196" lon="-1.20197918">
<ele>334</ele>
<time>2013-08-09T20:49:34Z</time>
</trkpt>
<trkpt lat="37.58499435" lon="-1.20197872">
<ele>334</ele>
<time>2013-08-09T20:49:36Z</time>
</trkpt>
<trkpt lat="37.58504474" lon="-1.20196367">
<ele>333</ele>
<time>2013-08-09T20:49:40Z</time>
</trkpt>
<trkpt lat="37.58505666" lon="-1.20194461">
<ele>331</ele>
<time>2013-08-09T20:49:42Z</time>
</trkpt>
<trkpt lat="37.5850465" lon="-1.20190292">
<ele>330</ele>
<time>2013-08-09T20:49:46Z</time>
</trkpt>
<trkpt lat="37.58504464" lon="-1.20188218">
<ele>329</ele>
<time>2013-08-09T20:49:48Z</time>
</trkpt>
<trkpt lat="37.58506579" lon="-1.20184341">
<ele>328</ele>
<time>2013-08-09T20:49:52Z</time>
</trkpt>
<trkpt lat="37.58508556" lon="-1.20182962">
<ele>327</ele>
<time>2013-08-09T20:49:54Z</time>
</trkpt>
<trkpt lat="37.58513617" lon="-1.20181151">
<ele>327</ele>
<time>2013-08-09T20:49:58Z</time>
</trkpt>
<trkpt lat="37.58516509" lon="-1.20179811">
<ele>326</ele>
<time>2013-08-09T20:50:00Z</time>
</trkpt>
<trkpt lat="37.58520131" lon="-1.20176379">
<ele>324</ele>
<time>2013-08-09T20:50:04Z</time>
</trkpt>
<trkpt lat="37.58521102" lon="-1.20175492">
<ele>325</ele>
<time>2013-08-09T20:50:06Z</time>
</trkpt>
<trkpt lat="37.5852205" lon="-1.20174783">
<ele>323</ele>
<time>2013-08-09T20:50:10Z</time>
</trkpt>
<trkpt lat="37.58521761" lon="-1.20175342">
<ele>323</ele>
<time>2013-08-09T20:50:12Z</time>
</trkpt>
<trkpt lat="37.58522347" lon="-1.20174713">
<ele>324</ele>
<time>2013-08-09T20:50:16Z</time>
</trkpt>
<trkpt lat="37.58522785" lon="-1.20174959">
<ele>323</ele>
<time>2013-08-09T20:50:18Z</time>
</trkpt>
<trkpt lat="37.58523054" lon="-1.2017539">
<ele>324</ele>
<time>2013-08-09T20:50:22Z</time>
</trkpt>
<trkpt lat="37.58522916" lon="-1.20175875">
<ele>322</ele>
<time>2013-08-09T20:50:24Z</time>
</trkpt>
<trkpt lat="37.58522821" lon="-1.2017641">
<ele>322</ele>
<time>2013-08-09T20:50:28Z</time>
</trkpt>
<trkpt lat="37.58522848" lon="-1.20176457">
<ele>322</ele>
<time>2013-08-09T20:50:30Z</time>
</trkpt>
<trkpt lat="37.58526405" lon="-1.20179722">
<ele>317</ele>
<time>2013-08-09T20:50:34Z</time>
</trkpt>
<trkpt lat="37.58528103" lon="-1.20181706">
<ele>316</ele>
<time>2013-08-09T20:50:36Z</time>
</trkpt>
<trkpt lat="37.58533299" lon="-1.20186498">
<ele>312</ele>
<time>2013-08-09T20:50:40Z</time>
</trkpt>
<trkpt lat="37.58535802" lon="-1.20186945">
<ele>311</ele>
<time>2013-08-09T20:50:42Z</time>
</trkpt>
<trkpt lat="37.58540037" lon="-1.20186912">
<ele>308</ele>
<time>2013-08-09T20:50:46Z</time>
</trkpt>
<trkpt lat="37.58541495" lon="-1.20186316">
<ele>306</ele>
<time>2013-08-09T20:50:48Z</time>
</trkpt>
<trkpt lat="37.58542652" lon="-1.20183">
<ele>311</ele>
<time>2013-08-09T20:50:52Z</time>
</trkpt>
<trkpt lat="37.58543088" lon="-1.20180794">
<ele>311</ele>
<time>2013-08-09T20:50:54Z</time>
</trkpt>
<trkpt lat="37.58543958" lon="-1.20176299">
<ele>310</ele>
<time>2013-08-09T20:50:58Z</time>
</trkpt>
<trkpt lat="37.58543717" lon="-1.20173993">
<ele>309</ele>
<time>2013-08-09T20:51:00Z</time>
</trkpt>
<trkpt lat="37.58542352" lon="-1.2017111">
<ele>309</ele>
<time>2013-08-09T20:51:04Z</time>
</trkpt>
<trkpt lat="37.58539524" lon="-1.20172609">
<ele>309</ele>
<time>2013-08-09T20:51:06Z</time>
</trkpt>
<trkpt lat="37.5853489" lon="-1.20170123">
<ele>307</ele>
<time>2013-08-09T20:51:10Z</time>
</trkpt>
<trkpt lat="37.5853405" lon="-1.20168428">
<ele>307</ele>
<time>2013-08-09T20:51:12Z</time>
</trkpt>
<trkpt lat="37.58535476" lon="-1.20165088">
<ele>306</ele>
<time>2013-08-09T20:51:16Z</time>
</trkpt>
<trkpt lat="37.58536228" lon="-1.20162493">
<ele>304</ele>
<time>2013-08-09T20:51:18Z</time>
</trkpt>
<trkpt lat="37.58538056" lon="-1.20157889">
<ele>302</ele>
<time>2013-08-09T20:51:22Z</time>
</trkpt>
<trkpt lat="37.58539349" lon="-1.20155835">
<ele>301</ele>
<time>2013-08-09T20:51:24Z</time>
</trkpt>
<trkpt lat="37.58541226" lon="-1.20151028">
<ele>302</ele>
<time>2013-08-09T20:51:28Z</time>
</trkpt>
<trkpt lat="37.5854187" lon="-1.20148994">
<ele>302</ele>
<time>2013-08-09T20:51:30Z</time>
</trkpt>
<trkpt lat="37.5854577" lon="-1.20151948">
<ele>301</ele>
<time>2013-08-09T20:51:34Z</time>
</trkpt>
<trkpt lat="37.58547814" lon="-1.2015353">
<ele>300</ele>
<time>2013-08-09T20:51:36Z</time>
</trkpt>
<trkpt lat="37.5855115" lon="-1.20156121">
<ele>299</ele>
<time>2013-08-09T20:51:40Z</time>
</trkpt>
<trkpt lat="37.58553142" lon="-1.20157221">
<ele>299</ele>
<time>2013-08-09T20:51:42Z</time>
</trkpt>
<trkpt lat="37.5855704" lon="-1.20159177">
<ele>298</ele>
<time>2013-08-09T20:51:46Z</time>
</trkpt>
<trkpt lat="37.58559456" lon="-1.20159923">
<ele>296</ele>
<time>2013-08-09T20:51:48Z</time>
</trkpt>
<trkpt lat="37.58565406" lon="-1.20160819">
<ele>296</ele>
<time>2013-08-09T20:51:52Z</time>
</trkpt>
<trkpt lat="37.58568147" lon="-1.20161501">
<ele>296</ele>
<time>2013-08-09T20:51:54Z</time>
</trkpt>
<trkpt lat="37.58572986" lon="-1.2016309">
<ele>297</ele>
<time>2013-08-09T20:51:58Z</time>
</trkpt>
<trkpt lat="37.5857491" lon="-1.20165055">
<ele>295</ele>
<time>2013-08-09T20:52:00Z</time>
</trkpt>
<trkpt lat="37.58577171" lon="-1.20169765">
<ele>294</ele>
<time>2013-08-09T20:52:04Z</time>
</trkpt>
<trkpt lat="37.58578179" lon="-1.2017107">
<ele>292</ele>
<time>2013-08-09T20:52:06Z</time>
</trkpt>
<trkpt lat="37.58580618" lon="-1.20172129">
<ele>293</ele>
<time>2013-08-09T20:52:10Z</time>
</trkpt>
<trkpt lat="37.58581863" lon="-1.20172315">
<ele>293</ele>
<time>2013-08-09T20:52:12Z</time>
</trkpt>
<trkpt lat="37.58587442" lon="-1.20173941">
<ele>295</ele>
<time>2013-08-09T20:52:16Z</time>
</trkpt>
<trkpt lat="37.58589313" lon="-1.20176145">
<ele>295</ele>
<time>2013-08-09T20:52:18Z</time>
</trkpt>
<trkpt lat="37.5859327" lon="-1.20180967">
<ele>294</ele>
<time>2013-08-09T20:52:22Z</time>
</trkpt>
<trkpt lat="37.58594566" lon="-1.20182695">
<ele>295</ele>
<time>2013-08-09T20:52:24Z</time>
</trkpt>
<trkpt lat="37.58595402" lon="-1.20187516">
<ele>294</ele>
<time>2013-08-09T20:52:28Z</time>
</trkpt>
<trkpt lat="37.58593745" lon="-1.20190186">
<ele>293</ele>
<time>2013-08-09T20:52:30Z</time>
</trkpt>
<trkpt lat="37.58592475" lon="-1.20196324">
<ele>293</ele>
<time>2013-08-09T20:52:34Z</time>
</trkpt>
<trkpt lat="37.58592219" lon="-1.20199399">
<ele>293</ele>
<time>2013-08-09T20:52:36Z</time>
</trkpt>
<trkpt lat="37.58592127" lon="-1.20205862">
<ele>293</ele>
<time>2013-08-09T20:52:40Z</time>
</trkpt>
<trkpt lat="37.58591174" lon="-1.20208466">
<ele>293</ele>
<time>2013-08-09T20:52:42Z</time>
</trkpt>
<trkpt lat="37.58588311" lon="-1.20211307">
<ele>292</ele>
<time>2013-08-09T20:52:46Z</time>
</trkpt>
<trkpt lat="37.58586824" lon="-1.2021227">
<ele>291</ele>
<time>2013-08-09T20:52:48Z</time>
</trkpt>
<trkpt lat="37.58585727" lon="-1.20216593">
<ele>291</ele>
<time>2013-08-09T20:52:52Z</time>
</trkpt>
<trkpt lat="37.58585973" lon="-1.20219556">
<ele>291</ele>
<time>2013-08-09T20:52:54Z</time>
</trkpt>
<trkpt lat="37.58585211" lon="-1.20223733">
<ele>291</ele>
<time>2013-08-09T20:52:58Z</time>
</trkpt>
<trkpt lat="37.58584839" lon="-1.20225562">
<ele>290</ele>
<time>2013-08-09T20:53:00Z</time>
</trkpt>
<trkpt lat="37.58585495" lon="-1.20229688">
<ele>289</ele>
<time>2013-08-09T20:53:04Z</time>
</trkpt>
<trkpt lat="37.58585655" lon="-1.20232231">
<ele>289</ele>
<time>2013-08-09T20:53:06Z</time>
</trkpt>
<trkpt lat="37.58588268" lon="-1.20236702">
<ele>286</ele>
<time>2013-08-09T20:53:10Z</time>
</trkpt>
<trkpt lat="37.58590744" lon="-1.2023757">
<ele>285</ele>
<time>2013-08-09T20:53:12Z</time>
</trkpt>
<trkpt lat="37.58596099" lon="-1.20236665">
<ele>284</ele>
<time>2013-08-09T20:53:16Z</time>
</trkpt>
<trkpt lat="37.58597857" lon="-1.20235352">
<ele>284</ele>
<time>2013-08-09T20:53:18Z</time>
</trkpt>
<trkpt lat="37.58603396" lon="-1.20234764">
<ele>287</ele>
<time>2013-08-09T20:53:22Z</time>
</trkpt>
<trkpt lat="37.58605673" lon="-1.20234924">
<ele>287</ele>
<time>2013-08-09T20:53:24Z</time>
</trkpt>
<trkpt lat="37.58611968" lon="-1.20235893">
<ele>286</ele>
<time>2013-08-09T20:53:28Z</time>
</trkpt>
<trkpt lat="37.58614487" lon="-1.20235689">
<ele>284</ele>
<time>2013-08-09T20:53:30Z</time>
</trkpt>
<trkpt lat="37.58619358" lon="-1.20234732">
<ele>283</ele>
<time>2013-08-09T20:53:34Z</time>
</trkpt>
<trkpt lat="37.58621624" lon="-1.20234818">
<ele>282</ele>
<time>2013-08-09T20:53:36Z</time>
</trkpt>
<trkpt lat="37.58626719" lon="-1.20234547">
<ele>279</ele>
<time>2013-08-09T20:53:40Z</time>
</trkpt>
<trkpt lat="37.58629428" lon="-1.20234677">
<ele>278</ele>
<time>2013-08-09T20:53:42Z</time>
</trkpt>
<trkpt lat="37.58633608" lon="-1.20233866">
<ele>278</ele>
<time>2013-08-09T20:53:46Z</time>
</trkpt>
<trkpt lat="37.58634759" lon="-1.20233789">
<ele>276</ele>
<time>2013-08-09T20:53:48Z</time>
</trkpt>
<trkpt lat="37.58637267" lon="-1.20234429">
<ele>276</ele>
<time>2013-08-09T20:53:52Z</time>
</trkpt>
<trkpt lat="37.58638631" lon="-1.20235706">
<ele>275</ele>
<time>2013-08-09T20:53:54Z</time>
</trkpt>
<trkpt lat="37.58641986" lon="-1.2023685">
<ele>274</ele>
<time>2013-08-09T20:53:58Z</time>
</trkpt>
<trkpt lat="37.5864342" lon="-1.20237351">
<ele>273</ele>
<time>2013-08-09T20:54:00Z</time>
</trkpt>
<trkpt lat="37.58645523" lon="-1.20237298">
<ele>273</ele>
<time>2013-08-09T20:54:04Z</time>
</trkpt>
<trkpt lat="37.586464" lon="-1.20236859">
<ele>273</ele>
<time>2013-08-09T20:54:06Z</time>
</trkpt>
<trkpt lat="37.58649315" lon="-1.20236441">
<ele>274</ele>
<time>2013-08-09T20:54:10Z</time>
</trkpt>
<trkpt lat="37.58650391" lon="-1.202367">
<ele>273</ele>
<time>2013-08-09T20:54:12Z</time>
</trkpt>
<trkpt lat="37.58651668" lon="-1.20238027">
<ele>271</ele>
<time>2013-08-09T20:54:16Z</time>
</trkpt>
<trkpt lat="37.58652046" lon="-1.20239032">
<ele>270</ele>
<time>2013-08-09T20:54:18Z</time>
</trkpt>
<trkpt lat="37.58652658" lon="-1.20241094">
<ele>271</ele>
<time>2013-08-09T20:54:22Z</time>
</trkpt>
<trkpt lat="37.58653184" lon="-1.20242055">
<ele>270</ele>
<time>2013-08-09T20:54:24Z</time>
</trkpt>
<trkpt lat="37.58653863" lon="-1.20242268">
<ele>270</ele>
<time>2013-08-09T20:54:28Z</time>
</trkpt>
<trkpt lat="37.58654028" lon="-1.20242252">
<ele>269</ele>
<time>2013-08-09T20:54:30Z</time>
</trkpt>
<trkpt lat="37.58656524" lon="-1.20243364">
<ele>268</ele>
<time>2013-08-09T20:54:34Z</time>
</trkpt>
<trkpt lat="37.58657533" lon="-1.20244181">
<ele>268</ele>
<time>2013-08-09T20:54:36Z</time>
</trkpt>
<trkpt lat="37.58659268" lon="-1.20248484">
<ele>269</ele>
<time>2013-08-09T20:54:40Z</time>
</trkpt>
<trkpt lat="37.58660428" lon="-1.20251535">
<ele>268</ele>
<time>2013-08-09T20:54:42Z</time>
</trkpt>
<trkpt lat="37.58662204" lon="-1.20254981">
<ele>267</ele>
<time>2013-08-09T20:54:46Z</time>
</trkpt>
<trkpt lat="37.58663519" lon="-1.20255963">
<ele>267</ele>
<time>2013-08-09T20:54:48Z</time>
</trkpt>
<trkpt lat="37.58666454" lon="-1.20258821">
<ele>265</ele>
<time>2013-08-09T20:54:52Z</time>
</trkpt>
<trkpt lat="37.58668134" lon="-1.20260114">
<ele>265</ele>
<time>2013-08-09T20:54:54Z</time>
</trkpt>
<trkpt lat="37.58670639" lon="-1.20265105">
<ele>264</ele>
<time>2013-08-09T20:54:58Z</time>
</trkpt>
<trkpt lat="37.58670886" lon="-1.20268498">
<ele>264</ele>
<time>2013-08-09T20:55:00Z</time>
</trkpt>
<trkpt lat="37.58670249" lon="-1.20275009">
<ele>264</ele>
<time>2013-08-09T20:55:04Z</time>
</trkpt>
<trkpt lat="37.58670032" lon="-1.20277649">
<ele>264</ele>
<time>2013-08-09T20:55:06Z</time>
</trkpt>
<trkpt lat="37.58670307" lon="-1.202791">
<ele>262</ele>
<time>2013-08-09T20:55:10Z</time>
</trkpt>
<trkpt lat="37.58669667" lon="-1.20279276">
<ele>261</ele>
<time>2013-08-09T20:55:12Z</time>
</trkpt>
<trkpt lat="37.58667112" lon="-1.20280976">
<ele>261</ele>
<time>2013-08-09T20:55:16Z</time>
</trkpt>
<trkpt lat="37.5866617" lon="-1.20282021">
<ele>260</ele>
<time>2013-08-09T20:55:18Z</time>
</trkpt>
<trkpt lat="37.58664464" lon="-1.20283283">
<ele>260</ele>
<time>2013-08-09T20:55:22Z</time>
</trkpt>
<trkpt lat="37.58663523" lon="-1.2028311">
<ele>259</ele>
<time>2013-08-09T20:55:24Z</time>
</trkpt>
<trkpt lat="37.58661809" lon="-1.20280252">
<ele>259</ele>
<time>2013-08-09T20:55:28Z</time>
</trkpt>
<trkpt lat="37.58661405" lon="-1.20279055">
<ele>258</ele>
<time>2013-08-09T20:55:30Z</time>
</trkpt>
<trkpt lat="37.58658845" lon="-1.20280035">
<ele>258</ele>
<time>2013-08-09T20:55:34Z</time>
</trkpt>
<trkpt lat="37.5865671" lon="-1.2028123">
<ele>261</ele>
<time>2013-08-09T20:55:36Z</time>
</trkpt>
<trkpt lat="37.58652899" lon="-1.2028325">
<ele>260</ele>
<time>2013-08-09T20:55:40Z</time>
</trkpt>
<trkpt lat="37.58651468" lon="-1.20283932">
<ele>259</ele>
<time>2013-08-09T20:55:42Z</time>
</trkpt>
<trkpt lat="37.5865164" lon="-1.20283974">
<ele>256</ele>
<time>2013-08-09T20:55:46Z</time>
</trkpt>
<trkpt lat="37.58651354" lon="-1.20283527">
<ele>256</ele>
<time>2013-08-09T20:55:48Z</time>
</trkpt>
<trkpt lat="37.58650209" lon="-1.20285169">
<ele>256</ele>
<time>2013-08-09T20:55:52Z</time>
</trkpt>
<trkpt lat="37.5864882" lon="-1.20286155">
<ele>255</ele>
<time>2013-08-09T20:55:54Z</time>
</trkpt>
<trkpt lat="37.58645894" lon="-1.20286957">
<ele>253</ele>
<time>2013-08-09T20:55:58Z</time>
</trkpt>
<trkpt lat="37.58645051" lon="-1.20287399">
<ele>252</ele>
<time>2013-08-09T20:56:00Z</time>
</trkpt>
<trkpt lat="37.58642503" lon="-1.20287184">
<ele>250</ele>
<time>2013-08-09T20:56:04Z</time>
</trkpt>
<trkpt lat="37.58639605" lon="-1.20287337">
<ele>250</ele>
<time>2013-08-09T20:56:06Z</time>
</trkpt>
<trkpt lat="37.58634876" lon="-1.20290409">
<ele>250</ele>
<time>2013-08-09T20:56:10Z</time>
</trkpt>
<trkpt lat="37.58633349" lon="-1.20292441">
<ele>250</ele>
<time>2013-08-09T20:56:12Z</time>
</trkpt>
<trkpt lat="37.5863202" lon="-1.20298194">
<ele>249</ele>
<time>2013-08-09T20:56:16Z</time>
</trkpt>
<trkpt lat="37.58631512" lon="-1.20301245">
<ele>249</ele>
<time>2013-08-09T20:56:18Z</time>
</trkpt>
<trkpt lat="37.58632816" lon="-1.20304071">
<ele>247</ele>
<time>2013-08-09T20:56:22Z</time>
</trkpt>
<trkpt lat="37.58634529" lon="-1.20304193">
<ele>246</ele>
<time>2013-08-09T20:56:24Z</time>
</trkpt>
<trkpt lat="37.58637396" lon="-1.20304251">
<ele>245</ele>
<time>2013-08-09T20:56:28Z</time>
</trkpt>
<trkpt lat="37.58638301" lon="-1.20304573">
<ele>243</ele>
<time>2013-08-09T20:56:30Z</time>
</trkpt>
<trkpt lat="37.58640431" lon="-1.20304894">
<ele>243</ele>
<time>2013-08-09T20:56:34Z</time>
</trkpt>
<trkpt lat="37.58641632" lon="-1.20305977">
<ele>243</ele>
<time>2013-08-09T20:56:36Z</time>
</trkpt>
<trkpt lat="37.58643543" lon="-1.20309175">
<ele>240</ele>
<time>2013-08-09T20:56:40Z</time>
</trkpt>
<trkpt lat="37.58645008" lon="-1.20310132">
<ele>238</ele>
<time>2013-08-09T20:56:42Z</time>
</trkpt>
<trkpt lat="37.58648693" lon="-1.20311879">
<ele>237</ele>
<time>2013-08-09T20:56:46Z</time>
</trkpt>
<trkpt lat="37.58650482" lon="-1.2031344">
<ele>237</ele>
<time>2013-08-09T20:56:48Z</time>
</trkpt>
<trkpt lat="37.586514" lon="-1.20318627">
<ele>236</ele>
<time>2013-08-09T20:56:52Z</time>
</trkpt>
<trkpt lat="37.58652179" lon="-1.20321019">
<ele>236</ele>
<time>2013-08-09T20:56:54Z</time>
</trkpt>
<trkpt lat="37.58653974" lon="-1.20321965">
<ele>235</ele>
<time>2013-08-09T20:56:58Z</time>
</trkpt>
<trkpt lat="37.58654221" lon="-1.20321484">
<ele>236</ele>
<time>2013-08-09T20:57:00Z</time>
</trkpt>
<trkpt lat="37.58654854" lon="-1.20321882">
<ele>236</ele>
<time>2013-08-09T20:57:04Z</time>
</trkpt>
<trkpt lat="37.58654998" lon="-1.2032251">
<ele>235</ele>
<time>2013-08-09T20:57:06Z</time>
</trkpt>
<trkpt lat="37.58654763" lon="-1.20322774">
<ele>234</ele>
<time>2013-08-09T20:57:10Z</time>
</trkpt>
<trkpt lat="37.58654803" lon="-1.20322692">
<ele>234</ele>
<time>2013-08-09T20:57:12Z</time>
</trkpt>
<trkpt lat="37.58655346" lon="-1.20322022">
<ele>234</ele>
<time>2013-08-09T20:57:16Z</time>
</trkpt>
<trkpt lat="37.58655425" lon="-1.20321985">
<ele>234</ele>
<time>2013-08-09T20:57:18Z</time>
</trkpt>
<trkpt lat="37.58655345" lon="-1.20322209">
<ele>234</ele>
<time>2013-08-09T20:57:22Z</time>
</trkpt>
<trkpt lat="37.58655293" lon="-1.20322292">
<ele>234</ele>
<time>2013-08-09T20:57:24Z</time>
</trkpt>
<trkpt lat="37.58655045" lon="-1.20322545">
<ele>234</ele>
<time>2013-08-09T20:57:28Z</time>
</trkpt>
<trkpt lat="37.58654686" lon="-1.20322835">
<ele>234</ele>
<time>2013-08-09T20:57:30Z</time>
</trkpt>
<trkpt lat="37.58655287" lon="-1.20327043">
<ele>231</ele>
<time>2013-08-09T20:57:34Z</time>
</trkpt>
<trkpt lat="37.58656182" lon="-1.20329022">
<ele>229</ele>
<time>2013-08-09T20:57:36Z</time>
</trkpt>
<trkpt lat="37.58658653" lon="-1.20333752">
<ele>229</ele>
<time>2013-08-09T20:57:40Z</time>
</trkpt>
<trkpt lat="37.5865942" lon="-1.20336164">
<ele>229</ele>
<time>2013-08-09T20:57:42Z</time>
</trkpt>
<trkpt lat="37.58660357" lon="-1.20341117">
<ele>227</ele>
<time>2013-08-09T20:57:46Z</time>
</trkpt>
<trkpt lat="37.5865996" lon="-1.2034338">
<ele>227</ele>
<time>2013-08-09T20:57:48Z</time>
</trkpt>
<trkpt lat="37.58659457" lon="-1.20348736">
<ele>227</ele>
<time>2013-08-09T20:57:52Z</time>
</trkpt>
<trkpt lat="37.58659679" lon="-1.20352076">
<ele>228</ele>
<time>2013-08-09T20:57:54Z</time>
</trkpt>
<trkpt lat="37.58660021" lon="-1.20359203">
<ele>229</ele>
<time>2013-08-09T20:57:58Z</time>
</trkpt>
<trkpt lat="37.58659527" lon="-1.20362542">
<ele>230</ele>
<time>2013-08-09T20:58:00Z</time>
</trkpt>
<trkpt lat="37.58659473" lon="-1.20367343">
<ele>230</ele>
<time>2013-08-09T20:58:04Z</time>
</trkpt>
<trkpt lat="37.5865978" lon="-1.20370258">
<ele>229</ele>
<time>2013-08-09T20:58:06Z</time>
</trkpt>
<trkpt lat="37.58660502" lon="-1.20375312">
<ele>228</ele>
<time>2013-08-09T20:58:10Z</time>
</trkpt>
<trkpt lat="37.58660806" lon="-1.20377063">
<ele>228</ele>
<time>2013-08-09T20:58:12Z</time>
</trkpt>
<trkpt lat="37.58660333" lon="-1.2037993">
<ele>226</ele>
<time>2013-08-09T20:58:16Z</time>
</trkpt>
<trkpt lat="37.58660006" lon="-1.20381457">
<ele>226</ele>
<time>2013-08-09T20:58:18Z</time>
</trkpt>
<trkpt lat="37.58661083" lon="-1.20386997">
<ele>226</ele>
<time>2013-08-09T20:58:22Z</time>
</trkpt>
<trkpt lat="37.58662259" lon="-1.20389814">
<ele>226</ele>
<time>2013-08-09T20:58:24Z</time>
</trkpt>
<trkpt lat="37.58663811" lon="-1.20394966">
<ele>223</ele>
<time>2013-08-09T20:58:28Z</time>
</trkpt>
<trkpt lat="37.58663869" lon="-1.2039838">
<ele>223</ele>
<time>2013-08-09T20:58:30Z</time>
</trkpt>
<trkpt lat="37.5866571" lon="-1.20404272">
<ele>220</ele>
<time>2013-08-09T20:58:34Z</time>
</trkpt>
<trkpt lat="37.58665584" lon="-1.20407202">
<ele>219</ele>
<time>2013-08-09T20:58:36Z</time>
</trkpt>
<trkpt lat="37.58664563" lon="-1.20412054">
<ele>220</ele>
<time>2013-08-09T20:58:40Z</time>
</trkpt>
<trkpt lat="37.58663996" lon="-1.20414205">
<ele>220</ele>
<time>2013-08-09T20:58:42Z</time>
</trkpt>
<trkpt lat="37.58662569" lon="-1.20418776">
<ele>218</ele>
<time>2013-08-09T20:58:46Z</time>
</trkpt>
<trkpt lat="37.58661764" lon="-1.20421883">
<ele>218</ele>
<time>2013-08-09T20:58:48Z</time>
</trkpt>
<trkpt lat="37.58662087" lon="-1.20426884">
<ele>219</ele>
<time>2013-08-09T20:58:52Z</time>
</trkpt>
<trkpt lat="37.58663011" lon="-1.2042903">
<ele>219</ele>
<time>2013-08-09T20:58:54Z</time>
</trkpt>
<trkpt lat="37.58666203" lon="-1.2043262">
<ele>218</ele>
<time>2013-08-09T20:58:58Z</time>
</trkpt>
<trkpt lat="37.58667249" lon="-1.20434567">
<ele>217</ele>
<time>2013-08-09T20:59:00Z</time>
</trkpt>
<trkpt lat="37.58670043" lon="-1.20439654">
<ele>219</ele>
<time>2013-08-09T20:59:04Z</time>
</trkpt>
<trkpt lat="37.58670677" lon="-1.20441536">
<ele>219</ele>
<time>2013-08-09T20:59:06Z</time>
</trkpt>
<trkpt lat="37.58669921" lon="-1.20444838">
<ele>218</ele>
<time>2013-08-09T20:59:10Z</time>
</trkpt>
<trkpt lat="37.58669106" lon="-1.20447461">
<ele>218</ele>
<time>2013-08-09T20:59:12Z</time>
</trkpt>
<trkpt lat="37.58667807" lon="-1.20452452">
<ele>216</ele>
<time>2013-08-09T20:59:16Z</time>
</trkpt>
<trkpt lat="37.58667686" lon="-1.20454319">
<ele>216</ele>
<time>2013-08-09T20:59:18Z</time>
</trkpt>
<trkpt lat="37.58667827" lon="-1.20457403">
<ele>214</ele>
<time>2013-08-09T20:59:22Z</time>
</trkpt>
<trkpt lat="37.58668514" lon="-1.20459125">
<ele>214</ele>
<time>2013-08-09T20:59:24Z</time>
</trkpt>
<trkpt lat="37.58669566" lon="-1.2046329">
<ele>214</ele>
<time>2013-08-09T20:59:28Z</time>
</trkpt>
<trkpt lat="37.58669962" lon="-1.20465823">
<ele>213</ele>
<time>2013-08-09T20:59:30Z</time>
</trkpt>
<trkpt lat="37.5866904" lon="-1.20469916">
<ele>212</ele>
<time>2013-08-09T20:59:34Z</time>
</trkpt>
<trkpt lat="37.5866763" lon="-1.20469972">
<ele>212</ele>
<time>2013-08-09T20:59:36Z</time>
</trkpt>
<trkpt lat="37.58669639" lon="-1.20470753">
<ele>212</ele>
<time>2013-08-09T20:59:40Z</time>
</trkpt>
<trkpt lat="37.58670581" lon="-1.20471108">
<ele>212</ele>
<time>2013-08-09T20:59:42Z</time>
</trkpt>
<trkpt lat="37.58671995" lon="-1.20471718">
<ele>212</ele>
<time>2013-08-09T20:59:46Z</time>
</trkpt>
<trkpt lat="37.58672073" lon="-1.20471908">
<ele>211</ele>
<time>2013-08-09T20:59:48Z</time>
</trkpt>
<trkpt lat="37.58672971" lon="-1.20477658">
<ele>212</ele>
<time>2013-08-09T20:59:52Z</time>
</trkpt>
<trkpt lat="37.58673036" lon="-1.20481724">
<ele>213</ele>
<time>2013-08-09T20:59:54Z</time>
</trkpt>
<trkpt lat="37.58673457" lon="-1.20492795">
<ele>211</ele>
<time>2013-08-09T20:59:58Z</time>
</trkpt>
<trkpt lat="37.58674167" lon="-1.20498104">
<ele>210</ele>
<time>2013-08-09T21:00:00Z</time>
</trkpt>
<trkpt lat="37.58674364" lon="-1.20507124">
<ele>210</ele>
<time>2013-08-09T21:00:04Z</time>
</trkpt>
<trkpt lat="37.58673141" lon="-1.20510648">
<ele>208</ele>
<time>2013-08-09T21:00:06Z</time>
</trkpt>
<trkpt lat="37.58671192" lon="-1.20515238">
<ele>208</ele>
<time>2013-08-09T21:00:10Z</time>
</trkpt>
<trkpt lat="37.58670141" lon="-1.2051811">
<ele>208</ele>
<time>2013-08-09T21:00:12Z</time>
</trkpt>
<trkpt lat="37.58667783" lon="-1.20523096">
<ele>207</ele>
<time>2013-08-09T21:00:16Z</time>
</trkpt>
<trkpt lat="37.58666303" lon="-1.20523901">
<ele>207</ele>
<time>2013-08-09T21:00:18Z</time>
</trkpt>
<trkpt lat="37.58664222" lon="-1.20524212">
<ele>208</ele>
<time>2013-08-09T21:00:22Z</time>
</trkpt>
<trkpt lat="37.58663687" lon="-1.20525071">
<ele>210</ele>
<time>2013-08-09T21:00:24Z</time>
</trkpt>
<trkpt lat="37.58661874" lon="-1.20529008">
<ele>210</ele>
<time>2013-08-09T21:00:28Z</time>
</trkpt>
<trkpt lat="37.58661526" lon="-1.2053002">
<ele>210</ele>
<time>2013-08-09T21:00:30Z</time>
</trkpt>
<trkpt lat="37.58661293" lon="-1.20533911">
<ele>209</ele>
<time>2013-08-09T21:00:34Z</time>
</trkpt>
<trkpt lat="37.58661411" lon="-1.20537332">
<ele>210</ele>
<time>2013-08-09T21:00:36Z</time>
</trkpt>
<trkpt lat="37.58661766" lon="-1.20547132">
<ele>210</ele>
<time>2013-08-09T21:00:40Z</time>
</trkpt>
<trkpt lat="37.58661738" lon="-1.20552004">
<ele>210</ele>
<time>2013-08-09T21:00:42Z</time>
</trkpt>
<trkpt lat="37.58659906" lon="-1.20558726">
<ele>209</ele>
<time>2013-08-09T21:00:46Z</time>
</trkpt>
<trkpt lat="37.5865843" lon="-1.20561788">
<ele>208</ele>
<time>2013-08-09T21:00:48Z</time>
</trkpt>
<trkpt lat="37.58655981" lon="-1.20569199">
<ele>208</ele>
<time>2013-08-09T21:00:52Z</time>
</trkpt>
<trkpt lat="37.5865508" lon="-1.20571822">
<ele>207</ele>
<time>2013-08-09T21:00:54Z</time>
</trkpt>
<trkpt lat="37.58651562" lon="-1.2057506">
<ele>207</ele>
<time>2013-08-09T21:00:58Z</time>
</trkpt>
<trkpt lat="37.58649115" lon="-1.20576749">
<ele>207</ele>
<time>2013-08-09T21:01:00Z</time>
</trkpt>
<trkpt lat="37.58643514" lon="-1.20580391">
<ele>206</ele>
<time>2013-08-09T21:01:04Z</time>
</trkpt>
<trkpt lat="37.58640446" lon="-1.20581963">
<ele>206</ele>
<time>2013-08-09T21:01:06Z</time>
</trkpt>
<trkpt lat="37.5863619" lon="-1.20582609">
<ele>205</ele>
<time>2013-08-09T21:01:10Z</time>
</trkpt>
<trkpt lat="37.58634363" lon="-1.20582538">
<ele>205</ele>
<time>2013-08-09T21:01:12Z</time>
</trkpt>
<trkpt lat="37.58631512" lon="-1.20583277">
<ele>204</ele>
<time>2013-08-09T21:01:16Z</time>
</trkpt>
<trkpt lat="37.58629827" lon="-1.20583912">
<ele>204</ele>
<time>2013-08-09T21:01:18Z</time>
</trkpt>
<trkpt lat="37.58627532" lon="-1.20586569">
<ele>204</ele>
<time>2013-08-09T21:01:22Z</time>
</trkpt>
<trkpt lat="37.58625608" lon="-1.20587441">
<ele>204</ele>
<time>2013-08-09T21:01:24Z</time>
</trkpt>
<trkpt lat="37.58621713" lon="-1.20588493">
<ele>202</ele>
<time>2013-08-09T21:01:28Z</time>
</trkpt>
<trkpt lat="37.58619737" lon="-1.20588875">
<ele>201</ele>
<time>2013-08-09T21:01:30Z</time>
</trkpt>
<trkpt lat="37.58615697" lon="-1.20590674">
<ele>200</ele>
<time>2013-08-09T21:01:34Z</time>
</trkpt>
<trkpt lat="37.58613698" lon="-1.20592084">
<ele>199</ele>
<time>2013-08-09T21:01:36Z</time>
</trkpt>
<trkpt lat="37.58609866" lon="-1.20593683">
<ele>197</ele>
<time>2013-08-09T21:01:40Z</time>
</trkpt>
<trkpt lat="37.58608224" lon="-1.20594883">
<ele>197</ele>
<time>2013-08-09T21:01:42Z</time>
</trkpt>
<trkpt lat="37.58604929" lon="-1.20597253">
<ele>198</ele>
<time>2013-08-09T21:01:46Z</time>
</trkpt>
<trkpt lat="37.58603014" lon="-1.20598211">
<ele>198</ele>
<time>2013-08-09T21:01:48Z</time>
</trkpt>
<trkpt lat="37.58600545" lon="-1.20600356">
<ele>197</ele>
<time>2013-08-09T21:01:52Z</time>
</trkpt>
<trkpt lat="37.5859936" lon="-1.2060178">
<ele>197</ele>
<time>2013-08-09T21:01:54Z</time>
</trkpt>
<trkpt lat="37.58595863" lon="-1.2060443">
<ele>196</ele>
<time>2013-08-09T21:01:58Z</time>
</trkpt>
<trkpt lat="37.58593898" lon="-1.2060595">
<ele>195</ele>
<time>2013-08-09T21:02:00Z</time>
</trkpt>
<trkpt lat="37.58588753" lon="-1.20608084">
<ele>193</ele>
<time>2013-08-09T21:02:04Z</time>
</trkpt>
<trkpt lat="37.58585946" lon="-1.20608623">
<ele>191</ele>
<time>2013-08-09T21:02:06Z</time>
</trkpt>
<trkpt lat="37.58581647" lon="-1.20610317">
<ele>188</ele>
<time>2013-08-09T21:02:10Z</time>
</trkpt>
<trkpt lat="37.58580102" lon="-1.2061191">
<ele>186</ele>
<time>2013-08-09T21:02:12Z</time>
</trkpt>
<trkpt lat="37.58577039" lon="-1.2061596">
<ele>184</ele>
<time>2013-08-09T21:02:16Z</time>
</trkpt>
<trkpt lat="37.58574826" lon="-1.20618084">
<ele>185</ele>
<time>2013-08-09T21:02:18Z</time>
</trkpt>
<trkpt lat="37.58569806" lon="-1.20622196">
<ele>185</ele>
<time>2013-08-09T21:02:22Z</time>
</trkpt>
<trkpt lat="37.5856769" lon="-1.20623978">
<ele>185</ele>
<time>2013-08-09T21:02:24Z</time>
</trkpt>
<trkpt lat="37.58564028" lon="-1.2062648">
<ele>185</ele>
<time>2013-08-09T21:02:28Z</time>
</trkpt>
<trkpt lat="37.58562007" lon="-1.20627027">
<ele>185</ele>
<time>2013-08-09T21:02:30Z</time>
</trkpt>
<trkpt lat="37.58557977" lon="-1.20629434">
<ele>183</ele>
<time>2013-08-09T21:02:34Z</time>
</trkpt>
<trkpt lat="37.58555519" lon="-1.20630471">
<ele>183</ele>
<time>2013-08-09T21:02:36Z</time>
</trkpt>
<trkpt lat="37.58550914" lon="-1.20633645">
<ele>182</ele>
<time>2013-08-09T21:02:40Z</time>
</trkpt>
<trkpt lat="37.58548724" lon="-1.20635111">
<ele>182</ele>
<time>2013-08-09T21:02:42Z</time>
</trkpt>
<trkpt lat="37.58544427" lon="-1.20637608">
<ele>180</ele>
<time>2013-08-09T21:02:46Z</time>
</trkpt>
<trkpt lat="37.58542609" lon="-1.20639152">
<ele>179</ele>
<time>2013-08-09T21:02:48Z</time>
</trkpt>
<trkpt lat="37.58539011" lon="-1.20642299">
<ele>180</ele>
<time>2013-08-09T21:02:52Z</time>
</trkpt>
<trkpt lat="37.58537228" lon="-1.20643823">
<ele>180</ele>
<time>2013-08-09T21:02:54Z</time>
</trkpt>
<trkpt lat="37.58533981" lon="-1.20646775">
<ele>179</ele>
<time>2013-08-09T21:02:58Z</time>
</trkpt>
<trkpt lat="37.58531903" lon="-1.20648546">
<ele>178</ele>
<time>2013-08-09T21:03:00Z</time>
</trkpt>
<trkpt lat="37.58528227" lon="-1.2065294">
<ele>178</ele>
<time>2013-08-09T21:03:04Z</time>
</trkpt>
<trkpt lat="37.58526895" lon="-1.20655342">
<ele>177</ele>
<time>2013-08-09T21:03:06Z</time>
</trkpt>
<trkpt lat="37.58525415" lon="-1.2066064">
<ele>177</ele>
<time>2013-08-09T21:03:10Z</time>
</trkpt>
<trkpt lat="37.58525431" lon="-1.20663569">
<ele>175</ele>
<time>2013-08-09T21:03:12Z</time>
</trkpt>
<trkpt lat="37.58523249" lon="-1.20668755">
<ele>174</ele>
<time>2013-08-09T21:03:16Z</time>
</trkpt>
<trkpt lat="37.58521123" lon="-1.20671342">
<ele>175</ele>
<time>2013-08-09T21:03:18Z</time>
</trkpt>
<trkpt lat="37.58516258" lon="-1.2067613">
<ele>175</ele>
<time>2013-08-09T21:03:22Z</time>
</trkpt>
<trkpt lat="37.58513808" lon="-1.20678167">
<ele>174</ele>
<time>2013-08-09T21:03:24Z</time>
</trkpt>
<trkpt lat="37.58509507" lon="-1.20681335">
<ele>173</ele>
<time>2013-08-09T21:03:28Z</time>
</trkpt>
<trkpt lat="37.58507253" lon="-1.20683119">
<ele>173</ele>
<time>2013-08-09T21:03:30Z</time>
</trkpt>
<trkpt lat="37.58504192" lon="-1.20687415">
<ele>173</ele>
<time>2013-08-09T21:03:34Z</time>
</trkpt>
<trkpt lat="37.58503705" lon="-1.20690263">
<ele>175</ele>
<time>2013-08-09T21:03:36Z</time>
</trkpt>
<trkpt lat="37.58502199" lon="-1.20695712">
<ele>176</ele>
<time>2013-08-09T21:03:40Z</time>
</trkpt>
<trkpt lat="37.58500843" lon="-1.20698954">
<ele>177</ele>
<time>2013-08-09T21:03:42Z</time>
</trkpt>
<trkpt lat="37.5849691" lon="-1.207043">
<ele>176</ele>
<time>2013-08-09T21:03:46Z</time>
</trkpt>
<trkpt lat="37.58495491" lon="-1.20705589">
<ele>176</ele>
<time>2013-08-09T21:03:48Z</time>
</trkpt>
<trkpt lat="37.58494714" lon="-1.20709091">
<ele>174</ele>
<time>2013-08-09T21:03:52Z</time>
</trkpt>
<trkpt lat="37.58494457" lon="-1.20712302">
<ele>173</ele>
<time>2013-08-09T21:03:54Z</time>
</trkpt>
<trkpt lat="37.58492599" lon="-1.20718538">
<ele>172</ele>
<time>2013-08-09T21:03:58Z</time>
</trkpt>
<trkpt lat="37.58491814" lon="-1.20721698">
<ele>173</ele>
<time>2013-08-09T21:04:00Z</time>
</trkpt>
<trkpt lat="37.58489529" lon="-1.20728465">
<ele>172</ele>
<time>2013-08-09T21:04:04Z</time>
</trkpt>
<trkpt lat="37.58488345" lon="-1.20731754">
<ele>171</ele>
<time>2013-08-09T21:04:06Z</time>
</trkpt>
<trkpt lat="37.5848625" lon="-1.20738185">
<ele>170</ele>
<time>2013-08-09T21:04:10Z</time>
</trkpt>
<trkpt lat="37.58486482" lon="-1.20740715">
<ele>170</ele>
<time>2013-08-09T21:04:12Z</time>
</trkpt>
<trkpt lat="37.58487172" lon="-1.2074648">
<ele>171</ele>
<time>2013-08-09T21:04:16Z</time>
</trkpt>
<trkpt lat="37.58486518" lon="-1.20749193">
<ele>171</ele>
<time>2013-08-09T21:04:18Z</time>
</trkpt>
<trkpt lat="37.58484946" lon="-1.2075473">
<ele>171</ele>
<time>2013-08-09T21:04:22Z</time>
</trkpt>
<trkpt lat="37.58484236" lon="-1.20758047">
<ele>170</ele>
<time>2013-08-09T21:04:24Z</time>
</trkpt>
<trkpt lat="37.58482782" lon="-1.20765144">
<ele>169</ele>
<time>2013-08-09T21:04:28Z</time>
</trkpt>
<trkpt lat="37.58482983" lon="-1.20768432">
<ele>168</ele>
<time>2013-08-09T21:04:30Z</time>
</trkpt>
<trkpt lat="37.58485488" lon="-1.20775351">
<ele>169</ele>
<time>2013-08-09T21:04:34Z</time>
</trkpt>
<trkpt lat="37.58486847" lon="-1.20777781">
<ele>168</ele>
<time>2013-08-09T21:04:36Z</time>
</trkpt>
<trkpt lat="37.58487485" lon="-1.2078359">
<ele>167</ele>
<time>2013-08-09T21:04:40Z</time>
</trkpt>
<trkpt lat="37.58487519" lon="-1.20786638">
<ele>166</ele>
<time>2013-08-09T21:04:42Z</time>
</trkpt>
<trkpt lat="37.5848661" lon="-1.2079375">
<ele>164</ele>
<time>2013-08-09T21:04:46Z</time>
</trkpt>
<trkpt lat="37.58485563" lon="-1.20797325">
<ele>164</ele>
<time>2013-08-09T21:04:48Z</time>
</trkpt>
<trkpt lat="37.5848533" lon="-1.20803536">
<ele>164</ele>
<time>2013-08-09T21:04:52Z</time>
</trkpt>
<trkpt lat="37.58485179" lon="-1.20806059">
<ele>162</ele>
<time>2013-08-09T21:04:54Z</time>
</trkpt>
<trkpt lat="37.58485708" lon="-1.20810141">
<ele>160</ele>
<time>2013-08-09T21:04:58Z</time>
</trkpt>
<trkpt lat="37.58485643" lon="-1.20812805">
<ele>160</ele>
<time>2013-08-09T21:05:00Z</time>
</trkpt>
<trkpt lat="37.58483819" lon="-1.20818573">
<ele>159</ele>
<time>2013-08-09T21:05:04Z</time>
</trkpt>
<trkpt lat="37.58483048" lon="-1.208213">
<ele>158</ele>
<time>2013-08-09T21:05:06Z</time>
</trkpt>
<trkpt lat="37.58482558" lon="-1.2082506">
<ele>158</ele>
<time>2013-08-09T21:05:10Z</time>
</trkpt>
<trkpt lat="37.58482031" lon="-1.20825717">
<ele>156</ele>
<time>2013-08-09T21:05:12Z</time>
</trkpt>
<trkpt lat="37.58481021" lon="-1.20827544">
<ele>153</ele>
<time>2013-08-09T21:05:16Z</time>
</trkpt>
<trkpt lat="37.58480781" lon="-1.20828746">
<ele>152</ele>
<time>2013-08-09T21:05:18Z</time>
</trkpt>
<trkpt lat="37.58478892" lon="-1.20832545">
<ele>153</ele>
<time>2013-08-09T21:05:22Z</time>
</trkpt>
<trkpt lat="37.58477875" lon="-1.20834133">
<ele>153</ele>
<time>2013-08-09T21:05:24Z</time>
</trkpt>
<trkpt lat="37.58476038" lon="-1.20842575">
<ele>151</ele>
<time>2013-08-09T21:05:28Z</time>
</trkpt>
<trkpt lat="37.58474825" lon="-1.20846341">
<ele>150</ele>
<time>2013-08-09T21:05:30Z</time>
</trkpt>
<trkpt lat="37.58472685" lon="-1.20852659">
<ele>149</ele>
<time>2013-08-09T21:05:34Z</time>
</trkpt>
<trkpt lat="37.58471458" lon="-1.20855345">
<ele>149</ele>
<time>2013-08-09T21:05:36Z</time>
</trkpt>
<trkpt lat="37.58469258" lon="-1.20859943">
<ele>148</ele>
<time>2013-08-09T21:05:40Z</time>
</trkpt>
<trkpt lat="37.58468614" lon="-1.20862412">
<ele>148</ele>
<time>2013-08-09T21:05:42Z</time>
</trkpt>
<trkpt lat="37.58467048" lon="-1.20868264">
<ele>150</ele>
<time>2013-08-09T21:05:46Z</time>
</trkpt>
<trkpt lat="37.58466531" lon="-1.20871347">
<ele>149</ele>
<time>2013-08-09T21:05:48Z</time>
</trkpt>
<trkpt lat="37.58466101" lon="-1.20877016">
<ele>148</ele>
<time>2013-08-09T21:05:52Z</time>
</trkpt>
<trkpt lat="37.58466303" lon="-1.20879606">
<ele>149</ele>
<time>2013-08-09T21:05:54Z</time>
</trkpt>
<trkpt lat="37.58464313" lon="-1.20885321">
<ele>148</ele>
<time>2013-08-09T21:05:58Z</time>
</trkpt>
<trkpt lat="37.58463377" lon="-1.20887509">
<ele>147</ele>
<time>2013-08-09T21:06:00Z</time>
</trkpt>
<trkpt lat="37.58462101" lon="-1.20890327">
<ele>145</ele>
<time>2013-08-09T21:06:04Z</time>
</trkpt>
<trkpt lat="37.58461343" lon="-1.20892135">
<ele>144</ele>
<time>2013-08-09T21:06:06Z</time>
</trkpt>
<trkpt lat="37.58458773" lon="-1.20896111">
<ele>145</ele>
<time>2013-08-09T21:06:10Z</time>
</trkpt>
<trkpt lat="37.58457344" lon="-1.20898325">
<ele>145</ele>
<time>2013-08-09T21:06:12Z</time>
</trkpt>
<trkpt lat="37.58455378" lon="-1.20901983">
<ele>142</ele>
<time>2013-08-09T21:06:16Z</time>
</trkpt>
<trkpt lat="37.58454578" lon="-1.20903444">
<ele>140</ele>
<time>2013-08-09T21:06:18Z</time>
</trkpt>
<trkpt lat="37.58450886" lon="-1.2090743">
<ele>138</ele>
<time>2013-08-09T21:06:22Z</time>
</trkpt>
<trkpt lat="37.58448571" lon="-1.20910293">
<ele>138</ele>
<time>2013-08-09T21:06:24Z</time>
</trkpt>
<trkpt lat="37.5844549" lon="-1.20914352">
<ele>139</ele>
<time>2013-08-09T21:06:28Z</time>
</trkpt>
<trkpt lat="37.5844433" lon="-1.20917137">
<ele>138</ele>
<time>2013-08-09T21:06:30Z</time>
</trkpt>
<trkpt lat="37.58443028" lon="-1.2092277">
<ele>141</ele>
<time>2013-08-09T21:06:34Z</time>
</trkpt>
<trkpt lat="37.58440779" lon="-1.2092527">
<ele>140</ele>
<time>2013-08-09T21:06:36Z</time>
</trkpt>
<trkpt lat="37.58435931" lon="-1.20929829">
<ele>138</ele>
<time>2013-08-09T21:06:40Z</time>
</trkpt>
<trkpt lat="37.58433723" lon="-1.20931885">
<ele>138</ele>
<time>2013-08-09T21:06:42Z</time>
</trkpt>
<trkpt lat="37.58431761" lon="-1.20930966">
<ele>139</ele>
<time>2013-08-09T21:06:46Z</time>
</trkpt>
<trkpt lat="37.58430341" lon="-1.20928365">
<ele>142</ele>
<time>2013-08-09T21:06:48Z</time>
</trkpt>
<trkpt lat="37.584282" lon="-1.20928036">
<ele>143</ele>
<time>2013-08-09T21:06:52Z</time>
</trkpt>
<trkpt lat="37.58427911" lon="-1.20926843">
<ele>143</ele>
<time>2013-08-09T21:06:54Z</time>
</trkpt>
<trkpt lat="37.58425531" lon="-1.20922832">
<ele>143</ele>
<time>2013-08-09T21:06:58Z</time>
</trkpt>
<trkpt lat="37.58424526" lon="-1.20921402">
<ele>143</ele>
<time>2013-08-09T21:07:00Z</time>
</trkpt>
<trkpt lat="37.58422229" lon="-1.20920176">
<ele>141</ele>
<time>2013-08-09T21:07:04Z</time>
</trkpt>
<trkpt lat="37.58420109" lon="-1.20919485">
<ele>141</ele>
<time>2013-08-09T21:07:06Z</time>
</trkpt>
<trkpt lat="37.58417001" lon="-1.2091888">
<ele>140</ele>
<time>2013-08-09T21:07:10Z</time>
</trkpt>
<trkpt lat="37.58415387" lon="-1.20918517">
<ele>140</ele>
<time>2013-08-09T21:07:12Z</time>
</trkpt>
<trkpt lat="37.58410318" lon="-1.20920254">
<ele>141</ele>
<time>2013-08-09T21:07:16Z</time>
</trkpt>
<trkpt lat="37.58407531" lon="-1.2092018">
<ele>142</ele>
<time>2013-08-09T21:07:18Z</time>
</trkpt>
<trkpt lat="37.58404721" lon="-1.20919325">
<ele>143</ele>
<time>2013-08-09T21:07:22Z</time>
</trkpt>
<trkpt lat="37.58404926" lon="-1.20919671">
<ele>142</ele>
<time>2013-08-09T21:07:24Z</time>
</trkpt>
<trkpt lat="37.58406488" lon="-1.20921308">
<ele>143</ele>
<time>2013-08-09T21:07:28Z</time>
</trkpt>
<trkpt lat="37.58406229" lon="-1.20922286">
<ele>142</ele>
<time>2013-08-09T21:07:30Z</time>
</trkpt>
<trkpt lat="37.58404176" lon="-1.20923902">
<ele>139</ele>
<time>2013-08-09T21:07:34Z</time>
</trkpt>
<trkpt lat="37.58402047" lon="-1.20924431">
<ele>138</ele>
<time>2013-08-09T21:07:36Z</time>
</trkpt>
<trkpt lat="37.58398491" lon="-1.20925963">
<ele>137</ele>
<time>2013-08-09T21:07:40Z</time>
</trkpt>
<trkpt lat="37.58396514" lon="-1.20926087">
<ele>136</ele>
<time>2013-08-09T21:07:42Z</time>
</trkpt>
<trkpt lat="37.58391773" lon="-1.20926484">
<ele>137</ele>
<time>2013-08-09T21:07:46Z</time>
</trkpt>
<trkpt lat="37.58390076" lon="-1.20927553">
<ele>137</ele>
<time>2013-08-09T21:07:48Z</time>
</trkpt>
<trkpt lat="37.58386087" lon="-1.20929919">
<ele>138</ele>
<time>2013-08-09T21:07:52Z</time>
</trkpt>
<trkpt lat="37.58383856" lon="-1.20931728">
<ele>137</ele>
<time>2013-08-09T21:07:54Z</time>
</trkpt>
<trkpt lat="37.58379271" lon="-1.2093358">
<ele>138</ele>
<time>2013-08-09T21:07:58Z</time>
</trkpt>
<trkpt lat="37.5837709" lon="-1.20934326">
<ele>138</ele>
<time>2013-08-09T21:08:00Z</time>
</trkpt>
<trkpt lat="37.58371346" lon="-1.20937199">
<ele>137</ele>
<time>2013-08-09T21:08:04Z</time>
</trkpt>
<trkpt lat="37.58368051" lon="-1.20938191">
<ele>136</ele>
<time>2013-08-09T21:08:06Z</time>
</trkpt>
<trkpt lat="37.58362805" lon="-1.20939681">
<ele>135</ele>
<time>2013-08-09T21:08:10Z</time>
</trkpt>
<trkpt lat="37.58360023" lon="-1.20940025">
<ele>134</ele>
<time>2013-08-09T21:08:12Z</time>
</trkpt>
<trkpt lat="37.58355171" lon="-1.20939485">
<ele>135</ele>
<time>2013-08-09T21:08:16Z</time>
</trkpt>
<trkpt lat="37.58352868" lon="-1.20938999">
<ele>135</ele>
<time>2013-08-09T21:08:18Z</time>
</trkpt>
<trkpt lat="37.58346484" lon="-1.20938253">
<ele>132</ele>
<time>2013-08-09T21:08:22Z</time>
</trkpt>
<trkpt lat="37.58344238" lon="-1.20937275">
<ele>132</ele>
<time>2013-08-09T21:08:24Z</time>
</trkpt>
<trkpt lat="37.58342844" lon="-1.20935309">
<ele>132</ele>
<time>2013-08-09T21:08:28Z</time>
</trkpt>
<trkpt lat="37.58341447" lon="-1.20933712">
<ele>131</ele>
<time>2013-08-09T21:08:30Z</time>
</trkpt>
<trkpt lat="37.58339678" lon="-1.2092868">
<ele>130</ele>
<time>2013-08-09T21:08:34Z</time>
</trkpt>
<trkpt lat="37.58339873" lon="-1.20925873">
<ele>125</ele>
<time>2013-08-09T21:08:36Z</time>
</trkpt>
<trkpt lat="37.58338169" lon="-1.20922139">
<ele>129</ele>
<time>2013-08-09T21:08:40Z</time>
</trkpt>
<trkpt lat="37.58336416" lon="-1.20921007">
<ele>129</ele>
<time>2013-08-09T21:08:42Z</time>
</trkpt>
<trkpt lat="37.58330896" lon="-1.20919419">
<ele>126</ele>
<time>2013-08-09T21:08:46Z</time>
</trkpt>
<trkpt lat="37.58329866" lon="-1.20919039">
<ele>126</ele>
<time>2013-08-09T21:08:48Z</time>
</trkpt>
<trkpt lat="37.58329451" lon="-1.20918824">
<ele>126</ele>
<time>2013-08-09T21:08:52Z</time>
</trkpt>
<trkpt lat="37.58329324" lon="-1.20918681">
<ele>125</ele>
<time>2013-08-09T21:08:54Z</time>
</trkpt>
<trkpt lat="37.58329203" lon="-1.20918296">
<ele>125</ele>
<time>2013-08-09T21:08:58Z</time>
</trkpt>
<trkpt lat="37.58329052" lon="-1.20918144">
<ele>125</ele>
<time>2013-08-09T21:09:00Z</time>
</trkpt>
<trkpt lat="37.58326837" lon="-1.20915359">
<ele>125</ele>
<time>2013-08-09T21:09:04Z</time>
</trkpt>
<trkpt lat="37.5832587" lon="-1.20914659">
<ele>125</ele>
<time>2013-08-09T21:09:06Z</time>
</trkpt>
<trkpt lat="37.58325101" lon="-1.20911686">
<ele>125</ele>
<time>2013-08-09T21:09:10Z</time>
</trkpt>
<trkpt lat="37.58323856" lon="-1.20908718">
<ele>124</ele>
<time>2013-08-09T21:09:12Z</time>
</trkpt>
<trkpt lat="37.58319834" lon="-1.20904044">
<ele>117</ele>
<time>2013-08-09T21:09:16Z</time>
</trkpt>
<trkpt lat="37.58317593" lon="-1.20902521">
<ele>117</ele>
<time>2013-08-09T21:09:18Z</time>
</trkpt>
<trkpt lat="37.58313027" lon="-1.20898677">
<ele>115</ele>
<time>2013-08-09T21:09:22Z</time>
</trkpt>
<trkpt lat="37.5831126" lon="-1.20896559">
<ele>117</ele>
<time>2013-08-09T21:09:24Z</time>
</trkpt>
<trkpt lat="37.58307337" lon="-1.20892191">
<ele>117</ele>
<time>2013-08-09T21:09:28Z</time>
</trkpt>
<trkpt lat="37.58305373" lon="-1.20890375">
<ele>117</ele>
<time>2013-08-09T21:09:30Z</time>
</trkpt>
<trkpt lat="37.58300813" lon="-1.20889165">
<ele>117</ele>
<time>2013-08-09T21:09:34Z</time>
</trkpt>
<trkpt lat="37.58298699" lon="-1.20889092">
<ele>118</ele>
<time>2013-08-09T21:09:36Z</time>
</trkpt>
<trkpt lat="37.58294939" lon="-1.2088844">
<ele>117</ele>
<time>2013-08-09T21:09:40Z</time>
</trkpt>
<trkpt lat="37.58292746" lon="-1.20888489">
<ele>119</ele>
<time>2013-08-09T21:09:42Z</time>
</trkpt>
<trkpt lat="37.58287436" lon="-1.20889465">
<ele>119</ele>
<time>2013-08-09T21:09:46Z</time>
</trkpt>
<trkpt lat="37.58284638" lon="-1.20889067">
<ele>120</ele>
<time>2013-08-09T21:09:48Z</time>
</trkpt>
<trkpt lat="37.58280761" lon="-1.20887858">
<ele>120</ele>
<time>2013-08-09T21:09:52Z</time>
</trkpt>
<trkpt lat="37.58278777" lon="-1.20887233">
<ele>120</ele>
<time>2013-08-09T21:09:54Z</time>
</trkpt>
<trkpt lat="37.58274461" lon="-1.20886137">
<ele>119</ele>
<time>2013-08-09T21:09:58Z</time>
</trkpt>
<trkpt lat="37.58272284" lon="-1.20885874">
<ele>118</ele>
<time>2013-08-09T21:10:00Z</time>
</trkpt>
<trkpt lat="37.58268364" lon="-1.20883904">
<ele>116</ele>
<time>2013-08-09T21:10:04Z</time>
</trkpt>
<trkpt lat="37.58266695" lon="-1.20882321">
<ele>116</ele>
<time>2013-08-09T21:10:06Z</time>
</trkpt>
<trkpt lat="37.5826299" lon="-1.20878964">
<ele>116</ele>
<time>2013-08-09T21:10:10Z</time>
</trkpt>
<trkpt lat="37.58260847" lon="-1.20877364">
<ele>116</ele>
<time>2013-08-09T21:10:12Z</time>
</trkpt>
<trkpt lat="37.58255626" lon="-1.20875776">
<ele>114</ele>
<time>2013-08-09T21:10:16Z</time>
</trkpt>
<trkpt lat="37.58253124" lon="-1.20876078">
<ele>114</ele>
<time>2013-08-09T21:10:18Z</time>
</trkpt>
<trkpt lat="37.58247023" lon="-1.2087799">
<ele>110</ele>
<time>2013-08-09T21:10:22Z</time>
</trkpt>
<trkpt lat="37.58243403" lon="-1.2087912">
<ele>109</ele>
<time>2013-08-09T21:10:24Z</time>
</trkpt>
<trkpt lat="37.58236986" lon="-1.20882185">
<ele>104</ele>
<time>2013-08-09T21:10:28Z</time>
</trkpt>
<trkpt lat="37.58233884" lon="-1.20883046">
<ele>106</ele>
<time>2013-08-09T21:10:30Z</time>
</trkpt>
<trkpt lat="37.58228932" lon="-1.20881733">
<ele>108</ele>
<time>2013-08-09T21:10:34Z</time>
</trkpt>
<trkpt lat="37.5822653" lon="-1.20880144">
<ele>109</ele>
<time>2013-08-09T21:10:36Z</time>
</trkpt>
<trkpt lat="37.5821971" lon="-1.2087893">
<ele>110</ele>
<time>2013-08-09T21:10:40Z</time>
</trkpt>
<trkpt lat="37.58216472" lon="-1.20878271">
<ele>110</ele>
<time>2013-08-09T21:10:42Z</time>
</trkpt>
<trkpt lat="37.58210984" lon="-1.20876718">
<ele>111</ele>
<time>2013-08-09T21:10:46Z</time>
</trkpt>
<trkpt lat="37.58208915" lon="-1.20876415">
<ele>110</ele>
<time>2013-08-09T21:10:48Z</time>
</trkpt>
<trkpt lat="37.58204465" lon="-1.20874922">
<ele>111</ele>
<time>2013-08-09T21:10:52Z</time>
</trkpt>
<trkpt lat="37.58202031" lon="-1.2087466">
<ele>111</ele>
<time>2013-08-09T21:10:54Z</time>
</trkpt>
<trkpt lat="37.58197376" lon="-1.20873404">
<ele>110</ele>
<time>2013-08-09T21:10:58Z</time>
</trkpt>
<trkpt lat="37.58195226" lon="-1.20873211">
<ele>109</ele>
<time>2013-08-09T21:11:00Z</time>
</trkpt>
<trkpt lat="37.58190826" lon="-1.20873404">
<ele>109</ele>
<time>2013-08-09T21:11:04Z</time>
</trkpt>
<trkpt lat="37.58189497" lon="-1.20873391">
<ele>110</ele>
<time>2013-08-09T21:11:06Z</time>
</trkpt>
<trkpt lat="37.58185022" lon="-1.20872952">
<ele>109</ele>
<time>2013-08-09T21:11:10Z</time>
</trkpt>
<trkpt lat="37.58182462" lon="-1.20873397">
<ele>109</ele>
<time>2013-08-09T21:11:12Z</time>
</trkpt>
<trkpt lat="37.58176561" lon="-1.20876012">
<ele>109</ele>
<time>2013-08-09T21:11:16Z</time>
</trkpt>
<trkpt lat="37.58173925" lon="-1.20877117">
<ele>108</ele>
<time>2013-08-09T21:11:18Z</time>
</trkpt>
<trkpt lat="37.58169877" lon="-1.20879654">
<ele>108</ele>
<time>2013-08-09T21:11:22Z</time>
</trkpt>
<trkpt lat="37.581678" lon="-1.2088167">
<ele>108</ele>
<time>2013-08-09T21:11:24Z</time>
</trkpt>
<trkpt lat="37.58164848" lon="-1.2088557">
<ele>107</ele>
<time>2013-08-09T21:11:28Z</time>
</trkpt>
<trkpt lat="37.58162886" lon="-1.20886783">
<ele>107</ele>
<time>2013-08-09T21:11:30Z</time>
</trkpt>
<trkpt lat="37.58159427" lon="-1.20889551">
<ele>107</ele>
<time>2013-08-09T21:11:34Z</time>
</trkpt>
<trkpt lat="37.58156021" lon="-1.20890463">
<ele>111</ele>
<time>2013-08-09T21:11:36Z</time>
</trkpt>
<trkpt lat="37.58150221" lon="-1.20893428">
<ele>111</ele>
<time>2013-08-09T21:11:40Z</time>
</trkpt>
<trkpt lat="37.58147117" lon="-1.20895029">
<ele>111</ele>
<time>2013-08-09T21:11:42Z</time>
</trkpt>
<trkpt lat="37.58141617" lon="-1.2089629">
<ele>111</ele>
<time>2013-08-09T21:11:46Z</time>
</trkpt>
<trkpt lat="37.58138498" lon="-1.2089495">
<ele>111</ele>
<time>2013-08-09T21:11:48Z</time>
</trkpt>
<trkpt lat="37.58134359" lon="-1.20891272">
<ele>108</ele>
<time>2013-08-09T21:11:52Z</time>
</trkpt>
<trkpt lat="37.58133129" lon="-1.20888422">
<ele>107</ele>
<time>2013-08-09T21:11:54Z</time>
</trkpt>
<trkpt lat="37.5813229" lon="-1.20883903">
<ele>109</ele>
<time>2013-08-09T21:11:58Z</time>
</trkpt>
<trkpt lat="37.58132263" lon="-1.20883494">
<ele>108</ele>
<time>2013-08-09T21:12:00Z</time>
</trkpt>
<trkpt lat="37.58133199" lon="-1.20884477">
<ele>108</ele>
<time>2013-08-09T21:12:04Z</time>
</trkpt>
<trkpt lat="37.58133201" lon="-1.20884544">
<ele>108</ele>
<time>2013-08-09T21:12:06Z</time>
</trkpt>
<trkpt lat="37.58133049" lon="-1.20885041">
<ele>108</ele>
<time>2013-08-09T21:12:10Z</time>
</trkpt>
<trkpt lat="37.5813298" lon="-1.20885236">
<ele>108</ele>
<time>2013-08-09T21:12:12Z</time>
</trkpt>
<trkpt lat="37.58132667" lon="-1.20885684">
<ele>108</ele>
<time>2013-08-09T21:12:16Z</time>
</trkpt>
<trkpt lat="37.58132473" lon="-1.20885896">
<ele>108</ele>
<time>2013-08-09T21:12:18Z</time>
</trkpt>
<trkpt lat="37.58132426" lon="-1.20885949">
<ele>108</ele>
<time>2013-08-09T21:12:22Z</time>
</trkpt>
<trkpt lat="37.5813243" lon="-1.20885951">
<ele>108</ele>
<time>2013-08-09T21:12:24Z</time>
</trkpt>
<trkpt lat="37.58132433" lon="-1.2088604">
<ele>108</ele>
<time>2013-08-09T21:12:28Z</time>
</trkpt>
<trkpt lat="37.58132167" lon="-1.20886399">
<ele>108</ele>
<time>2013-08-09T21:12:30Z</time>
</trkpt>
<trkpt lat="37.58132088" lon="-1.208865">
<ele>108</ele>
<time>2013-08-09T21:12:34Z</time>
</trkpt>
<trkpt lat="37.58132072" lon="-1.20886505">
<ele>108</ele>
<time>2013-08-09T21:12:36Z</time>
</trkpt>
<trkpt lat="37.58128376" lon="-1.20885612">
<ele>109</ele>
<time>2013-08-09T21:12:40Z</time>
</trkpt>
<trkpt lat="37.58125619" lon="-1.20886932">
<ele>109</ele>
<time>2013-08-09T21:12:42Z</time>
</trkpt>
<trkpt lat="37.58118591" lon="-1.20889263">
<ele>108</ele>
<time>2013-08-09T21:12:46Z</time>
</trkpt>
<trkpt lat="37.58114674" lon="-1.20890702">
<ele>108</ele>
<time>2013-08-09T21:12:48Z</time>
</trkpt>
<trkpt lat="37.58110443" lon="-1.20893328">
<ele>105</ele>
<time>2013-08-09T21:12:52Z</time>
</trkpt>
<trkpt lat="37.5811037" lon="-1.20894205">
<ele>105</ele>
<time>2013-08-09T21:12:54Z</time>
</trkpt>
<trkpt lat="37.58110834" lon="-1.20894359">
<ele>103</ele>
<time>2013-08-09T21:12:58Z</time>
</trkpt>
<trkpt lat="37.58110849" lon="-1.20894324">
<ele>104</ele>
<time>2013-08-09T21:13:00Z</time>
</trkpt>
<trkpt lat="37.58110067" lon="-1.20895303">
<ele>103</ele>
<time>2013-08-09T21:13:04Z</time>
</trkpt>
<trkpt lat="37.58109729" lon="-1.20895269">
<ele>103</ele>
<time>2013-08-09T21:13:06Z</time>
</trkpt>
<trkpt lat="37.58107041" lon="-1.2089369">
<ele>101</ele>
<time>2013-08-09T21:13:10Z</time>
</trkpt>
<trkpt lat="37.58104079" lon="-1.2089227">
<ele>98</ele>
<time>2013-08-09T21:13:12Z</time>
</trkpt>
<trkpt lat="37.5809779" lon="-1.20890001">
<ele>97</ele>
<time>2013-08-09T21:13:16Z</time>
</trkpt>
<trkpt lat="37.58095128" lon="-1.20889832">
<ele>96</ele>
<time>2013-08-09T21:13:18Z</time>
</trkpt>
<trkpt lat="37.58089483" lon="-1.20888896">
<ele>95</ele>
<time>2013-08-09T21:13:22Z</time>
</trkpt>
<trkpt lat="37.58083472" lon="-1.20887962">
<ele>95</ele>
<time>2013-08-09T21:13:26Z</time>
</trkpt>
<trkpt lat="37.5807625" lon="-1.20886596">
<ele>94</ele>
<time>2013-08-09T21:13:32Z</time>
</trkpt>
<trkpt lat="37.58068388" lon="-1.20885263">
<ele>94</ele>
<time>2013-08-09T21:13:38Z</time>
</trkpt>
<trkpt lat="37.58061698" lon="-1.20883843">
<ele>94</ele>
<time>2013-08-09T21:13:44Z</time>
</trkpt>
<trkpt lat="37.58062108" lon="-1.20884615">
<ele>94</ele>
<time>2013-08-09T21:13:50Z</time>
</trkpt>
<trkpt lat="37.58061996" lon="-1.20884018">
<ele>94</ele>
<time>2013-08-09T21:13:56Z</time>
</trkpt>
<trkpt lat="37.58057258" lon="-1.20883721">
<ele>94</ele>
<time>2013-08-09T21:14:02Z</time>
</trkpt>
<trkpt lat="37.58050397" lon="-1.20882804">
<ele>95</ele>
<time>2013-08-09T21:14:08Z</time>
</trkpt>
<trkpt lat="37.58044192" lon="-1.20881485">
<ele>94</ele>
<time>2013-08-09T21:14:14Z</time>
</trkpt>
<trkpt lat="37.58037921" lon="-1.20879407">
<ele>91</ele>
<time>2013-08-09T21:14:20Z</time>
</trkpt>
<trkpt lat="37.58032717" lon="-1.20876977">
<ele>91</ele>
<time>2013-08-09T21:14:26Z</time>
</trkpt>
<trkpt lat="37.5803208" lon="-1.20877418">
<ele>91</ele>
<time>2013-08-09T21:14:32Z</time>
</trkpt>
<trkpt lat="37.58031015" lon="-1.20877308">
<ele>91</ele>
<time>2013-08-09T21:14:38Z</time>
</trkpt>
<trkpt lat="37.58026009" lon="-1.20875469">
<ele>90</ele>
<time>2013-08-09T21:14:44Z</time>
</trkpt>
<trkpt lat="37.58019032" lon="-1.20872344">
<ele>86</ele>
<time>2013-08-09T21:14:50Z</time>
</trkpt>
<trkpt lat="37.58012044" lon="-1.20872354">
<ele>84</ele>
<time>2013-08-09T21:14:56Z</time>
</trkpt>
<trkpt lat="37.58003964" lon="-1.20871605">
<ele>87</ele>
<time>2013-08-09T21:15:02Z</time>
</trkpt>
<trkpt lat="37.5800243" lon="-1.20871424">
<ele>86</ele>
<time>2013-08-09T21:15:08Z</time>
</trkpt>
<trkpt lat="37.57997758" lon="-1.2087165">
<ele>88</ele>
<time>2013-08-09T21:15:14Z</time>
</trkpt>
<trkpt lat="37.5799404" lon="-1.20871701">
<ele>85</ele>
<time>2013-08-09T21:15:20Z</time>
</trkpt>
<trkpt lat="37.57988961" lon="-1.20873011">
<ele>85</ele>
<time>2013-08-09T21:15:26Z</time>
</trkpt>
<trkpt lat="37.57981832" lon="-1.20871401">
<ele>85</ele>
<time>2013-08-09T21:15:32Z</time>
</trkpt>
<trkpt lat="37.57972941" lon="-1.20867105">
<ele>85</ele>
<time>2013-08-09T21:15:38Z</time>
</trkpt>
<trkpt lat="37.57966312" lon="-1.20866245">
<ele>82</ele>
<time>2013-08-09T21:15:44Z</time>
</trkpt>
<trkpt lat="37.57958334" lon="-1.2086651">
<ele>79</ele>
<time>2013-08-09T21:15:50Z</time>
</trkpt>
<trkpt lat="37.5794827" lon="-1.20867236">
<ele>79</ele>
<time>2013-08-09T21:15:56Z</time>
</trkpt>
<trkpt lat="37.57939921" lon="-1.20866915">
<ele>77</ele>
<time>2013-08-09T21:16:02Z</time>
</trkpt>
<trkpt lat="37.57932386" lon="-1.20863862">
<ele>73</ele>
<time>2013-08-09T21:16:08Z</time>
</trkpt>
<trkpt lat="37.57925351" lon="-1.20860633">
<ele>73</ele>
<time>2013-08-09T21:16:14Z</time>
</trkpt>
<trkpt lat="37.57918119" lon="-1.20859636">
<ele>72</ele>
<time>2013-08-09T21:16:20Z</time>
</trkpt>
<trkpt lat="37.57911115" lon="-1.2085656">
<ele>69</ele>
<time>2013-08-09T21:16:26Z</time>
</trkpt>
<trkpt lat="37.57903398" lon="-1.20854336">
<ele>71</ele>
<time>2013-08-09T21:16:32Z</time>
</trkpt>
<trkpt lat="37.57902006" lon="-1.2085265">
<ele>67</ele>
<time>2013-08-09T21:16:38Z</time>
</trkpt>
<trkpt lat="37.57894347" lon="-1.20851031">
<ele>68</ele>
<time>2013-08-09T21:16:44Z</time>
</trkpt>
<trkpt lat="37.57886477" lon="-1.20852354">
<ele>72</ele>
<time>2013-08-09T21:16:50Z</time>
</trkpt>
<trkpt lat="37.5788327" lon="-1.20852319">
<ele>73</ele>
<time>2013-08-09T21:16:56Z</time>
</trkpt>
<trkpt lat="37.57882552" lon="-1.20851849">
<ele>73</ele>
<time>2013-08-09T21:17:02Z</time>
</trkpt>
<trkpt lat="" lon="">
<ele></ele>
<time>2013-08-09TZ</time>
</trkpt>
</trkseg>
</trk>
<wpt lat="37.580806" lon="-1.204075">
	<name>wpt19:40:05</name>
	<desc></desc>
	<cmt></cmt>
	<photoid>1376070005898</photoid>
	<type>1</type>
</wpt>
<wpt lat="
37.581521" lon="-1.202144">
	<name>wpt19:51:58</name>
	<desc></desc>
	<cmt></cmt>
	<photoid>1376070718740</photoid>
	<type>1</type>
</wpt>
<wpt lat="
37.582643" lon="-1.200942">
	<name>wpt20:02:53</name>
	<desc></desc>
	<cmt></cmt>
	<photoid>1376071373611</photoid>
	<type>1</type>
</wpt>
<wpt lat="
37.583714" lon="-1.202616">
	<name>wpt20:37:58</name>
	<desc></desc>
	<cmt></cmt>
	<photoid>1376073478898</photoid>
	<type>1</type>
</wpt>
<wpt lat="
" lon="">
	<name></name>
	<desc></desc>
	<cmt></cmt>
	<photoid></photoid>
	<type></type>
</wpt>
</gpx>
